Wetterdaten: Montag, 02.11.2015
Datum Zeit Temp. A. Feuchte A. Luftdruck Regen Wind Richtung Richtung Sonnenschein ET UV Solar Taupunkt Windchill Windben Empfang
02.11.2015 00:00 3,2 C 75 % 1030,9 hPa 0,0 l/m 0,9 km/h (0 Bft) O-NO 75 0 min 0,000 mm 0,0 UV-I 0 W/m -0,8 C 3,2 C 1,6 km/h (1 Bft) 100,00 %
02.11.2015 00:02 3,1 C 75 % 1030,9 hPa 0,0 l/m 0,3 km/h (0 Bft) O-NO 74 0 min 0,000 mm 0,0 UV-I 0 W/m -0,9 C 3,1 C 1,6 km/h (1 Bft) 95,56 %
02.11.2015 00:03 3,1 C 75 % 1030,9 hPa 0,0 l/m 0,0 km/h (0 Bft) O-NO 74 0 min 0,000 mm 0,0 UV-I 0 W/m -0,9 C 3,1 C 0,0 km/h (0 Bft) 100,00 %
02.11.2015 00:04 3,1 C 75 % 1030,9 hPa 0,0 l/m 0,5 km/h (0 Bft) O-NO 74 0 min 0,000 mm 0,0 UV-I 0 W/m -0,9 C 3,1 C 1,6 km/h (1 Bft) 95,83 %
02.11.2015 00:05 3,1 C 75 % 1030,8 hPa 0,0 l/m 1,4 km/h (1 Bft) O-NO 74 0 min 0,000 mm 0,0 UV-I 0 W/m -0,9 C 3,1 C 3,2 km/h (1 Bft) 95,65 %
02.11.2015 00:06 3,2 C 75 % 1030,9 hPa 0,0 l/m 1,3 km/h (1 Bft) O-NO 74 0 min 0,000 mm 0,0 UV-I 0 W/m -0,8 C 3,2 C 1,6 km/h (1 Bft) 100,00 %
02.11.2015 00:07 3,2 C 75 % 1030,9 hPa 0,0 l/m 0,5 km/h (0 Bft) O-NO 74 0 min 0,000 mm 0,0 UV-I 0 W/m -0,8 C 3,2 C 1,6 km/h (1 Bft) 100,00 %
02.11.2015 00:08 3,2 C 75 % 1031,0 hPa 0,0 l/m 0,9 km/h (0 Bft) O-NO 74 0 min 0,000 mm 0,0 UV-I 0 W/m -0,8 C 3,2 C 1,6 km/h (1 Bft) 100,00 %
02.11.2015 00:09 3,2 C 75 % 1030,9 hPa 0,0 l/m 0,0 km/h (0 Bft) O-NO 74 0 min 0,000 mm 0,0 UV-I 0 W/m -0,8 C 3,2 C 0,0 km/h (0 Bft) 100,00 %
02.11.2015 00:10 3,2 C 75 % 1030,9 hPa 0,0 l/m 0,3 km/h (0 Bft) O-NO 74 0 min 0,000 mm 0,0 UV-I 0 W/m -0,8 C 3,2 C 1,6 km/h (1 Bft) 95,83 %
02.11.2015 00:11 3,2 C 75 % 1030,8 hPa 0,0 l/m 0,1 km/h (0 Bft) O-NO 74 0 min 0,000 mm 0,0 UV-I 0 W/m -0,8 C 3,2 C 1,6 km/h (1 Bft) 100,00 %
02.11.2015 00:12 3,2 C 75 % 1030,8 hPa 0,0 l/m 0,6 km/h (0 Bft) O-NO 74 0 min 0,000 mm 0,0 UV-I 0 W/m -0,8 C 3,2 C 1,6 km/h (1 Bft) 100,00 %
02.11.2015 00:13 3,2 C 75 % 1030,9 hPa 0,0 l/m 1,5 km/h (1 Bft) O 83 0 min 0,000 mm 0,0 UV-I 0 W/m -0,8 C 3,2 C 3,2 km/h (1 Bft) 100,00 %
02.11.2015 00:14 3,2 C 75 % 1030,8 hPa 0,0 l/m 1,9 km/h (1 Bft) O 83 0 min 0,000 mm 0,0 UV-I 0 W/m -0,8 C 3,2 C 3,2 km/h (1 Bft) 100,00 %
02.11.2015 00:15 3,2 C 75 % 1030,9 hPa 0,0 l/m 1,6 km/h (1 Bft) O 83 0 min 0,000 mm 0,0 UV-I 0 W/m -0,8 C 3,2 C 3,2 km/h (1 Bft) 100,00 %
02.11.2015 00:16 3,3 C 75 % 1030,9 hPa 0,0 l/m 1,6 km/h (1 Bft) O 83 0 min 0,000 mm 0,0 UV-I 0 W/m -0,7 C 3,3 C 3,2 km/h (1 Bft) 96,15 %
02.11.2015 00:17 3,3 C 75 % 1030,9 hPa 0,0 l/m 0,9 km/h (0 Bft) O 83 0 min 0,000 mm 0,0 UV-I 0 W/m -0,7 C 3,3 C 1,6 km/h (1 Bft) 95,83 %
02.11.2015 00:18 3,3 C 75 % 1031,0 hPa 0,0 l/m 0,1 km/h (0 Bft) O 83 0 min 0,000 mm 0,0 UV-I 0 W/m -0,7 C 3,3 C 1,6 km/h (1 Bft) 100,00 %
02.11.2015 00:19 3,2 C 75 % 1031,0 hPa 0,0 l/m 0,7 km/h (0 Bft) O 83 0 min 0,000 mm 0,0 UV-I 0 W/m -0,8 C 3,2 C 1,6 km/h (1 Bft) 100,00 %
02.11.2015 00:20 3,2 C 75 % 1030,9 hPa 0,0 l/m 1,7 km/h (1 Bft) O 83 0 min 0,000 mm 0,0 UV-I 0 W/m -0,8 C 3,2 C 3,2 km/h (1 Bft) 92,86 %
02.11.2015 00:21 3,2 C 75 % 1030,8 hPa 0,0 l/m 2,5 km/h (1 Bft) O 82 0 min 0,000 mm 0,0 UV-I 0 W/m -0,8 C 3,2 C 4,8 km/h (1 Bft) 96,30 %
02.11.2015 00:22 3,3 C 74 % 1030,8 hPa 0,0 l/m 2,0 km/h (1 Bft) O-NO 78 0 min 0,000 mm 0,0 UV-I 0 W/m -0,9 C 3,3 C 3,2 km/h (1 Bft) 100,00 %
02.11.2015 00:23 3,3 C 74 % 1030,8 hPa 0,0 l/m 1,8 km/h (1 Bft) O 79 0 min 0,000 mm 0,0 UV-I 0 W/m -0,9 C 3,3 C 3,2 km/h (1 Bft) 100,00 %
02.11.2015 00:24 3,4 C 74 % 1030,8 hPa 0,0 l/m 1,2 km/h (1 Bft) O 79 0 min 0,000 mm 0,0 UV-I 0 W/m -0,8 C 3,4 C 3,2 km/h (1 Bft) 100,00 %
02.11.2015 00:25 3,4 C 74 % 1030,8 hPa 0,0 l/m 0,8 km/h (0 Bft) O 80 0 min 0,000 mm 0,0 UV-I 0 W/m -0,8 C 3,4 C 3,2 km/h (1 Bft) 100,00 %
02.11.2015 00:26 3,4 C 74 % 1030,8 hPa 0,0 l/m 0,6 km/h (0 Bft) O 96 0 min 0,000 mm 0,0 UV-I 0 W/m -0,8 C 3,4 C 3,2 km/h (1 Bft) 100,00 %
02.11.2015 00:27 3,4 C 74 % 1030,8 hPa 0,0 l/m 1,5 km/h (1 Bft) O 82 0 min 0,000 mm 0,0 UV-I 0 W/m -0,8 C 3,4 C 3,2 km/h (1 Bft) 100,00 %
02.11.2015 00:28 3,4 C 74 % 1030,8 hPa 0,0 l/m 2,1 km/h (1 Bft) NO 53 0 min 0,000 mm 0,0 UV-I 0 W/m -0,8 C 3,4 C 4,8 km/h (1 Bft) 100,00 %
02.11.2015 00:29 3,4 C 74 % 1030,8 hPa 0,0 l/m 2,4 km/h (1 Bft) O-NO 77 0 min 0,000 mm 0,0 UV-I 0 W/m -0,8 C 3,4 C 4,8 km/h (1 Bft) 100,00 %
02.11.2015 00:30 3,4 C 74 % 1030,8 hPa 0,0 l/m 2,3 km/h (1 Bft) O-NO 78 0 min 0,000 mm 0,0 UV-I 0 W/m -0,8 C 3,4 C 4,8 km/h (1 Bft) 100,00 %
02.11.2015 00:31 3,4 C 74 % 1030,8 hPa 0,0 l/m 1,1 km/h (1 Bft) O-NO 78 0 min 0,000 mm 0,0 UV-I 0 W/m -0,8 C 3,4 C 3,2 km/h (1 Bft) 100,00 %
02.11.2015 00:32 3,4 C 73 % 1030,8 hPa 0,0 l/m 1,2 km/h (1 Bft) O 86 0 min 0,000 mm 0,0 UV-I 0 W/m -1,0 C 3,4 C 3,2 km/h (1 Bft) 100,00 %
02.11.2015 00:33 3,4 C 74 % 1030,8 hPa 0,0 l/m 3,6 km/h (1 Bft) O 88 0 min 0,000 mm 0,0 UV-I 0 W/m -0,8 C 3,4 C 4,8 km/h (1 Bft) 100,00 %
02.11.2015 00:34 3,4 C 73 % 1030,8 hPa 0,0 l/m 4,5 km/h (1 Bft) O 80 0 min 0,000 mm 0,0 UV-I 0 W/m -1,0 C 3,4 C 6,4 km/h (2 Bft) 100,00 %
02.11.2015 00:35 3,4 C 73 % 1030,8 hPa 0,0 l/m 3,4 km/h (1 Bft) O-NO 69 0 min 0,000 mm 0,0 UV-I 0 W/m -1,0 C 3,4 C 4,8 km/h (1 Bft) 100,00 %
02.11.2015 00:36 3,5 C 73 % 1030,7 hPa 0,0 l/m 3,2 km/h (1 Bft) O 86 0 min 0,000 mm 0,0 UV-I 0 W/m -0,9 C 3,5 C 4,8 km/h (1 Bft) 100,00 %
02.11.2015 00:37 3,5 C 73 % 1030,8 hPa 0,0 l/m 3,3 km/h (1 Bft) O-NO 78 0 min 0,000 mm 0,0 UV-I 0 W/m -0,9 C 3,5 C 6,4 km/h (2 Bft) 100,00 %
02.11.2015 00:38 3,6 C 73 % 1030,8 hPa 0,0 l/m 3,7 km/h (1 Bft) O 87 0 min 0,000 mm 0,0 UV-I 0 W/m -0,8 C 3,6 C 6,4 km/h (2 Bft) 100,00 %
02.11.2015 00:39 3,6 C 73 % 1030,8 hPa 0,0 l/m 3,0 km/h (1 Bft) O 97 0 min 0,000 mm 0,0 UV-I 0 W/m -0,8 C 3,6 C 4,8 km/h (1 Bft) 100,00 %
02.11.2015 00:40 3,7 C 72 % 1030,8 hPa 0,0 l/m 3,7 km/h (1 Bft) O-NO 76 0 min 0,000 mm 0,0 UV-I 0 W/m -0,9 C 3,7 C 6,4 km/h (2 Bft) 100,00 %
02.11.2015 00:41 3,7 C 73 % 1030,8 hPa 0,0 l/m 2,3 km/h (1 Bft) O 92 0 min 0,000 mm 0,0 UV-I 0 W/m -0,7 C 3,7 C 3,2 km/h (1 Bft) 92,86 %
02.11.2015 00:42 3,7 C 72 % 1030,8 hPa 0,0 l/m 2,8 km/h (1 Bft) O 85 0 min 0,000 mm 0,0 UV-I 0 W/m -0,9 C 3,7 C 4,8 km/h (1 Bft) 100,00 %
02.11.2015 00:43 3,7 C 72 % 1030,8 hPa 0,0 l/m 2,5 km/h (1 Bft) O-NO 76 0 min 0,000 mm 0,0 UV-I 0 W/m -0,9 C 3,7 C 3,2 km/h (1 Bft) 100,00 %
02.11.2015 00:44 3,7 C 72 % 1030,7 hPa 0,0 l/m 1,7 km/h (1 Bft) O-NO 76 0 min 0,000 mm 0,0 UV-I 0 W/m -0,9 C 3,7 C 3,2 km/h (1 Bft) 100,00 %
02.11.2015 00:45 3,7 C 72 % 1030,7 hPa 0,0 l/m 1,8 km/h (1 Bft) O-NO 74 0 min 0,000 mm 0,0 UV-I 0 W/m -0,9 C 3,7 C 3,2 km/h (1 Bft) 95,65 %
02.11.2015 00:46 3,7 C 72 % 1030,7 hPa 0,0 l/m 2,0 km/h (1 Bft) O-NO 67 0 min 0,000 mm 0,0 UV-I 0 W/m -0,9 C 3,7 C 3,2 km/h (1 Bft) 100,00 %
02.11.2015 00:47 3,7 C 72 % 1030,7 hPa 0,0 l/m 0,9 km/h (0 Bft) O-NO 67 0 min 0,000 mm 0,0 UV-I 0 W/m -0,9 C 3,7 C 3,2 km/h (1 Bft) 100,00 %
02.11.2015 00:48 3,7 C 73 % 1030,8 hPa 0,0 l/m 0,0 km/h (0 Bft) O-NO 67 0 min 0,000 mm 0,0 UV-I 0 W/m -0,7 C 3,7 C 0,0 km/h (0 Bft) 100,00 %
02.11.2015 00:49 3,6 C 72 % 1030,7 hPa 0,0 l/m 1,4 km/h (1 Bft) O-NO 67 0 min 0,000 mm 0,0 UV-I 0 W/m -1,0 C 3,6 C 1,6 km/h (1 Bft) 100,00 %
02.11.2015 00:50 3,6 C 72 % 1030,7 hPa 0,0 l/m 1,4 km/h (1 Bft) O-NO 67 0 min 0,000 mm 0,0 UV-I 0 W/m -1,0 C 3,6 C 3,2 km/h (1 Bft) 95,83 %
02.11.2015 00:51 3,6 C 72 % 1030,7 hPa 0,0 l/m 2,3 km/h (1 Bft) O-NO 74 0 min 0,000 mm 0,0 UV-I 0 W/m -1,0 C 3,6 C 3,2 km/h (1 Bft) 100,00 %
02.11.2015 00:52 3,6 C 73 % 1030,7 hPa 0,0 l/m 2,5 km/h (1 Bft) O-NO 74 0 min 0,000 mm 0,0 UV-I 0 W/m -0,8 C 3,6 C 3,2 km/h (1 Bft) 100,00 %
02.11.2015 00:53 3,6 C 72 % 1030,7 hPa 0,0 l/m 1,9 km/h (1 Bft) O-NO 74 0 min 0,000 mm 0,0 UV-I 0 W/m -1,0 C 3,6 C 3,2 km/h (1 Bft) 95,83 %
02.11.2015 00:54 3,6 C 72 % 1030,7 hPa 0,0 l/m 0,3 km/h (0 Bft) O-NO 74 0 min 0,000 mm 0,0 UV-I 0 W/m -1,0 C 3,6 C 1,6 km/h (1 Bft) 95,65 %
02.11.2015 00:55 3,6 C 72 % 1030,7 hPa 0,0 l/m 0,7 km/h (0 Bft) O-NO 74 0 min 0,000 mm 0,0 UV-I 0 W/m -1,0 C 3,6 C 1,6 km/h (1 Bft) 100,00 %
02.11.2015 00:56 3,6 C 72 % 1030,7 hPa 0,0 l/m 0,8 km/h (0 Bft) O-NO 74 0 min 0,000 mm 0,0 UV-I 0 W/m -1,0 C 3,6 C 1,6 km/h (1 Bft) 100,00 %
02.11.2015 00:57 3,5 C 73 % 1030,7 hPa 0,0 l/m 0,1 km/h (0 Bft) O-NO 74 0 min 0,000 mm 0,0 UV-I 0 W/m -0,9 C 3,5 C 1,6 km/h (1 Bft) 100,00 %
02.11.2015 00:58 3,4 C 73 % 1030,7 hPa 0,0 l/m 0,6 km/h (0 Bft) O-NO 74 0 min 0,000 mm 0,0 UV-I 0 W/m -1,0 C 3,4 C 1,6 km/h (1 Bft) 100,00 %
02.11.2015 00:59 3,4 C 73 % 1030,7 hPa 0,0 l/m 0,1 km/h (0 Bft) O-NO 74 0 min 0,000 mm 0,0 UV-I 0 W/m -1,0 C 3,4 C 1,6 km/h (1 Bft) 100,00 %
02.11.2015 01:00 3,4 C 73 % 1030,8 hPa 0,0 l/m 1,5 km/h (1 Bft) O-NO 74 0 min 0,000 mm 0,0 UV-I 0 W/m -1,0 C 3,4 C 3,2 km/h (1 Bft) 100,00 %
02.11.2015 01:01 3,3 C 74 % 1030,7 hPa 0,0 l/m 2,3 km/h (1 Bft) O-NO 78 0 min 0,000 mm 0,0 UV-I 0 W/m -0,9 C 3,3 C 3,2 km/h (1 Bft) 100,00 %
02.11.2015 01:02 3,3 C 74 % 1030,7 hPa 0,0 l/m 2,3 km/h (1 Bft) O-NO 78 0 min 0,000 mm 0,0 UV-I 0 W/m -0,9 C 3,3 C 3,2 km/h (1 Bft) 100,00 %
02.11.2015 01:03 3,4 C 74 % 1030,7 hPa 0,0 l/m 3,1 km/h (1 Bft) O-NO 76 0 min 0,000 mm 0,0 UV-I 0 W/m -0,8 C 3,4 C 4,8 km/h (1 Bft) 100,00 %
02.11.2015 01:04 3,4 C 74 % 1030,7 hPa 0,0 l/m 2,5 km/h (1 Bft) O 83 0 min 0,000 mm 0,0 UV-I 0 W/m -0,8 C 3,4 C 3,2 km/h (1 Bft) 95,65 %
02.11.2015 01:05 3,4 C 73 % 1030,7 hPa 0,0 l/m 2,0 km/h (1 Bft) O 83 0 min 0,000 mm 0,0 UV-I 0 W/m -1,0 C 3,4 C 3,2 km/h (1 Bft) 95,83 %
02.11.2015 01:06 3,4 C 73 % 1030,7 hPa 0,0 l/m 0,7 km/h (0 Bft) O 83 0 min 0,000 mm 0,0 UV-I 0 W/m -1,0 C 3,4 C 1,6 km/h (1 Bft) 100,00 %
02.11.2015 01:07 3,4 C 73 % 1030,7 hPa 0,0 l/m 0,1 km/h (0 Bft) O 83 0 min 0,000 mm 0,0 UV-I 0 W/m -1,0 C 3,4 C 1,6 km/h (1 Bft) 100,00 %
02.11.2015 01:08 3,4 C 73 % 1030,8 hPa 0,0 l/m 0,0 km/h (0 Bft) O 83 0 min 0,000 mm 0,0 UV-I 0 W/m -1,0 C 3,4 C 0,0 km/h (0 Bft) 100,00 %
02.11.2015 01:09 3,4 C 73 % 1030,7 hPa 0,0 l/m 0,0 km/h (0 Bft) O 83 0 min 0,000 mm 0,0 UV-I 0 W/m -1,0 C 3,4 C 0,0 km/h (0 Bft) 100,00 %
02.11.2015 01:10 3,4 C 74 % 1030,7 hPa 0,0 l/m 0,3 km/h (0 Bft) O 83 0 min 0,000 mm 0,0 UV-I 0 W/m -0,8 C 3,4 C 1,6 km/h (1 Bft) 95,83 %
02.11.2015 01:11 3,3 C 73 % 1030,8 hPa 0,0 l/m 0,7 km/h (0 Bft) O 82 0 min 0,000 mm 0,0 UV-I 0 W/m -1,1 C 3,3 C 1,6 km/h (1 Bft) 95,65 %
02.11.2015 01:12 3,3 C 73 % 1030,8 hPa 0,0 l/m 1,7 km/h (1 Bft) O 82 0 min 0,000 mm 0,0 UV-I 0 W/m -1,1 C 3,3 C 3,2 km/h (1 Bft) 95,83 %
02.11.2015 01:13 3,3 C 74 % 1030,8 hPa 0,0 l/m 1,4 km/h (1 Bft) O 82 0 min 0,000 mm 0,0 UV-I 0 W/m -0,9 C 3,3 C 3,2 km/h (1 Bft) 95,65 %
02.11.2015 01:14 3,3 C 74 % 1030,7 hPa 0,0 l/m 1,4 km/h (1 Bft) O 82 0 min 0,000 mm 0,0 UV-I 0 W/m -0,9 C 3,3 C 3,2 km/h (1 Bft) 100,00 %
02.11.2015 01:15 3,2 C 74 % 1030,7 hPa 0,0 l/m 1,1 km/h (1 Bft) O 82 0 min 0,000 mm 0,0 UV-I 0 W/m -1,0 C 3,2 C 1,6 km/h (1 Bft) 100,00 %
02.11.2015 01:16 3,1 C 74 % 1030,7 hPa 0,0 l/m 0,4 km/h (0 Bft) O 82 0 min 0,000 mm 0,0 UV-I 0 W/m -1,1 C 3,1 C 1,6 km/h (1 Bft) 100,00 %
02.11.2015 01:17 3,0 C 75 % 1030,7 hPa 0,0 l/m 0,6 km/h (0 Bft) O 82 0 min 0,000 mm 0,0 UV-I 0 W/m -1,0 C 3,0 C 1,6 km/h (1 Bft) 100,00 %
02.11.2015 01:18 2,9 C 75 % 1030,7 hPa 0,0 l/m 0,0 km/h (0 Bft) O 82 0 min 0,000 mm 0,0 UV-I 0 W/m -1,1 C 2,9 C 0,0 km/h (0 Bft) 100,00 %
02.11.2015 01:19 2,8 C 76 % 1030,7 hPa 0,0 l/m 0,0 km/h (0 Bft) O 82 0 min 0,000 mm 0,0 UV-I 0 W/m -1,0 C 2,8 C 0,0 km/h (0 Bft) 100,00 %
02.11.2015 01:20 2,7 C 76 % 1030,7 hPa 0,0 l/m 0,0 km/h (0 Bft) O 82 0 min 0,000 mm 0,0 UV-I 0 W/m -1,1 C 2,7 C 0,0 km/h (0 Bft) 100,00 %
02.11.2015 01:21 2,7 C 76 % 1030,6 hPa 0,0 l/m 0,0 km/h (0 Bft) O 82 0 min 0,000 mm 0,0 UV-I 0 W/m -1,1 C 2,7 C 0,0 km/h (0 Bft) 100,00 %
02.11.2015 01:22 2,6 C 76 % 1030,6 hPa 0,0 l/m 0,0 km/h (0 Bft) O 82 0 min 0,000 mm 0,0 UV-I 0 W/m -1,2 C 2,6 C 0,0 km/h (0 Bft) 100,00 %
02.11.2015 01:23 2,6 C 77 % 1030,6 hPa 0,0 l/m 0,0 km/h (0 Bft) O 82 0 min 0,000 mm 0,0 UV-I 0 W/m -1,0 C 2,6 C 0,0 km/h (0 Bft) 96,15 %
02.11.2015 01:24 2,5 C 77 % 1030,6 hPa 0,0 l/m 0,0 km/h (0 Bft) O 82 0 min 0,000 mm 0,0 UV-I 0 W/m -1,1 C 2,5 C 0,0 km/h (0 Bft) 100,00 %
02.11.2015 01:25 2,5 C 77 % 1030,6 hPa 0,0 l/m 0,0 km/h (0 Bft) O 82 0 min 0,000 mm 0,0 UV-I 0 W/m -1,1 C 2,5 C 0,0 km/h (0 Bft) 100,00 %
02.11.2015 01:26 2,4 C 77 % 1030,6 hPa 0,0 l/m 0,0 km/h (0 Bft) O 82 0 min 0,000 mm 0,0 UV-I 0 W/m -1,2 C 2,4 C 0,0 km/h (0 Bft) 95,83 %
02.11.2015 01:27 2,4 C 77 % 1030,6 hPa 0,0 l/m 0,0 km/h (0 Bft) O 82 0 min 0,000 mm 0,0 UV-I 0 W/m -1,2 C 2,4 C 0,0 km/h (0 Bft) 100,00 %
02.11.2015 01:28 2,4 C 77 % 1030,6 hPa 0,0 l/m 0,0 km/h (0 Bft) O 82 0 min 0,000 mm 0,0 UV-I 0 W/m -1,2 C 2,4 C 0,0 km/h (0 Bft) 100,00 %
02.11.2015 01:29 2,4 C 77 % 1030,6 hPa 0,0 l/m 0,0 km/h (0 Bft) O 82 0 min 0,000 mm 0,0 UV-I 0 W/m -1,2 C 2,4 C 0,0 km/h (0 Bft) 100,00 %
02.11.2015 01:30 2,4 C 77 % 1030,5 hPa 0,0 l/m 0,0 km/h (0 Bft) O 82 0 min 0,000 mm 0,0 UV-I 0 W/m -1,2 C 2,4 C 0,0 km/h (0 Bft) 100,00 %
02.11.2015 01:31 2,4 C 77 % 1030,5 hPa 0,0 l/m 0,4 km/h (0 Bft) O 82 0 min 0,000 mm 0,0 UV-I 0 W/m -1,2 C 2,4 C 1,6 km/h (1 Bft) 100,00 %
02.11.2015 01:32 2,4 C 77 % 1030,5 hPa 0,0 l/m 0,1 km/h (0 Bft) O 82 0 min 0,000 mm 0,0 UV-I 0 W/m -1,2 C 2,4 C 1,6 km/h (1 Bft) 100,00 %
02.11.2015 01:33 2,5 C 77 % 1030,5 hPa 0,0 l/m 0,6 km/h (0 Bft) O 82 0 min 0,000 mm 0,0 UV-I 0 W/m -1,1 C 2,5 C 1,6 km/h (1 Bft) 100,00 %
02.11.2015 01:34 2,6 C 77 % 1030,5 hPa 0,0 l/m 0,2 km/h (0 Bft) O 82 0 min 0,000 mm 0,0 UV-I 0 W/m -1,0 C 2,6 C 1,6 km/h (1 Bft) 96,15 %
02.11.2015 01:35 2,6 C 77 % 1030,5 hPa 0,0 l/m 0,0 km/h (0 Bft) O 82 0 min 0,000 mm 0,0 UV-I 0 W/m -1,0 C 2,6 C 0,0 km/h (0 Bft) 100,00 %
02.11.2015 01:36 2,6 C 77 % 1030,6 hPa 0,0 l/m 0,0 km/h (0 Bft) O 82 0 min 0,000 mm 0,0 UV-I 0 W/m -1,0 C 2,6 C 0,0 km/h (0 Bft) 100,00 %
02.11.2015 01:37 2,6 C 77 % 1030,6 hPa 0,0 l/m 0,1 km/h (0 Bft) O 82 0 min 0,000 mm 0,0 UV-I 0 W/m -1,0 C 2,6 C 1,6 km/h (1 Bft) 100,00 %
02.11.2015 01:38 2,6 C 77 % 1030,5 hPa 0,0 l/m 1,2 km/h (1 Bft) O 82 0 min 0,000 mm 0,0 UV-I 0 W/m -1,0 C 2,6 C 3,2 km/h (1 Bft) 100,00 %
02.11.2015 01:39 2,6 C 77 % 1030,5 hPa 0,0 l/m 1,3 km/h (1 Bft) O 82 0 min 0,000 mm 0,0 UV-I 0 W/m -1,0 C 2,6 C 3,2 km/h (1 Bft) 100,00 %
02.11.2015 01:40 2,6 C 77 % 1030,5 hPa 0,0 l/m 1,9 km/h (1 Bft) O 82 0 min 0,000 mm 0,0 UV-I 0 W/m -1,0 C 2,6 C 3,2 km/h (1 Bft) 91,30 %
02.11.2015 01:41 2,6 C 77 % 1030,5 hPa 0,0 l/m 0,8 km/h (0 Bft) O 82 0 min 0,000 mm 0,0 UV-I 0 W/m -1,0 C 2,6 C 3,2 km/h (1 Bft) 100,00 %
02.11.2015 01:42 2,6 C 77 % 1030,5 hPa 0,0 l/m 0,2 km/h (0 Bft) O 82 0 min 0,000 mm 0,0 UV-I 0 W/m -1,0 C 2,6 C 1,6 km/h (1 Bft) 100,00 %
02.11.2015 01:43 2,6 C 77 % 1030,5 hPa 0,0 l/m 0,0 km/h (0 Bft) O 82 0 min 0,000 mm 0,0 UV-I 0 W/m -1,0 C 2,6 C 0,0 km/h (0 Bft) 100,00 %
02.11.2015 01:44 2,6 C 77 % 1030,6 hPa 0,0 l/m 0,2 km/h (0 Bft) O 82 0 min 0,000 mm 0,0 UV-I 0 W/m -1,0 C 2,6 C 1,6 km/h (1 Bft) 100,00 %
02.11.2015 01:45 2,7 C 77 % 1030,6 hPa 0,0 l/m 0,0 km/h (0 Bft) O 82 0 min 0,000 mm 0,0 UV-I 0 W/m -0,9 C 2,7 C 0,0 km/h (0 Bft) 95,83 %
02.11.2015 01:46 2,7 C 77 % 1030,6 hPa 0,0 l/m 0,0 km/h (0 Bft) O 82 0 min 0,000 mm 0,0 UV-I 0 W/m -0,9 C 2,7 C 0,0 km/h (0 Bft) 95,65 %
02.11.2015 01:47 2,6 C 77 % 1030,6 hPa 0,0 l/m 0,0 km/h (0 Bft) O 82 0 min 0,000 mm 0,0 UV-I 0 W/m -1,0 C 2,6 C 0,0 km/h (0 Bft) 100,00 %
02.11.2015 01:48 2,6 C 77 % 1030,7 hPa 0,0 l/m 0,0 km/h (0 Bft) O 82 0 min 0,000 mm 0,0 UV-I 0 W/m -1,0 C 2,6 C 0,0 km/h (0 Bft) 100,00 %
02.11.2015 01:49 2,4 C 77 % 1030,7 hPa 0,0 l/m 0,0 km/h (0 Bft) O 82 0 min 0,000 mm 0,0 UV-I 0 W/m -1,2 C 2,4 C 0,0 km/h (0 Bft) 100,00 %
02.11.2015 01:50 2,3 C 77 % 1030,6 hPa 0,0 l/m 0,0 km/h (0 Bft) O 82 0 min 0,000 mm 0,0 UV-I 0 W/m -1,3 C 2,3 C 0,0 km/h (0 Bft) 100,00 %
02.11.2015 01:51 2,2 C 78 % 1030,6 hPa 0,0 l/m 0,0 km/h (0 Bft) O 82 0 min 0,000 mm 0,0 UV-I 0 W/m -1,2 C 2,2 C 0,0 km/h (0 Bft) 100,00 %
02.11.2015 01:52 2,0 C 79 % 1030,6 hPa 0,0 l/m 0,0 km/h (0 Bft) O 82 0 min 0,000 mm 0,0 UV-I 0 W/m -1,2 C 2,0 C 0,0 km/h (0 Bft) 100,00 %
02.11.2015 01:53 1,9 C 79 % 1030,6 hPa 0,0 l/m 0,0 km/h (0 Bft) O 82 0 min 0,000 mm 0,0 UV-I 0 W/m -1,3 C 1,9 C 0,0 km/h (0 Bft) 100,00 %
02.11.2015 01:54 1,8 C 79 % 1030,5 hPa 0,0 l/m 0,0 km/h (0 Bft) O 82 0 min 0,000 mm 0,0 UV-I 0 W/m -1,4 C 1,8 C 0,0 km/h (0 Bft) 100,00 %
02.11.2015 01:55 1,7 C 80 % 1030,6 hPa 0,0 l/m 0,0 km/h (0 Bft) O 82 0 min 0,000 mm 0,0 UV-I 0 W/m -1,4 C 1,7 C 0,0 km/h (0 Bft) 100,00 %
02.11.2015 01:56 1,7 C 80 % 1030,6 hPa 0,0 l/m 0,0 km/h (0 Bft) O 82 0 min 0,000 mm 0,0 UV-I 0 W/m -1,4 C 1,7 C 0,0 km/h (0 Bft) 100,00 %
02.11.2015 01:57 1,6 C 81 % 1030,6 hPa 0,0 l/m 0,0 km/h (0 Bft) O 82 0 min 0,000 mm 0,0 UV-I 0 W/m -1,3 C 1,6 C 0,0 km/h (0 Bft) 100,00 %
02.11.2015 01:58 1,6 C 81 % 1030,5 hPa 0,0 l/m 0,0 km/h (0 Bft) O 82 0 min 0,000 mm 0,0 UV-I 0 W/m -1,3 C 1,6 C 0,0 km/h (0 Bft) 100,00 %
02.11.2015 01:59 1,6 C 81 % 1030,5 hPa 0,0 l/m 0,0 km/h (0 Bft) O 82 0 min 0,000 mm 0,0 UV-I 0 W/m -1,3 C 1,6 C 0,0 km/h (0 Bft) 100,00 %
02.11.2015 02:00 1,6 C 81 % 1030,5 hPa 0,0 l/m 0,0 km/h (0 Bft) O 82 0 min 0,000 mm 0,0 UV-I 0 W/m -1,3 C 1,6 C 0,0 km/h (0 Bft) 100,00 %
02.11.2015 02:01 1,6 C 81 % 1030,5 hPa 0,0 l/m 0,0 km/h (0 Bft) O 82 0 min 0,000 mm 0,0 UV-I 0 W/m -1,3 C 1,6 C 0,0 km/h (0 Bft) 100,00 %
02.11.2015 02:02 1,6 C 81 % 1030,5 hPa 0,0 l/m 0,0 km/h (0 Bft) O 82 0 min 0,000 mm 0,0 UV-I 0 W/m -1,3 C 1,6 C 0,0 km/h (0 Bft) 95,83 %
02.11.2015 02:03 1,7 C 81 % 1030,5 hPa 0,0 l/m 0,0 km/h (0 Bft) O 82 0 min 0,000 mm 0,0 UV-I 0 W/m -1,2 C 1,7 C 0,0 km/h (0 Bft) 100,00 %
02.11.2015 02:04 1,7 C 81 % 1030,5 hPa 0,0 l/m 0,0 km/h (0 Bft) O 82 0 min 0,000 mm 0,0 UV-I 0 W/m -1,2 C 1,7 C 0,0 km/h (0 Bft) 100,00 %
02.11.2015 02:05 1,7 C 81 % 1030,5 hPa 0,0 l/m 0,0 km/h (0 Bft) O 82 0 min 0,000 mm 0,0 UV-I 0 W/m -1,2 C 1,7 C 0,0 km/h (0 Bft) 95,65 %
02.11.2015 02:06 1,7 C 81 % 1030,5 hPa 0,0 l/m 0,0 km/h (0 Bft) O 82 0 min 0,000 mm 0,0 UV-I 0 W/m -1,2 C 1,7 C 0,0 km/h (0 Bft) 100,00 %
02.11.2015 02:07 1,8 C 81 % 1030,5 hPa 0,0 l/m 0,0 km/h (0 Bft) O 82 0 min 0,000 mm 0,0 UV-I 0 W/m -1,1 C 1,8 C 0,0 km/h (0 Bft) 100,00 %
02.11.2015 02:08 1,8 C 81 % 1030,5 hPa 0,0 l/m 0,0 km/h (0 Bft) O 82 0 min 0,000 mm 0,0 UV-I 0 W/m -1,1 C 1,8 C 0,0 km/h (0 Bft) 100,00 %
02.11.2015 02:09 1,7 C 81 % 1030,5 hPa 0,0 l/m 0,0 km/h (0 Bft) O 82 0 min 0,000 mm 0,0 UV-I 0 W/m -1,2 C 1,7 C 0,0 km/h (0 Bft) 100,00 %
02.11.2015 02:10 1,7 C 81 % 1030,5 hPa 0,0 l/m 0,0 km/h (0 Bft) O 82 0 min 0,000 mm 0,0 UV-I 0 W/m -1,2 C 1,7 C 0,0 km/h (0 Bft) 100,00 %
02.11.2015 02:11 1,8 C 81 % 1030,4 hPa 0,0 l/m 0,1 km/h (0 Bft) O 82 0 min 0,000 mm 0,0 UV-I 0 W/m -1,1 C 1,8 C 1,6 km/h (1 Bft) 100,00 %
02.11.2015 02:12 1,8 C 81 % 1030,4 hPa 0,0 l/m 0,8 km/h (0 Bft) O 82 0 min 0,000 mm 0,0 UV-I 0 W/m -1,1 C 1,8 C 1,6 km/h (1 Bft) 100,00 %
02.11.2015 02:13 1,8 C 81 % 1030,4 hPa 0,0 l/m 0,3 km/h (0 Bft) O 82 0 min 0,000 mm 0,0 UV-I 0 W/m -1,1 C 1,8 C 1,6 km/h (1 Bft) 100,00 %
02.11.2015 02:14 1,7 C 81 % 1030,4 hPa 0,0 l/m 0,0 km/h (0 Bft) O 82 0 min 0,000 mm 0,0 UV-I 0 W/m -1,2 C 1,7 C 0,0 km/h (0 Bft) 95,65 %
02.11.2015 02:15 1,8 C 81 % 1030,4 hPa 0,0 l/m 0,0 km/h (0 Bft) O 82 0 min 0,000 mm 0,0 UV-I 0 W/m -1,1 C 1,8 C 0,0 km/h (0 Bft) 100,00 %
02.11.2015 02:16 1,8 C 81 % 1030,4 hPa 0,0 l/m 0,0 km/h (0 Bft) O 82 0 min 0,000 mm 0,0 UV-I 0 W/m -1,1 C 1,8 C 0,0 km/h (0 Bft) 100,00 %
02.11.2015 02:17 1,7 C 81 % 1030,4 hPa 0,0 l/m 0,0 km/h (0 Bft) O 82 0 min 0,000 mm 0,0 UV-I 0 W/m -1,2 C 1,7 C 0,0 km/h (0 Bft) 100,00 %
02.11.2015 02:18 1,7 C 81 % 1030,4 hPa 0,0 l/m 0,0 km/h (0 Bft) O 82 0 min 0,000 mm 0,0 UV-I 0 W/m -1,2 C 1,7 C 0,0 km/h (0 Bft) 95,65 %
02.11.2015 02:19 1,6 C 81 % 1030,3 hPa 0,0 l/m 0,0 km/h (0 Bft) O 82 0 min 0,000 mm 0,0 UV-I 0 W/m -1,3 C 1,6 C 0,0 km/h (0 Bft) 100,00 %
02.11.2015 02:20 1,6 C 81 % 1030,3 hPa 0,0 l/m 0,0 km/h (0 Bft) O 82 0 min 0,000 mm 0,0 UV-I 0 W/m -1,3 C 1,6 C 0,0 km/h (0 Bft) 100,00 %
02.11.2015 02:21 1,5 C 81 % 1030,3 hPa 0,0 l/m 0,0 km/h (0 Bft) O 82 0 min 0,000 mm 0,0 UV-I 0 W/m -1,4 C 1,5 C 0,0 km/h (0 Bft) 100,00 %
02.11.2015 02:22 1,5 C 81 % 1030,3 hPa 0,0 l/m 0,0 km/h (0 Bft) O 82 0 min 0,000 mm 0,0 UV-I 0 W/m -1,4 C 1,5 C 0,0 km/h (0 Bft) 100,00 %
02.11.2015 02:23 1,4 C 82 % 1030,2 hPa 0,0 l/m 0,0 km/h (0 Bft) O 82 0 min 0,000 mm 0,0 UV-I 0 W/m -1,3 C 1,4 C 0,0 km/h (0 Bft) 95,83 %
02.11.2015 02:24 1,4 C 82 % 1030,2 hPa 0,0 l/m 0,0 km/h (0 Bft) O 82 0 min 0,000 mm 0,0 UV-I 0 W/m -1,3 C 1,4 C 0,0 km/h (0 Bft) 100,00 %
02.11.2015 02:25 1,4 C 82 % 1030,2 hPa 0,0 l/m 0,0 km/h (0 Bft) O 82 0 min 0,000 mm 0,0 UV-I 0 W/m -1,3 C 1,4 C 0,0 km/h (0 Bft) 95,83 %
02.11.2015 02:26 1,4 C 82 % 1030,2 hPa 0,0 l/m 0,2 km/h (0 Bft) O 82 0 min 0,000 mm 0,0 UV-I 0 W/m -1,3 C 1,4 C 1,6 km/h (1 Bft) 100,00 %
02.11.2015 02:27 1,4 C 82 % 1030,2 hPa 0,0 l/m 0,0 km/h (0 Bft) O 82 0 min 0,000 mm 0,0 UV-I 0 W/m -1,3 C 1,4 C 0,0 km/h (0 Bft) 100,00 %
02.11.2015 02:28 1,4 C 82 % 1030,2 hPa 0,0 l/m 0,0 km/h (0 Bft) O 82 0 min 0,000 mm 0,0 UV-I 0 W/m -1,3 C 1,4 C 0,0 km/h (0 Bft) 91,67 %
02.11.2015 02:29 1,3 C 81 % 1030,1 hPa 0,0 l/m 0,1 km/h (0 Bft) O 82 0 min 0,000 mm 0,0 UV-I 0 W/m -1,6 C 1,3 C 1,6 km/h (1 Bft) 100,00 %
02.11.2015 02:30 1,1 C 82 % 1030,2 hPa 0,0 l/m 0,0 km/h (0 Bft) O 82 0 min 0,000 mm 0,0 UV-I 0 W/m -1,6 C 1,1 C 0,0 km/h (0 Bft) 100,00 %
02.11.2015 02:31 1,0 C 82 % 1030,2 hPa 0,0 l/m 0,0 km/h (0 Bft) O 82 0 min 0,000 mm 0,0 UV-I 0 W/m -1,7 C 1,0 C 0,0 km/h (0 Bft) 100,00 %
02.11.2015 02:32 1,0 C 83 % 1030,2 hPa 0,0 l/m 0,0 km/h (0 Bft) O 82 0 min 0,000 mm 0,0 UV-I 0 W/m -1,6 C 1,0 C 0,0 km/h (0 Bft) 100,00 %
02.11.2015 02:33 1,0 C 83 % 1030,2 hPa 0,0 l/m 0,0 km/h (0 Bft) O 82 0 min 0,000 mm 0,0 UV-I 0 W/m -1,6 C 1,0 C 0,0 km/h (0 Bft) 100,00 %
02.11.2015 02:34 0,9 C 83 % 1030,1 hPa 0,0 l/m 0,0 km/h (0 Bft) O 82 0 min 0,000 mm 0,0 UV-I 0 W/m -1,7 C 0,9 C 0,0 km/h (0 Bft) 100,00 %
02.11.2015 02:35 0,9 C 83 % 1030,1 hPa 0,0 l/m 0,0 km/h (0 Bft) O 82 0 min 0,000 mm 0,0 UV-I 0 W/m -1,7 C 0,9 C 0,0 km/h (0 Bft) 95,65 %
02.11.2015 02:36 0,8 C 83 % 1030,1 hPa 0,0 l/m 0,0 km/h (0 Bft) O 82 0 min 0,000 mm 0,0 UV-I 0 W/m -1,8 C 0,8 C 0,0 km/h (0 Bft) 100,00 %
02.11.2015 02:37 0,7 C 83 % 1030,1 hPa 0,0 l/m 0,0 km/h (0 Bft) O 82 0 min 0,000 mm 0,0 UV-I 0 W/m -1,8 C 0,7 C 0,0 km/h (0 Bft) 100,00 %
02.11.2015 02:38 0,6 C 84 % 1030,1 hPa 0,0 l/m 0,0 km/h (0 Bft) O 82 0 min 0,000 mm 0,0 UV-I 0 W/m -1,8 C 0,6 C 0,0 km/h (0 Bft) 100,00 %
02.11.2015 02:39 0,4 C 84 % 1030,1 hPa 0,0 l/m 0,0 km/h (0 Bft) O 82 0 min 0,000 mm 0,0 UV-I 0 W/m -2,0 C 0,4 C 0,0 km/h (0 Bft) 100,00 %
02.11.2015 02:40 0,3 C 85 % 1030,1 hPa 0,0 l/m 0,0 km/h (0 Bft) O 82 0 min 0,000 mm 0,0 UV-I 0 W/m -1,9 C 0,3 C 0,0 km/h (0 Bft) 100,00 %
02.11.2015 02:41 0,2 C 85 % 1030,0 hPa 0,0 l/m 0,0 km/h (0 Bft) O 82 0 min 0,000 mm 0,0 UV-I 0 W/m -2,0 C 0,2 C 0,0 km/h (0 Bft) 95,65 %
02.11.2015 02:42 0,1 C 85 % 1030,0 hPa 0,0 l/m 0,6 km/h (0 Bft) O-SO 121 0 min 0,000 mm 0,0 UV-I 0 W/m -2,1 C 0,1 C 3,2 km/h (1 Bft) 100,00 %
02.11.2015 02:43 0,1 C 86 % 1030,1 hPa 0,0 l/m 3,2 km/h (1 Bft) S-SO 161 0 min 0,000 mm 0,0 UV-I 0 W/m -2,0 C 0,1 C 6,4 km/h (2 Bft) 100,00 %
02.11.2015 02:44 0,0 C 86 % 1030,2 hPa 0,0 l/m 2,0 km/h (1 Bft) S-SO 161 0 min 0,000 mm 0,0 UV-I 0 W/m -2,1 C 0,0 C 3,2 km/h (1 Bft) 100,00 %
02.11.2015 02:45 -0,1 C 86 % 1030,1 hPa 0,0 l/m 0,3 km/h (0 Bft) S-SO 161 0 min 0,000 mm 0,0 UV-I 0 W/m -2,2 C -0,1 C 1,6 km/h (1 Bft) 100,00 %
02.11.2015 02:46 -0,2 C 86 % 1030,1 hPa 0,0 l/m 0,0 km/h (0 Bft) S-SO 161 0 min 0,000 mm 0,0 UV-I 0 W/m -2,3 C -0,2 C 0,0 km/h (0 Bft) 100,00 %
02.11.2015 02:47 -0,2 C 87 % 1030,1 hPa 0,0 l/m 0,0 km/h (0 Bft) S-SO 161 0 min 0,000 mm 0,0 UV-I 0 W/m -2,1 C -0,2 C 0,0 km/h (0 Bft) 100,00 %
02.11.2015 02:48 -0,3 C 87 % 1030,1 hPa 0,0 l/m 0,0 km/h (0 Bft) S-SO 161 0 min 0,000 mm 0,0 UV-I 0 W/m -2,2 C -0,3 C 0,0 km/h (0 Bft) 100,00 %
02.11.2015 02:49 -0,2 C 88 % 1030,1 hPa 0,0 l/m 0,0 km/h (0 Bft) S-SO 161 0 min 0,000 mm 0,0 UV-I 0 W/m -1,9 C -0,2 C 0,0 km/h (0 Bft) 100,00 %
02.11.2015 02:50 -0,2 C 88 % 1030,1 hPa 0,0 l/m 0,0 km/h (0 Bft) S-SO 161 0 min 0,000 mm 0,0 UV-I 0 W/m -1,9 C -0,2 C 0,0 km/h (0 Bft) 100,00 %
02.11.2015 02:51 -0,2 C 88 % 1030,1 hPa 0,0 l/m 0,0 km/h (0 Bft) S-SO 161 0 min 0,000 mm 0,0 UV-I 0 W/m -1,9 C -0,2 C 0,0 km/h (0 Bft) 95,83 %
02.11.2015 02:52 -0,2 C 88 % 1030,1 hPa 0,0 l/m 0,0 km/h (0 Bft) S-SO 161 0 min 0,000 mm 0,0 UV-I 0 W/m -1,9 C -0,2 C 0,0 km/h (0 Bft) 100,00 %
02.11.2015 02:53 -0,1 C 88 % 1030,0 hPa 0,0 l/m 0,0 km/h (0 Bft) S-SO 161 0 min 0,000 mm 0,0 UV-I 0 W/m -1,8 C -0,1 C 0,0 km/h (0 Bft) 100,00 %
02.11.2015 02:54 -0,1 C 88 % 1030,0 hPa 0,0 l/m 0,0 km/h (0 Bft) S-SO 161 0 min 0,000 mm 0,0 UV-I 0 W/m -1,8 C -0,1 C 0,0 km/h (0 Bft) 100,00 %
02.11.2015 02:55 -0,1 C 88 % 1030,0 hPa 0,0 l/m 0,0 km/h (0 Bft) S-SO 161 0 min 0,000 mm 0,0 UV-I 0 W/m -1,8 C -0,1 C 0,0 km/h (0 Bft) 96,55 %
02.11.2015 02:56 0,0 C 88 % 1030,0 hPa 0,0 l/m 0,0 km/h (0 Bft) S-SO 161 0 min 0,000 mm 0,0 UV-I 0 W/m -1,7 C 0,0 C 0,0 km/h (0 Bft) 96,15 %
02.11.2015 02:57 0,1 C 88 % 1030,0 hPa 0,0 l/m 0,0 km/h (0 Bft) S-SO 161 0 min 0,000 mm 0,0 UV-I 0 W/m -1,6 C 0,1 C 0,0 km/h (0 Bft) 95,83 %
02.11.2015 02:58 0,1 C 88 % 1030,0 hPa 0,0 l/m 0,0 km/h (0 Bft) S-SO 161 0 min 0,000 mm 0,0 UV-I 0 W/m -1,6 C 0,1 C 0,0 km/h (0 Bft) 100,00 %
02.11.2015 02:59 0,1 C 87 % 1030,0 hPa 0,0 l/m 0,0 km/h (0 Bft) S-SO 161 0 min 0,000 mm 0,0 UV-I 0 W/m -1,8 C 0,1 C 0,0 km/h (0 Bft) 91,67 %
02.11.2015 03:00 0,2 C 87 % 1030,0 hPa 0,0 l/m 0,0 km/h (0 Bft) S-SO 161 0 min 0,000 mm 0,0 UV-I 0 W/m -1,7 C 0,2 C 0,0 km/h (0 Bft) 100,00 %
02.11.2015 03:01 0,2 C 87 % 1030,0 hPa 0,0 l/m 0,1 km/h (0 Bft) S-SO 161 0 min 0,000 mm 0,0 UV-I 0 W/m -1,7 C 0,2 C 1,6 km/h (1 Bft) 100,00 %
02.11.2015 03:02 0,3 C 87 % 1030,0 hPa 0,0 l/m 0,0 km/h (0 Bft) S-SO 161 0 min 0,000 mm 0,0 UV-I 0 W/m -1,6 C 0,3 C 0,0 km/h (0 Bft) 100,00 %
02.11.2015 03:03 0,3 C 86 % 1029,9 hPa 0,0 l/m 0,0 km/h (0 Bft) S-SO 161 0 min 0,000 mm 0,0 UV-I 0 W/m -1,8 C 0,3 C 0,0 km/h (0 Bft) 100,00 %
02.11.2015 03:04 0,3 C 86 % 1029,9 hPa 0,0 l/m 0,0 km/h (0 Bft) S-SO 161 0 min 0,000 mm 0,0 UV-I 0 W/m -1,8 C 0,3 C 0,0 km/h (0 Bft) 100,00 %
02.11.2015 03:05 0,4 C 86 % 1029,9 hPa 0,0 l/m 0,0 km/h (0 Bft) S-SO 161 0 min 0,000 mm 0,0 UV-I 0 W/m -1,7 C 0,4 C 0,0 km/h (0 Bft) 95,83 %
02.11.2015 03:06 0,4 C 86 % 1029,9 hPa 0,0 l/m 0,0 km/h (0 Bft) S-SO 161 0 min 0,000 mm 0,0 UV-I 0 W/m -1,7 C 0,4 C 0,0 km/h (0 Bft) 100,00 %
02.11.2015 03:07 0,4 C 86 % 1029,9 hPa 0,0 l/m 0,0 km/h (0 Bft) S-SO 161 0 min 0,000 mm 0,0 UV-I 0 W/m -1,7 C 0,4 C 0,0 km/h (0 Bft) 100,00 %
02.11.2015 03:08 0,4 C 86 % 1029,9 hPa 0,0 l/m 0,0 km/h (0 Bft) S-SO 161 0 min 0,000 mm 0,0 UV-I 0 W/m -1,7 C 0,4 C 0,0 km/h (0 Bft) 100,00 %
02.11.2015 03:09 0,4 C 86 % 1029,9 hPa 0,0 l/m 0,0 km/h (0 Bft) S-SO 161 0 min 0,000 mm 0,0 UV-I 0 W/m -1,7 C 0,4 C 0,0 km/h (0 Bft) 96,15 %
02.11.2015 03:10 0,3 C 86 % 1029,8 hPa 0,0 l/m 0,0 km/h (0 Bft) S-SO 161 0 min 0,000 mm 0,0 UV-I 0 W/m -1,8 C 0,3 C 0,0 km/h (0 Bft) 100,00 %
02.11.2015 03:11 0,4 C 86 % 1029,8 hPa 0,0 l/m 0,0 km/h (0 Bft) S-SO 161 0 min 0,000 mm 0,0 UV-I 0 W/m -1,7 C 0,4 C 0,0 km/h (0 Bft) 95,65 %
02.11.2015 03:12 0,4 C 86 % 1029,9 hPa 0,0 l/m 0,0 km/h (0 Bft) S-SO 161 0 min 0,000 mm 0,0 UV-I 0 W/m -1,7 C 0,4 C 0,0 km/h (0 Bft) 100,00 %
02.11.2015 03:13 0,6 C 86 % 1029,8 hPa 0,0 l/m 0,0 km/h (0 Bft) S-SO 161 0 min 0,000 mm 0,0 UV-I 0 W/m -1,5 C 0,6 C 0,0 km/h (0 Bft) 100,00 %
02.11.2015 03:14 0,6 C 86 % 1029,8 hPa 0,0 l/m 0,0 km/h (0 Bft) S-SO 161 0 min 0,000 mm 0,0 UV-I 0 W/m -1,5 C 0,6 C 0,0 km/h (0 Bft) 100,00 %
02.11.2015 03:15 0,6 C 86 % 1029,9 hPa 0,0 l/m 0,0 km/h (0 Bft) S-SO 161 0 min 0,000 mm 0,0 UV-I 0 W/m -1,5 C 0,6 C 0,0 km/h (0 Bft) 100,00 %
02.11.2015 03:16 0,6 C 85 % 1029,8 hPa 0,0 l/m 0,8 km/h (0 Bft) S-SO 160 0 min 0,000 mm 0,0 UV-I 0 W/m -1,6 C 0,6 C 1,6 km/h (1 Bft) 100,00 %
02.11.2015 03:17 0,7 C 86 % 1029,8 hPa 0,0 l/m 1,1 km/h (1 Bft) S-SO 160 0 min 0,000 mm 0,0 UV-I 0 W/m -1,4 C 0,7 C 1,6 km/h (1 Bft) 100,00 %
02.11.2015 03:18 0,7 C 86 % 1029,8 hPa 0,0 l/m 0,5 km/h (0 Bft) S-SO 160 0 min 0,000 mm 0,0 UV-I 0 W/m -1,4 C 0,7 C 1,6 km/h (1 Bft) 100,00 %
02.11.2015 03:19 0,8 C 85 % 1029,8 hPa 0,0 l/m 0,0 km/h (0 Bft) S-SO 160 0 min 0,000 mm 0,0 UV-I 0 W/m -1,4 C 0,8 C 0,0 km/h (0 Bft) 100,00 %
02.11.2015 03:20 0,8 C 85 % 1029,8 hPa 0,0 l/m 0,1 km/h (0 Bft) S-SO 160 0 min 0,000 mm 0,0 UV-I 0 W/m -1,4 C 0,8 C 1,6 km/h (1 Bft) 100,00 %
02.11.2015 03:21 0,8 C 84 % 1029,8 hPa 0,0 l/m 0,8 km/h (0 Bft) S-SO 160 0 min 0,000 mm 0,0 UV-I 0 W/m -1,6 C 0,8 C 1,6 km/h (1 Bft) 100,00 %
02.11.2015 03:22 0,7 C 84 % 1029,8 hPa 0,0 l/m 0,9 km/h (0 Bft) S-SO 160 0 min 0,000 mm 0,0 UV-I 0 W/m -1,7 C 0,7 C 1,6 km/h (1 Bft) 95,83 %
02.11.2015 03:23 0,4 C 84 % 1029,8 hPa 0,0 l/m 0,8 km/h (0 Bft) S-SO 160 0 min 0,000 mm 0,0 UV-I 0 W/m -2,0 C 0,4 C 1,6 km/h (1 Bft) 100,00 %
02.11.2015 03:24 0,3 C 85 % 1029,8 hPa 0,0 l/m 0,1 km/h (0 Bft) S-SO 160 0 min 0,000 mm 0,0 UV-I 0 W/m -1,9 C 0,3 C 1,6 km/h (1 Bft) 95,83 %
02.11.2015 03:25 0,2 C 85 % 1029,7 hPa 0,0 l/m 0,0 km/h (0 Bft) S-SO 160 0 min 0,000 mm 0,0 UV-I 0 W/m -2,0 C 0,2 C 0,0 km/h (0 Bft) 100,00 %
02.11.2015 03:26 0,1 C 86 % 1029,7 hPa 0,0 l/m 0,0 km/h (0 Bft) S-SO 160 0 min 0,000 mm 0,0 UV-I 0 W/m -2,0 C 0,1 C 0,0 km/h (0 Bft) 100,00 %
02.11.2015 03:27 0,0 C 86 % 1029,7 hPa 0,0 l/m 0,0 km/h (0 Bft) S-SO 160 0 min 0,000 mm 0,0 UV-I 0 W/m -2,1 C 0,0 C 0,0 km/h (0 Bft) 100,00 %
02.11.2015 03:28 -0,1 C 87 % 1029,7 hPa 0,0 l/m 0,0 km/h (0 Bft) S-SO 160 0 min 0,000 mm 0,0 UV-I 0 W/m -2,0 C -0,1 C 0,0 km/h (0 Bft) 100,00 %
02.11.2015 03:29 -0,1 C 87 % 1029,7 hPa 0,0 l/m 0,0 km/h (0 Bft) S-SO 160 0 min 0,000 mm 0,0 UV-I 0 W/m -2,0 C -0,1 C 0,0 km/h (0 Bft) 100,00 %
02.11.2015 03:30 -0,1 C 87 % 1029,7 hPa 0,0 l/m 0,0 km/h (0 Bft) S-SO 160 0 min 0,000 mm 0,0 UV-I 0 W/m -2,0 C -0,1 C 0,0 km/h (0 Bft) 100,00 %
02.11.2015 03:31 -0,2 C 87 % 1029,6 hPa 0,0 l/m 0,0 km/h (0 Bft) S-SO 160 0 min 0,000 mm 0,0 UV-I 0 W/m -2,1 C -0,2 C 0,0 km/h (0 Bft) 100,00 %
02.11.2015 03:32 -0,2 C 87 % 1029,6 hPa 0,0 l/m 0,0 km/h (0 Bft) S-SO 160 0 min 0,000 mm 0,0 UV-I 0 W/m -2,1 C -0,2 C 0,0 km/h (0 Bft) 95,83 %
02.11.2015 03:33 -0,2 C 87 % 1029,6 hPa 0,0 l/m 0,0 km/h (0 Bft) S-SO 160 0 min 0,000 mm 0,0 UV-I 0 W/m -2,1 C -0,2 C 0,0 km/h (0 Bft) 100,00 %
02.11.2015 03:34 -0,2 C 87 % 1029,6 hPa 0,0 l/m 0,0 km/h (0 Bft) S-SO 160 0 min 0,000 mm 0,0 UV-I 0 W/m -2,1 C -0,2 C 0,0 km/h (0 Bft) 95,65 %
02.11.2015 03:35 -0,3 C 87 % 1029,7 hPa 0,0 l/m 0,0 km/h (0 Bft) S-SO 160 0 min 0,000 mm 0,0 UV-I 0 W/m -2,2 C -0,3 C 0,0 km/h (0 Bft) 100,00 %
02.11.2015 03:36 -0,3 C 87 % 1029,7 hPa 0,0 l/m 0,0 km/h (0 Bft) S-SO 160 0 min 0,000 mm 0,0 UV-I 0 W/m -2,2 C -0,3 C 0,0 km/h (0 Bft) 92,86 %
02.11.2015 03:37 -0,3 C 88 % 1029,7 hPa 0,0 l/m 0,0 km/h (0 Bft) S-SO 160 0 min 0,000 mm 0,0 UV-I 0 W/m -2,0 C -0,3 C 0,0 km/h (0 Bft) 100,00 %
02.11.2015 03:38 -0,4 C 88 % 1029,7 hPa 0,0 l/m 0,0 km/h (0 Bft) S-SO 160 0 min 0,000 mm 0,0 UV-I 0 W/m -2,1 C -0,4 C 0,0 km/h (0 Bft) 100,00 %
02.11.2015 03:39 -0,4 C 88 % 1029,7 hPa 0,0 l/m 0,0 km/h (0 Bft) S-SO 160 0 min 0,000 mm 0,0 UV-I 0 W/m -2,1 C -0,4 C 0,0 km/h (0 Bft) 100,00 %
02.11.2015 03:40 -0,4 C 88 % 1029,6 hPa 0,0 l/m 0,0 km/h (0 Bft) S-SO 160 0 min 0,000 mm 0,0 UV-I 0 W/m -2,1 C -0,4 C 0,0 km/h (0 Bft) 100,00 %
02.11.2015 03:41 -0,4 C 88 % 1029,6 hPa 0,0 l/m 0,0 km/h (0 Bft) S-SO 160 0 min 0,000 mm 0,0 UV-I 0 W/m -2,1 C -0,4 C 0,0 km/h (0 Bft) 95,83 %
02.11.2015 03:42 -0,5 C 88 % 1029,6 hPa 0,0 l/m 0,0 km/h (0 Bft) S-SO 160 0 min 0,000 mm 0,0 UV-I 0 W/m -2,2 C -0,5 C 0,0 km/h (0 Bft) 100,00 %
02.11.2015 03:43 -0,6 C 88 % 1029,6 hPa 0,0 l/m 0,4 km/h (0 Bft) S-SO 160 0 min 0,000 mm 0,0 UV-I 0 W/m -2,3 C -0,6 C 1,6 km/h (1 Bft) 100,00 %
02.11.2015 03:44 -0,6 C 88 % 1029,6 hPa 0,0 l/m 0,3 km/h (0 Bft) S-SO 160 0 min 0,000 mm 0,0 UV-I 0 W/m -2,3 C -0,6 C 1,6 km/h (1 Bft) 100,00 %
02.11.2015 03:45 -0,7 C 89 % 1029,6 hPa 0,0 l/m 1,7 km/h (1 Bft) S-SO 160 0 min 0,000 mm 0,0 UV-I 0 W/m -2,3 C -0,7 C 3,2 km/h (1 Bft) 95,83 %
02.11.2015 03:46 -0,7 C 88 % 1029,6 hPa 0,0 l/m 1,5 km/h (1 Bft) S-SO 160 0 min 0,000 mm 0,0 UV-I 0 W/m -2,4 C -0,7 C 3,2 km/h (1 Bft) 92,31 %
02.11.2015 03:47 -0,8 C 88 % 1029,6 hPa 0,0 l/m 2,0 km/h (1 Bft) S-SO 160 0 min 0,000 mm 0,0 UV-I 0 W/m -2,5 C -0,8 C 3,2 km/h (1 Bft) 95,83 %
02.11.2015 03:48 -0,9 C 89 % 1029,5 hPa 0,0 l/m 1,0 km/h (0 Bft) S-SO 160 0 min 0,000 mm 0,0 UV-I 0 W/m -2,5 C -0,9 C 1,6 km/h (1 Bft) 100,00 %
02.11.2015 03:49 -0,8 C 90 % 1029,5 hPa 0,0 l/m 0,9 km/h (0 Bft) S-SO 160 0 min 0,000 mm 0,0 UV-I 0 W/m -2,2 C -0,8 C 1,6 km/h (1 Bft) 100,00 %
02.11.2015 03:50 -0,8 C 90 % 1029,6 hPa 0,0 l/m 0,0 km/h (0 Bft) S-SO 160 0 min 0,000 mm 0,0 UV-I 0 W/m -2,2 C -0,8 C 0,0 km/h (0 Bft) 100,00 %
02.11.2015 03:51 -0,8 C 90 % 1029,6 hPa 0,0 l/m 0,0 km/h (0 Bft) S-SO 160 0 min 0,000 mm 0,0 UV-I 0 W/m -2,2 C -0,8 C 0,0 km/h (0 Bft) 100,00 %
02.11.2015 03:52 -0,7 C 90 % 1029,5 hPa 0,0 l/m 0,0 km/h (0 Bft) S-SO 160 0 min 0,000 mm 0,0 UV-I 0 W/m -2,1 C -0,7 C 0,0 km/h (0 Bft) 100,00 %
02.11.2015 03:53 -0,7 C 90 % 1029,5 hPa 0,0 l/m 0,0 km/h (0 Bft) S-SO 160 0 min 0,000 mm 0,0 UV-I 0 W/m -2,1 C -0,7 C 0,0 km/h (0 Bft) 100,00 %
02.11.2015 03:54 -0,7 C 90 % 1029,6 hPa 0,0 l/m 0,1 km/h (0 Bft) S-SO 160 0 min 0,000 mm 0,0 UV-I 0 W/m -2,1 C -0,7 C 1,6 km/h (1 Bft) 100,00 %
02.11.2015 03:55 -0,7 C 89 % 1029,6 hPa 0,0 l/m 2,3 km/h (1 Bft) S 184 0 min 0,000 mm 0,0 UV-I 0 W/m -2,3 C -0,7 C 4,8 km/h (1 Bft) 100,00 %
02.11.2015 03:56 -0,7 C 89 % 1029,6 hPa 0,0 l/m 1,7 km/h (1 Bft) S 184 0 min 0,000 mm 0,0 UV-I 0 W/m -2,3 C -0,7 C 3,2 km/h (1 Bft) 100,00 %
02.11.2015 03:57 -0,8 C 89 % 1029,6 hPa 0,0 l/m 0,5 km/h (0 Bft) S 184 0 min 0,000 mm 0,0 UV-I 0 W/m -2,4 C -0,8 C 1,6 km/h (1 Bft) 100,00 %
02.11.2015 03:58 -0,8 C 89 % 1029,6 hPa 0,0 l/m 0,0 km/h (0 Bft) S 184 0 min 0,000 mm 0,0 UV-I 0 W/m -2,4 C -0,8 C 0,0 km/h (0 Bft) 95,83 %
02.11.2015 03:59 -0,8 C 89 % 1029,5 hPa 0,0 l/m 0,0 km/h (0 Bft) S 184 0 min 0,000 mm 0,0 UV-I 0 W/m -2,4 C -0,8 C 0,0 km/h (0 Bft) 100,00 %
02.11.2015 04:00 -0,9 C 90 % 1029,5 hPa 0,0 l/m 0,0 km/h (0 Bft) S 184 0 min 0,000 mm 0,0 UV-I 0 W/m -2,3 C -0,9 C 0,0 km/h (0 Bft) 100,00 %
02.11.2015 04:01 -0,9 C 90 % 1029,5 hPa 0,0 l/m 0,0 km/h (0 Bft) S 184 0 min 0,000 mm 0,0 UV-I 0 W/m -2,3 C -0,9 C 0,0 km/h (0 Bft) 100,00 %
02.11.2015 04:04 -0,9 C 90 % 1029,5 hPa 0,0 l/m 0,0 km/h (0 Bft) S 184 0 min 0,000 mm 0,0 UV-I 0 W/m -2,3 C -0,9 C 0,0 km/h (0 Bft) 100,00 %
02.11.2015 04:05 -0,9 C 89 % 1029,5 hPa 0,0 l/m 0,0 km/h (0 Bft) S 184 0 min 0,000 mm 0,0 UV-I 0 W/m -2,5 C -0,9 C 0,0 km/h (0 Bft) 100,00 %
02.11.2015 04:06 -0,9 C 90 % 1029,5 hPa 0,0 l/m 0,5 km/h (0 Bft) S 184 0 min 0,000 mm 0,0 UV-I 0 W/m -2,3 C -0,9 C 1,6 km/h (1 Bft) 100,00 %
02.11.2015 04:07 -0,9 C 90 % 1029,6 hPa 0,0 l/m 0,0 km/h (0 Bft) S 184 0 min 0,000 mm 0,0 UV-I 0 W/m -2,3 C -0,9 C 0,0 km/h (0 Bft) 100,00 %
02.11.2015 04:08 -0,9 C 90 % 1029,6 hPa 0,0 l/m 0,0 km/h (0 Bft) S 184 0 min 0,000 mm 0,0 UV-I 0 W/m -2,3 C -0,9 C 0,0 km/h (0 Bft) 100,00 %
02.11.2015 04:09 -0,9 C 90 % 1029,6 hPa 0,0 l/m 0,0 km/h (0 Bft) S 184 0 min 0,000 mm 0,0 UV-I 0 W/m -2,3 C -0,9 C 0,0 km/h (0 Bft) 100,00 %
02.11.2015 04:10 -0,9 C 90 % 1029,5 hPa 0,0 l/m 0,0 km/h (0 Bft) S 184 0 min 0,000 mm 0,0 UV-I 0 W/m -2,3 C -0,9 C 0,0 km/h (0 Bft) 100,00 %
02.11.2015 04:11 -0,9 C 90 % 1029,6 hPa 0,0 l/m 0,0 km/h (0 Bft) S 184 0 min 0,000 mm 0,0 UV-I 0 W/m -2,3 C -0,9 C 0,0 km/h (0 Bft) 100,00 %
02.11.2015 04:12 -0,9 C 90 % 1029,6 hPa 0,0 l/m 0,1 km/h (0 Bft) S 184 0 min 0,000 mm 0,0 UV-I 0 W/m -2,3 C -0,9 C 1,6 km/h (1 Bft) 100,00 %
02.11.2015 04:13 -0,9 C 90 % 1029,6 hPa 0,0 l/m 0,6 km/h (0 Bft) S 184 0 min 0,000 mm 0,0 UV-I 0 W/m -2,3 C -0,9 C 1,6 km/h (1 Bft) 100,00 %
02.11.2015 04:14 -0,9 C 90 % 1029,6 hPa 0,0 l/m 0,0 km/h (0 Bft) S 184 0 min 0,000 mm 0,0 UV-I 0 W/m -2,3 C -0,9 C 0,0 km/h (0 Bft) 100,00 %
02.11.2015 04:15 -0,9 C 90 % 1029,6 hPa 0,0 l/m 0,0 km/h (0 Bft) S 184 0 min 0,000 mm 0,0 UV-I 0 W/m -2,3 C -0,9 C 0,0 km/h (0 Bft) 95,83 %
02.11.2015 04:16 -0,9 C 90 % 1029,6 hPa 0,0 l/m 0,0 km/h (0 Bft) S 184 0 min 0,000 mm 0,0 UV-I 0 W/m -2,3 C -0,9 C 0,0 km/h (0 Bft) 100,00 %
02.11.2015 04:17 -1,0 C 90 % 1029,6 hPa 0,0 l/m 0,0 km/h (0 Bft) S 184 0 min 0,000 mm 0,0 UV-I 0 W/m -2,4 C -1,0 C 0,0 km/h (0 Bft) 100,00 %
02.11.2015 04:18 -1,0 C 90 % 1029,6 hPa 0,0 l/m 0,2 km/h (0 Bft) S 184 0 min 0,000 mm 0,0 UV-I 0 W/m -2,4 C -1,0 C 1,6 km/h (1 Bft) 100,00 %
02.11.2015 04:19 -1,1 C 90 % 1029,6 hPa 0,0 l/m 1,9 km/h (1 Bft) S 184 0 min 0,000 mm 0,0 UV-I 0 W/m -2,5 C -1,1 C 3,2 km/h (1 Bft) 100,00 %
02.11.2015 04:20 -1,1 C 90 % 1029,5 hPa 0,0 l/m 1,3 km/h (1 Bft) S 184 0 min 0,000 mm 0,0 UV-I 0 W/m -2,5 C -1,1 C 1,6 km/h (1 Bft) 100,00 %
02.11.2015 04:21 -1,2 C 90 % 1029,5 hPa 0,0 l/m 1,3 km/h (1 Bft) S 184 0 min 0,000 mm 0,0 UV-I 0 W/m -2,6 C -1,2 C 1,6 km/h (1 Bft) 100,00 %
02.11.2015 04:22 -1,2 C 90 % 1029,5 hPa 0,0 l/m 0,6 km/h (0 Bft) S 184 0 min 0,000 mm 0,0 UV-I 0 W/m -2,6 C -1,2 C 1,6 km/h (1 Bft) 100,00 %
02.11.2015 04:23 -1,2 C 90 % 1029,5 hPa 0,0 l/m 0,2 km/h (0 Bft) S 184 0 min 0,000 mm 0,0 UV-I 0 W/m -2,6 C -1,2 C 1,6 km/h (1 Bft) 100,00 %
02.11.2015 04:24 -1,3 C 91 % 1029,5 hPa 0,0 l/m 0,5 km/h (0 Bft) S 184 0 min 0,000 mm 0,0 UV-I 0 W/m -2,6 C -1,3 C 1,6 km/h (1 Bft) 100,00 %
02.11.2015 04:25 -1,2 C 91 % 1029,5 hPa 0,0 l/m 1,1 km/h (1 Bft) S 184 0 min 0,000 mm 0,0 UV-I 0 W/m -2,5 C -1,2 C 1,6 km/h (1 Bft) 91,67 %
02.11.2015 04:26 -1,2 C 92 % 1029,6 hPa 0,0 l/m 1,4 km/h (1 Bft) S 184 0 min 0,000 mm 0,0 UV-I 0 W/m -2,3 C -1,2 C 1,6 km/h (1 Bft) 100,00 %
02.11.2015 04:27 -1,1 C 92 % 1029,6 hPa 0,0 l/m 0,8 km/h (0 Bft) S 184 0 min 0,000 mm 0,0 UV-I 0 W/m -2,2 C -1,1 C 1,6 km/h (1 Bft) 100,00 %
02.11.2015 04:28 -1,1 C 91 % 1029,6 hPa 0,0 l/m 1,0 km/h (0 Bft) S 184 0 min 0,000 mm 0,0 UV-I 0 W/m -2,4 C -1,1 C 1,6 km/h (1 Bft) 100,00 %
02.11.2015 04:29 -1,1 C 92 % 1029,5 hPa 0,0 l/m 1,0 km/h (0 Bft) S 184 0 min 0,000 mm 0,0 UV-I 0 W/m -2,2 C -1,1 C 1,6 km/h (1 Bft) 100,00 %
02.11.2015 04:30 -1,1 C 92 % 1029,6 hPa 0,0 l/m 0,3 km/h (0 Bft) S 184 0 min 0,000 mm 0,0 UV-I 0 W/m -2,2 C -1,1 C 1,6 km/h (1 Bft) 100,00 %
02.11.2015 04:31 -0,9 C 92 % 1029,6 hPa 0,0 l/m 0,0 km/h (0 Bft) S 184 0 min 0,000 mm 0,0 UV-I 0 W/m -2,0 C -0,9 C 0,0 km/h (0 Bft) 95,83 %
02.11.2015 04:32 -0,9 C 91 % 1029,6 hPa 0,0 l/m 0,0 km/h (0 Bft) S 184 0 min 0,000 mm 0,0 UV-I 0 W/m -2,2 C -0,9 C 0,0 km/h (0 Bft) 100,00 %
02.11.2015 04:33 -0,9 C 91 % 1029,6 hPa 0,0 l/m 0,0 km/h (0 Bft) S 184 0 min 0,000 mm 0,0 UV-I 0 W/m -2,2 C -0,9 C 0,0 km/h (0 Bft) 100,00 %
02.11.2015 04:34 -0,9 C 90 % 1029,6 hPa 0,0 l/m 0,0 km/h (0 Bft) S 184 0 min 0,000 mm 0,0 UV-I 0 W/m -2,3 C -0,9 C 0,0 km/h (0 Bft) 100,00 %
02.11.2015 04:35 -0,9 C 90 % 1029,6 hPa 0,0 l/m 0,0 km/h (0 Bft) S 184 0 min 0,000 mm 0,0 UV-I 0 W/m -2,3 C -0,9 C 0,0 km/h (0 Bft) 95,65 %
02.11.2015 04:36 -0,9 C 90 % 1029,6 hPa 0,0 l/m 0,3 km/h (0 Bft) S 184 0 min 0,000 mm 0,0 UV-I 0 W/m -2,3 C -0,9 C 1,6 km/h (1 Bft) 100,00 %
02.11.2015 04:37 -1,0 C 90 % 1029,6 hPa 0,0 l/m 1,9 km/h (1 Bft) S 184 0 min 0,000 mm 0,0 UV-I 0 W/m -2,4 C -1,0 C 3,2 km/h (1 Bft) 100,00 %
02.11.2015 04:38 -1,1 C 90 % 1029,5 hPa 0,0 l/m 2,3 km/h (1 Bft) S 184 0 min 0,000 mm 0,0 UV-I 0 W/m -2,5 C -1,1 C 3,2 km/h (1 Bft) 95,83 %
02.11.2015 04:39 -1,1 C 91 % 1029,6 hPa 0,0 l/m 1,4 km/h (1 Bft) S 184 0 min 0,000 mm 0,0 UV-I 0 W/m -2,4 C -1,1 C 3,2 km/h (1 Bft) 95,65 %
02.11.2015 04:40 -1,1 C 91 % 1029,6 hPa 0,0 l/m 0,1 km/h (0 Bft) S 184 0 min 0,000 mm 0,0 UV-I 0 W/m -2,4 C -1,1 C 1,6 km/h (1 Bft) 100,00 %
02.11.2015 04:41 -1,1 C 91 % 1029,6 hPa 0,0 l/m 0,0 km/h (0 Bft) S 184 0 min 0,000 mm 0,0 UV-I 0 W/m -2,4 C -1,1 C 0,0 km/h (0 Bft) 100,00 %
02.11.2015 04:42 -1,1 C 91 % 1029,6 hPa 0,0 l/m 0,0 km/h (0 Bft) S 184 0 min 0,000 mm 0,0 UV-I 0 W/m -2,4 C -1,1 C 0,0 km/h (0 Bft) 100,00 %
02.11.2015 04:43 -1,2 C 91 % 1029,6 hPa 0,0 l/m 1,1 km/h (1 Bft) S 184 0 min 0,000 mm 0,0 UV-I 0 W/m -2,5 C -1,2 C 1,6 km/h (1 Bft) 100,00 %
02.11.2015 04:44 -1,2 C 91 % 1029,6 hPa 0,0 l/m 0,8 km/h (0 Bft) S 184 0 min 0,000 mm 0,0 UV-I 0 W/m -2,5 C -1,2 C 1,6 km/h (1 Bft) 100,00 %
02.11.2015 04:45 -1,3 C 91 % 1029,6 hPa 0,0 l/m 1,4 km/h (1 Bft) S 184 0 min 0,000 mm 0,0 UV-I 0 W/m -2,6 C -1,3 C 1,6 km/h (1 Bft) 100,00 %
02.11.2015 04:46 -1,3 C 91 % 1029,6 hPa 0,0 l/m 0,7 km/h (0 Bft) S 184 0 min 0,000 mm 0,0 UV-I 0 W/m -2,6 C -1,3 C 1,6 km/h (1 Bft) 100,00 %
02.11.2015 04:47 -1,3 C 91 % 1029,5 hPa 0,0 l/m 0,0 km/h (0 Bft) S 184 0 min 0,000 mm 0,0 UV-I 0 W/m -2,6 C -1,3 C 0,0 km/h (0 Bft) 100,00 %
02.11.2015 04:48 -1,3 C 91 % 1029,6 hPa 0,0 l/m 0,5 km/h (0 Bft) S 184 0 min 0,000 mm 0,0 UV-I 0 W/m -2,6 C -1,3 C 1,6 km/h (1 Bft) 100,00 %
02.11.2015 04:49 -1,3 C 91 % 1029,6 hPa 0,0 l/m 0,7 km/h (0 Bft) S 184 0 min 0,000 mm 0,0 UV-I 0 W/m -2,6 C -1,3 C 1,6 km/h (1 Bft) 100,00 %
02.11.2015 04:50 -1,3 C 92 % 1029,6 hPa 0,0 l/m 0,3 km/h (0 Bft) S 184 0 min 0,000 mm 0,0 UV-I 0 W/m -2,4 C -1,3 C 1,6 km/h (1 Bft) 100,00 %
02.11.2015 04:51 -1,3 C 91 % 1029,6 hPa 0,0 l/m 0,1 km/h (0 Bft) S 184 0 min 0,000 mm 0,0 UV-I 0 W/m -2,6 C -1,3 C 1,6 km/h (1 Bft) 100,00 %
02.11.2015 04:52 -1,3 C 92 % 1029,6 hPa 0,0 l/m 1,4 km/h (1 Bft) S 184 0 min 0,000 mm 0,0 UV-I 0 W/m -2,4 C -1,3 C 3,2 km/h (1 Bft) 100,00 %
02.11.2015 04:53 -1,3 C 91 % 1029,5 hPa 0,0 l/m 1,3 km/h (1 Bft) S 184 0 min 0,000 mm 0,0 UV-I 0 W/m -2,6 C -1,3 C 1,6 km/h (1 Bft) 100,00 %
02.11.2015 04:54 -1,4 C 91 % 1029,6 hPa 0,0 l/m 1,2 km/h (1 Bft) S 184 0 min 0,000 mm 0,0 UV-I 0 W/m -2,7 C -1,4 C 1,6 km/h (1 Bft) 100,00 %
02.11.2015 04:55 -1,4 C 91 % 1029,6 hPa 0,0 l/m 1,1 km/h (1 Bft) S 184 0 min 0,000 mm 0,0 UV-I 0 W/m -2,7 C -1,4 C 1,6 km/h (1 Bft) 100,00 %
02.11.2015 04:56 -1,4 C 91 % 1029,6 hPa 0,0 l/m 0,3 km/h (0 Bft) S 184 0 min 0,000 mm 0,0 UV-I 0 W/m -2,7 C -1,4 C 1,6 km/h (1 Bft) 100,00 %
02.11.2015 04:57 -1,5 C 91 % 1029,6 hPa 0,0 l/m 0,0 km/h (0 Bft) S 184 0 min 0,000 mm 0,0 UV-I 0 W/m -2,8 C -1,5 C 0,0 km/h (0 Bft) 100,00 %
02.11.2015 04:58 -1,5 C 91 % 1029,6 hPa 0,0 l/m 0,0 km/h (0 Bft) S 184 0 min 0,000 mm 0,0 UV-I 0 W/m -2,8 C -1,5 C 0,0 km/h (0 Bft) 96,15 %
02.11.2015 04:59 -1,5 C 92 % 1029,6 hPa 0,0 l/m 0,0 km/h (0 Bft) S 184 0 min 0,000 mm 0,0 UV-I 0 W/m -2,6 C -1,5 C 0,0 km/h (0 Bft) 100,00 %
02.11.2015 05:00 -1,5 C 92 % 1029,6 hPa 0,0 l/m 0,0 km/h (0 Bft) S 184 0 min 0,000 mm 0,0 UV-I 0 W/m -2,6 C -1,5 C 0,0 km/h (0 Bft) 95,65 %
02.11.2015 05:01 -1,5 C 92 % 1029,6 hPa 0,0 l/m 0,3 km/h (0 Bft) S 184 0 min 0,000 mm 0,0 UV-I 0 W/m -2,6 C -1,5 C 1,6 km/h (1 Bft) 91,67 %
02.11.2015 05:02 -1,5 C 92 % 1029,7 hPa 0,0 l/m 0,2 km/h (0 Bft) S 184 0 min 0,000 mm 0,0 UV-I 0 W/m -2,6 C -1,5 C 1,6 km/h (1 Bft) 100,00 %
02.11.2015 05:03 -1,5 C 92 % 1029,7 hPa 0,0 l/m 0,0 km/h (0 Bft) S 184 0 min 0,000 mm 0,0 UV-I 0 W/m -2,6 C -1,5 C 0,0 km/h (0 Bft) 95,83 %
02.11.2015 05:04 -1,5 C 91 % 1029,7 hPa 0,0 l/m 0,0 km/h (0 Bft) S 184 0 min 0,000 mm 0,0 UV-I 0 W/m -2,8 C -1,5 C 0,0 km/h (0 Bft) 100,00 %
02.11.2015 05:05 -1,5 C 91 % 1029,7 hPa 0,0 l/m 0,0 km/h (0 Bft) S 184 0 min 0,000 mm 0,0 UV-I 0 W/m -2,8 C -1,5 C 0,0 km/h (0 Bft) 100,00 %
02.11.2015 05:06 -1,6 C 91 % 1029,7 hPa 0,0 l/m 0,0 km/h (0 Bft) S 184 0 min 0,000 mm 0,0 UV-I 0 W/m -2,9 C -1,6 C 0,0 km/h (0 Bft) 100,00 %
02.11.2015 05:07 -1,6 C 91 % 1029,8 hPa 0,0 l/m 0,0 km/h (0 Bft) S 184 0 min 0,000 mm 0,0 UV-I 0 W/m -2,9 C -1,6 C 0,0 km/h (0 Bft) 96,30 %
02.11.2015 05:08 -1,6 C 92 % 1029,7 hPa 0,0 l/m 0,0 km/h (0 Bft) S 184 0 min 0,000 mm 0,0 UV-I 0 W/m -2,7 C -1,6 C 0,0 km/h (0 Bft) 100,00 %
02.11.2015 05:09 -1,6 C 91 % 1029,7 hPa 0,0 l/m 0,0 km/h (0 Bft) S 184 0 min 0,000 mm 0,0 UV-I 0 W/m -2,9 C -1,6 C 0,0 km/h (0 Bft) 99,15 %
02.11.2015 05:10 -1,6 C 91 % 1029,7 hPa 0,0 l/m 0,7 km/h (0 Bft) S 184 0 min 0,000 mm 0,0 UV-I 0 W/m -2,9 C -1,6 C 1,6 km/h (1 Bft) 100,00 %
02.11.2015 05:11 -1,6 C 92 % 1029,7 hPa 0,0 l/m 0,8 km/h (0 Bft) S 184 0 min 0,000 mm 0,0 UV-I 0 W/m -2,7 C -1,6 C 1,6 km/h (1 Bft) 100,00 %
02.11.2015 05:12 -1,6 C 92 % 1029,7 hPa 0,0 l/m 0,0 km/h (0 Bft) S 184 0 min 0,000 mm 0,0 UV-I 0 W/m -2,7 C -1,6 C 0,0 km/h (0 Bft) 100,00 %
02.11.2015 05:13 -1,7 C 92 % 1029,6 hPa 0,0 l/m 0,0 km/h (0 Bft) S 184 0 min 0,000 mm 0,0 UV-I 0 W/m -2,8 C -1,7 C 0,0 km/h (0 Bft) 95,65 %
02.11.2015 05:14 -1,7 C 92 % 1029,6 hPa 0,0 l/m 0,1 km/h (0 Bft) S 184 0 min 0,000 mm 0,0 UV-I 0 W/m -2,8 C -1,7 C 1,6 km/h (1 Bft) 100,00 %
02.11.2015 05:15 -1,7 C 92 % 1029,7 hPa 0,0 l/m 0,3 km/h (0 Bft) S 184 0 min 0,000 mm 0,0 UV-I 0 W/m -2,8 C -1,7 C 1,6 km/h (1 Bft) 100,00 %
02.11.2015 05:16 -1,7 C 92 % 1029,7 hPa 0,0 l/m 0,1 km/h (0 Bft) S 184 0 min 0,000 mm 0,0 UV-I 0 W/m -2,8 C -1,7 C 1,6 km/h (1 Bft) 95,83 %
02.11.2015 05:17 -1,6 C 92 % 1029,7 hPa 0,0 l/m 0,0 km/h (0 Bft) S 184 0 min 0,000 mm 0,0 UV-I 0 W/m -2,7 C -1,6 C 0,0 km/h (0 Bft) 100,00 %
02.11.2015 05:18 -1,6 C 92 % 1029,7 hPa 0,0 l/m 0,0 km/h (0 Bft) S 184 0 min 0,000 mm 0,0 UV-I 0 W/m -2,7 C -1,6 C 0,0 km/h (0 Bft) 100,00 %
02.11.2015 05:19 -1,6 C 92 % 1029,7 hPa 0,0 l/m 0,0 km/h (0 Bft) S 184 0 min 0,000 mm 0,0 UV-I 0 W/m -2,7 C -1,6 C 0,0 km/h (0 Bft) 100,00 %
02.11.2015 05:20 -1,6 C 92 % 1029,7 hPa 0,0 l/m 0,9 km/h (0 Bft) S 184 0 min 0,000 mm 0,0 UV-I 0 W/m -2,7 C -1,6 C 1,6 km/h (1 Bft) 100,00 %
02.11.2015 05:21 -1,6 C 92 % 1029,7 hPa 0,0 l/m 0,6 km/h (0 Bft) S 184 0 min 0,000 mm 0,0 UV-I 0 W/m -2,7 C -1,6 C 1,6 km/h (1 Bft) 100,00 %
02.11.2015 05:22 -1,6 C 92 % 1029,7 hPa 0,0 l/m 0,0 km/h (0 Bft) S 184 0 min 0,000 mm 0,0 UV-I 0 W/m -2,7 C -1,6 C 0,0 km/h (0 Bft) 100,00 %
02.11.2015 05:23 -1,6 C 91 % 1029,6 hPa 0,0 l/m 0,0 km/h (0 Bft) S 184 0 min 0,000 mm 0,0 UV-I 0 W/m -2,9 C -1,6 C 0,0 km/h (0 Bft) 100,00 %
02.11.2015 05:24 -1,6 C 91 % 1029,6 hPa 0,0 l/m 0,0 km/h (0 Bft) S 184 0 min 0,000 mm 0,0 UV-I 0 W/m -2,9 C -1,6 C 0,0 km/h (0 Bft) 100,00 %
02.11.2015 05:25 -1,6 C 91 % 1029,7 hPa 0,0 l/m 0,0 km/h (0 Bft) S 184 0 min 0,000 mm 0,0 UV-I 0 W/m -2,9 C -1,6 C 0,0 km/h (0 Bft) 100,00 %
02.11.2015 05:26 -1,7 C 91 % 1029,7 hPa 0,0 l/m 0,8 km/h (0 Bft) S 184 0 min 0,000 mm 0,0 UV-I 0 W/m -3,0 C -1,7 C 1,6 km/h (1 Bft) 100,00 %
02.11.2015 05:27 -1,7 C 91 % 1029,7 hPa 0,0 l/m 1,7 km/h (1 Bft) S 184 0 min 0,000 mm 0,0 UV-I 0 W/m -3,0 C -1,7 C 3,2 km/h (1 Bft) 100,00 %
02.11.2015 05:28 -1,7 C 91 % 1029,6 hPa 0,0 l/m 2,1 km/h (1 Bft) S 190 0 min 0,000 mm 0,0 UV-I 0 W/m -3,0 C -1,7 C 3,2 km/h (1 Bft) 100,00 %
02.11.2015 05:29 -1,7 C 92 % 1029,6 hPa 0,0 l/m 0,9 km/h (0 Bft) S 190 0 min 0,000 mm 0,0 UV-I 0 W/m -2,8 C -1,7 C 1,6 km/h (1 Bft) 100,00 %
02.11.2015 05:30 -1,8 C 92 % 1029,6 hPa 0,0 l/m 0,0 km/h (0 Bft) S 190 0 min 0,000 mm 0,0 UV-I 0 W/m -2,9 C -1,8 C 0,0 km/h (0 Bft) 100,00 %
02.11.2015 05:31 -1,7 C 92 % 1029,6 hPa 0,0 l/m 0,0 km/h (0 Bft) S 190 0 min 0,000 mm 0,0 UV-I 0 W/m -2,8 C -1,7 C 0,0 km/h (0 Bft) 100,00 %
02.11.2015 05:32 -1,7 C 92 % 1029,6 hPa 0,0 l/m 0,0 km/h (0 Bft) S 190 0 min 0,000 mm 0,0 UV-I 0 W/m -2,8 C -1,7 C 0,0 km/h (0 Bft) 100,00 %
02.11.2015 05:33 -1,7 C 92 % 1029,6 hPa 0,0 l/m 0,0 km/h (0 Bft) S 190 0 min 0,000 mm 0,0 UV-I 0 W/m -2,8 C -1,7 C 0,0 km/h (0 Bft) 100,00 %
02.11.2015 05:34 -1,7 C 93 % 1029,6 hPa 0,0 l/m 0,6 km/h (0 Bft) S 190 0 min 0,000 mm 0,0 UV-I 0 W/m -2,7 C -1,7 C 1,6 km/h (1 Bft) 100,00 %
02.11.2015 05:35 -1,7 C 93 % 1029,6 hPa 0,0 l/m 0,5 km/h (0 Bft) S 190 0 min 0,000 mm 0,0 UV-I 0 W/m -2,7 C -1,7 C 1,6 km/h (1 Bft) 100,00 %
02.11.2015 05:36 -1,6 C 93 % 1029,6 hPa 0,0 l/m 0,1 km/h (0 Bft) S 190 0 min 0,000 mm 0,0 UV-I 0 W/m -2,6 C -1,6 C 1,6 km/h (1 Bft) 96,15 %
02.11.2015 05:37 -1,6 C 92 % 1029,6 hPa 0,0 l/m 0,3 km/h (0 Bft) S 190 0 min 0,000 mm 0,0 UV-I 0 W/m -2,7 C -1,6 C 1,6 km/h (1 Bft) 100,00 %
02.11.2015 05:38 -1,7 C 92 % 1029,6 hPa 0,0 l/m 0,0 km/h (0 Bft) S 190 0 min 0,000 mm 0,0 UV-I 0 W/m -2,8 C -1,7 C 0,0 km/h (0 Bft) 100,00 %
02.11.2015 05:39 -1,7 C 92 % 1029,6 hPa 0,0 l/m 0,0 km/h (0 Bft) S 190 0 min 0,000 mm 0,0 UV-I 0 W/m -2,8 C -1,7 C 0,0 km/h (0 Bft) 100,00 %
02.11.2015 05:40 -1,7 C 92 % 1029,6 hPa 0,0 l/m 0,0 km/h (0 Bft) S 190 0 min 0,000 mm 0,0 UV-I 0 W/m -2,8 C -1,7 C 0,0 km/h (0 Bft) 100,00 %
02.11.2015 05:41 -1,7 C 92 % 1029,6 hPa 0,0 l/m 0,0 km/h (0 Bft) S 190 0 min 0,000 mm 0,0 UV-I 0 W/m -2,8 C -1,7 C 0,0 km/h (0 Bft) 100,00 %
02.11.2015 05:42 -1,7 C 92 % 1029,6 hPa 0,0 l/m 0,1 km/h (0 Bft) S 190 0 min 0,000 mm 0,0 UV-I 0 W/m -2,8 C -1,7 C 1,6 km/h (1 Bft) 100,00 %
02.11.2015 05:43 -1,7 C 92 % 1029,6 hPa 0,0 l/m 0,1 km/h (0 Bft) S 190 0 min 0,000 mm 0,0 UV-I 0 W/m -2,8 C -1,7 C 1,6 km/h (1 Bft) 100,00 %
02.11.2015 05:44 -1,7 C 92 % 1029,6 hPa 0,0 l/m 0,9 km/h (0 Bft) S 190 0 min 0,000 mm 0,0 UV-I 0 W/m -2,8 C -1,7 C 1,6 km/h (1 Bft) 100,00 %
02.11.2015 05:45 -1,7 C 92 % 1029,6 hPa 0,0 l/m 0,6 km/h (0 Bft) S 190 0 min 0,000 mm 0,0 UV-I 0 W/m -2,8 C -1,7 C 1,6 km/h (1 Bft) 91,67 %
02.11.2015 05:46 -1,7 C 93 % 1029,6 hPa 0,0 l/m 0,2 km/h (0 Bft) S 190 0 min 0,000 mm 0,0 UV-I 0 W/m -2,7 C -1,7 C 1,6 km/h (1 Bft) 100,00 %
02.11.2015 05:47 -1,7 C 93 % 1029,6 hPa 0,0 l/m 0,3 km/h (0 Bft) S 190 0 min 0,000 mm 0,0 UV-I 0 W/m -2,7 C -1,7 C 1,6 km/h (1 Bft) 100,00 %
02.11.2015 05:48 -1,7 C 93 % 1029,6 hPa 0,0 l/m 0,0 km/h (0 Bft) S 190 0 min 0,000 mm 0,0 UV-I 0 W/m -2,7 C -1,7 C 0,0 km/h (0 Bft) 100,00 %
02.11.2015 05:49 -1,7 C 93 % 1029,6 hPa 0,0 l/m 0,1 km/h (0 Bft) S 190 0 min 0,000 mm 0,0 UV-I 0 W/m -2,7 C -1,7 C 1,6 km/h (1 Bft) 100,00 %
02.11.2015 05:50 -1,7 C 92 % 1029,6 hPa 0,0 l/m 0,0 km/h (0 Bft) S 190 0 min 0,000 mm 0,0 UV-I 0 W/m -2,8 C -1,7 C 0,0 km/h (0 Bft) 100,00 %
02.11.2015 05:51 -1,7 C 92 % 1029,6 hPa 0,0 l/m 0,0 km/h (0 Bft) S 190 0 min 0,000 mm 0,0 UV-I 0 W/m -2,8 C -1,7 C 0,0 km/h (0 Bft) 100,00 %
02.11.2015 05:52 -1,7 C 92 % 1029,6 hPa 0,0 l/m 0,0 km/h (0 Bft) S 190 0 min 0,000 mm 0,0 UV-I 0 W/m -2,8 C -1,7 C 0,0 km/h (0 Bft) 100,00 %
02.11.2015 05:53 -1,7 C 92 % 1029,7 hPa 0,0 l/m 0,4 km/h (0 Bft) S 190 0 min 0,000 mm 0,0 UV-I 0 W/m -2,8 C -1,7 C 1,6 km/h (1 Bft) 100,00 %
02.11.2015 05:54 -1,7 C 92 % 1029,7 hPa 0,0 l/m 0,7 km/h (0 Bft) S 190 0 min 0,000 mm 0,0 UV-I 0 W/m -2,8 C -1,7 C 1,6 km/h (1 Bft) 87,50 %
02.11.2015 05:55 -1,7 C 93 % 1029,6 hPa 0,0 l/m 0,4 km/h (0 Bft) S 190 0 min 0,000 mm 0,0 UV-I 0 W/m -2,7 C -1,7 C 1,6 km/h (1 Bft) 100,00 %
02.11.2015 05:56 -1,7 C 93 % 1029,6 hPa 0,0 l/m 0,0 km/h (0 Bft) S 190 0 min 0,000 mm 0,0 UV-I 0 W/m -2,7 C -1,7 C 0,0 km/h (0 Bft) 100,00 %
02.11.2015 05:57 -1,7 C 93 % 1029,6 hPa 0,0 l/m 0,0 km/h (0 Bft) S 190 0 min 0,000 mm 0,0 UV-I 0 W/m -2,7 C -1,7 C 0,0 km/h (0 Bft) 95,65 %
02.11.2015 05:58 -1,7 C 93 % 1029,6 hPa 0,0 l/m 0,0 km/h (0 Bft) S 190 0 min 0,000 mm 0,0 UV-I 0 W/m -2,7 C -1,7 C 0,0 km/h (0 Bft) 100,00 %
02.11.2015 05:59 -1,8 C 92 % 1029,6 hPa 0,0 l/m 0,0 km/h (0 Bft) S 190 0 min 0,000 mm 0,0 UV-I 0 W/m -2,9 C -1,8 C 0,0 km/h (0 Bft) 100,00 %
02.11.2015 06:00 -1,8 C 92 % 1029,6 hPa 0,0 l/m 0,1 km/h (0 Bft) S 190 0 min 0,000 mm 0,0 UV-I 0 W/m -2,9 C -1,8 C 1,6 km/h (1 Bft) 100,00 %
02.11.2015 06:01 -1,8 C 92 % 1029,6 hPa 0,0 l/m 0,0 km/h (0 Bft) S 190 0 min 0,000 mm 0,0 UV-I 0 W/m -2,9 C -1,8 C 0,0 km/h (0 Bft) 95,65 %
02.11.2015 06:02 -1,8 C 92 % 1029,6 hPa 0,0 l/m 0,0 km/h (0 Bft) S 190 0 min 0,000 mm 0,0 UV-I 0 W/m -2,9 C -1,8 C 0,0 km/h (0 Bft) 100,00 %
02.11.2015 06:03 -1,8 C 92 % 1029,6 hPa 0,0 l/m 0,0 km/h (0 Bft) S 190 0 min 0,000 mm 0,0 UV-I 0 W/m -2,9 C -1,8 C 0,0 km/h (0 Bft) 92,86 %
02.11.2015 06:04 -1,8 C 93 % 1029,6 hPa 0,0 l/m 0,0 km/h (0 Bft) S 190 0 min 0,000 mm 0,0 UV-I 0 W/m -2,8 C -1,8 C 0,0 km/h (0 Bft) 100,00 %
02.11.2015 06:05 -1,7 C 93 % 1029,5 hPa 0,0 l/m 0,0 km/h (0 Bft) S 190 0 min 0,000 mm 0,0 UV-I 0 W/m -2,7 C -1,7 C 0,0 km/h (0 Bft) 100,00 %
02.11.2015 06:06 -1,8 C 93 % 1029,5 hPa 0,0 l/m 0,0 km/h (0 Bft) S 190 0 min 0,000 mm 0,0 UV-I 0 W/m -2,8 C -1,8 C 0,0 km/h (0 Bft) 100,00 %
02.11.2015 06:07 -1,8 C 93 % 1029,5 hPa 0,0 l/m 0,2 km/h (0 Bft) S 190 0 min 0,000 mm 0,0 UV-I 0 W/m -2,8 C -1,8 C 1,6 km/h (1 Bft) 100,00 %
02.11.2015 06:08 -1,7 C 93 % 1029,6 hPa 0,0 l/m 0,0 km/h (0 Bft) S 190 0 min 0,000 mm 0,0 UV-I 0 W/m -2,7 C -1,7 C 0,0 km/h (0 Bft) 100,00 %
02.11.2015 06:09 -1,7 C 93 % 1029,6 hPa 0,0 l/m 0,0 km/h (0 Bft) S 190 0 min 0,000 mm 0,0 UV-I 0 W/m -2,7 C -1,7 C 0,0 km/h (0 Bft) 100,00 %
02.11.2015 06:10 -1,7 C 92 % 1029,6 hPa 0,0 l/m 0,0 km/h (0 Bft) S 190 0 min 0,000 mm 0,0 UV-I 0 W/m -2,8 C -1,7 C 0,0 km/h (0 Bft) 95,83 %
02.11.2015 06:11 -1,8 C 92 % 1029,6 hPa 0,0 l/m 0,0 km/h (0 Bft) S 190 0 min 0,000 mm 0,0 UV-I 0 W/m -2,9 C -1,8 C 0,0 km/h (0 Bft) 100,00 %
02.11.2015 06:12 -1,8 C 92 % 1029,6 hPa 0,0 l/m 0,0 km/h (0 Bft) S 190 0 min 0,000 mm 0,0 UV-I 0 W/m -2,9 C -1,8 C 0,0 km/h (0 Bft) 100,00 %
02.11.2015 06:13 -1,8 C 91 % 1029,6 hPa 0,0 l/m 0,0 km/h (0 Bft) S 190 0 min 0,000 mm 0,0 UV-I 0 W/m -3,1 C -1,8 C 0,0 km/h (0 Bft) 100,00 %
02.11.2015 06:14 -1,8 C 92 % 1029,5 hPa 0,0 l/m 0,0 km/h (0 Bft) S 190 0 min 0,000 mm 0,0 UV-I 0 W/m -2,9 C -1,8 C 0,0 km/h (0 Bft) 95,65 %
02.11.2015 06:15 -1,8 C 92 % 1029,6 hPa 0,0 l/m 0,0 km/h (0 Bft) S 190 0 min 0,000 mm 0,0 UV-I 0 W/m -2,9 C -1,8 C 0,0 km/h (0 Bft) 100,00 %
02.11.2015 06:16 -1,8 C 92 % 1029,6 hPa 0,0 l/m 0,2 km/h (0 Bft) S 190 0 min 0,000 mm 0,0 UV-I 0 W/m -2,9 C -1,8 C 1,6 km/h (1 Bft) 100,00 %
02.11.2015 06:17 -1,8 C 92 % 1029,6 hPa 0,0 l/m 0,5 km/h (0 Bft) S 190 0 min 0,000 mm 0,0 UV-I 0 W/m -2,9 C -1,8 C 1,6 km/h (1 Bft) 100,00 %
02.11.2015 06:18 -1,8 C 93 % 1029,6 hPa 0,0 l/m 0,5 km/h (0 Bft) S 190 0 min 0,000 mm 0,0 UV-I 0 W/m -2,8 C -1,8 C 1,6 km/h (1 Bft) 100,00 %
02.11.2015 06:19 -1,8 C 93 % 1029,5 hPa 0,0 l/m 0,5 km/h (0 Bft) S 190 0 min 0,000 mm 0,0 UV-I 0 W/m -2,8 C -1,8 C 1,6 km/h (1 Bft) 100,00 %
02.11.2015 06:20 -1,8 C 93 % 1029,6 hPa 0,0 l/m 0,8 km/h (0 Bft) S 190 0 min 0,000 mm 0,0 UV-I 0 W/m -2,8 C -1,8 C 1,6 km/h (1 Bft) 100,00 %
02.11.2015 06:21 -1,8 C 93 % 1029,6 hPa 0,0 l/m 0,0 km/h (0 Bft) S 190 0 min 0,000 mm 0,0 UV-I 0 W/m -2,8 C -1,8 C 0,0 km/h (0 Bft) 100,00 %
02.11.2015 06:22 -1,8 C 92 % 1029,6 hPa 0,0 l/m 0,0 km/h (0 Bft) S 190 0 min 0,000 mm 0,0 UV-I 0 W/m -2,9 C -1,8 C 0,0 km/h (0 Bft) 100,00 %
02.11.2015 06:23 -1,8 C 92 % 1029,6 hPa 0,0 l/m 0,1 km/h (0 Bft) S 190 0 min 0,000 mm 0,0 UV-I 0 W/m -2,9 C -1,8 C 1,6 km/h (1 Bft) 100,00 %
02.11.2015 06:24 -1,8 C 93 % 1029,6 hPa 0,0 l/m 1,4 km/h (1 Bft) S 190 0 min 0,000 mm 0,0 UV-I 0 W/m -2,8 C -1,8 C 3,2 km/h (1 Bft) 100,00 %
02.11.2015 06:25 -1,7 C 93 % 1029,6 hPa 0,0 l/m 0,7 km/h (0 Bft) S 190 0 min 0,000 mm 0,0 UV-I 0 W/m -2,7 C -1,7 C 1,6 km/h (1 Bft) 100,00 %
02.11.2015 06:26 -1,6 C 94 % 1029,6 hPa 0,0 l/m 0,0 km/h (0 Bft) S 190 0 min 0,000 mm 0,0 UV-I 0 W/m -2,4 C -1,6 C 0,0 km/h (0 Bft) 100,00 %
02.11.2015 06:27 -1,6 C 93 % 1029,6 hPa 0,0 l/m 0,0 km/h (0 Bft) S 190 0 min 0,000 mm 0,0 UV-I 0 W/m -2,6 C -1,6 C 0,0 km/h (0 Bft) 100,00 %
02.11.2015 06:28 -1,6 C 92 % 1029,6 hPa 0,0 l/m 0,0 km/h (0 Bft) S 190 0 min 0,000 mm 0,0 UV-I 0 W/m -2,7 C -1,6 C 0,0 km/h (0 Bft) 96,55 %
02.11.2015 06:29 -1,6 C 92 % 1029,7 hPa 0,0 l/m 0,0 km/h (0 Bft) S 190 0 min 0,000 mm 0,0 UV-I 0 W/m -2,7 C -1,6 C 0,0 km/h (0 Bft) 100,00 %
02.11.2015 06:30 -1,7 C 92 % 1029,7 hPa 0,0 l/m 0,0 km/h (0 Bft) S 190 0 min 0,000 mm 0,0 UV-I 0 W/m -2,8 C -1,7 C 0,0 km/h (0 Bft) 100,00 %
02.11.2015 06:31 -1,7 C 92 % 1029,7 hPa 0,0 l/m 0,0 km/h (0 Bft) S 190 0 min 0,000 mm 0,0 UV-I 0 W/m -2,8 C -1,7 C 0,0 km/h (0 Bft) 100,00 %
02.11.2015 06:32 -1,7 C 92 % 1029,7 hPa 0,0 l/m 0,0 km/h (0 Bft) S 190 0 min 0,000 mm 0,0 UV-I 0 W/m -2,8 C -1,7 C 0,0 km/h (0 Bft) 100,00 %
02.11.2015 06:33 -1,7 C 92 % 1029,6 hPa 0,0 l/m 0,0 km/h (0 Bft) S 190 0 min 0,000 mm 0,0 UV-I 0 W/m -2,8 C -1,7 C 0,0 km/h (0 Bft) 100,00 %
02.11.2015 06:34 -1,7 C 92 % 1029,7 hPa 0,0 l/m 0,0 km/h (0 Bft) S 190 0 min 0,000 mm 0,0 UV-I 0 W/m -2,8 C -1,7 C 0,0 km/h (0 Bft) 100,00 %
02.11.2015 06:35 -1,7 C 92 % 1029,6 hPa 0,0 l/m 0,0 km/h (0 Bft) S 190 0 min 0,000 mm 0,0 UV-I 0 W/m -2,8 C -1,7 C 0,0 km/h (0 Bft) 100,00 %
02.11.2015 06:36 -1,8 C 92 % 1029,6 hPa 0,0 l/m 0,0 km/h (0 Bft) S 190 0 min 0,000 mm 0,0 UV-I 0 W/m -2,9 C -1,8 C 0,0 km/h (0 Bft) 100,00 %
02.11.2015 06:37 -1,8 C 92 % 1029,7 hPa 0,0 l/m 0,0 km/h (0 Bft) S 190 0 min 0,000 mm 0,0 UV-I 0 W/m -2,9 C -1,8 C 0,0 km/h (0 Bft) 100,00 %
02.11.2015 06:38 -1,8 C 92 % 1029,7 hPa 0,0 l/m 0,0 km/h (0 Bft) S 190 0 min 0,000 mm 0,0 UV-I 0 W/m -2,9 C -1,8 C 0,0 km/h (0 Bft) 100,00 %
02.11.2015 06:39 -1,8 C 92 % 1029,6 hPa 0,0 l/m 0,0 km/h (0 Bft) S 190 0 min 0,000 mm 0,0 UV-I 0 W/m -2,9 C -1,8 C 0,0 km/h (0 Bft) 100,00 %
02.11.2015 06:40 -1,8 C 92 % 1029,6 hPa 0,0 l/m 0,0 km/h (0 Bft) S 190 0 min 0,000 mm 0,0 UV-I 0 W/m -2,9 C -1,8 C 0,0 km/h (0 Bft) 95,83 %
02.11.2015 06:41 -1,8 C 92 % 1029,7 hPa 0,0 l/m 0,0 km/h (0 Bft) S 190 0 min 0,000 mm 0,0 UV-I 0 W/m -2,9 C -1,8 C 0,0 km/h (0 Bft) 100,00 %
02.11.2015 06:42 -1,8 C 92 % 1029,7 hPa 0,0 l/m 0,0 km/h (0 Bft) S 190 0 min 0,000 mm 0,0 UV-I 0 W/m -2,9 C -1,8 C 0,0 km/h (0 Bft) 100,00 %
02.11.2015 06:43 -1,8 C 92 % 1029,7 hPa 0,0 l/m 0,0 km/h (0 Bft) S 190 0 min 0,000 mm 0,0 UV-I 0 W/m -2,9 C -1,8 C 0,0 km/h (0 Bft) 100,00 %
02.11.2015 06:44 -1,8 C 92 % 1029,7 hPa 0,0 l/m 0,4 km/h (0 Bft) S 190 0 min 0,000 mm 0,0 UV-I 0 W/m -2,9 C -1,8 C 1,6 km/h (1 Bft) 95,83 %
02.11.2015 06:45 -1,8 C 92 % 1029,7 hPa 0,0 l/m 0,5 km/h (0 Bft) S 190 0 min 0,000 mm 0,0 UV-I 0 W/m -2,9 C -1,8 C 1,6 km/h (1 Bft) 100,00 %
02.11.2015 06:46 -1,8 C 92 % 1029,7 hPa 0,0 l/m 0,0 km/h (0 Bft) S 190 0 min 0,000 mm 0,0 UV-I 4 W/m -2,9 C -1,8 C 0,0 km/h (0 Bft) 100,00 %
02.11.2015 06:47 -1,8 C 92 % 1029,7 hPa 0,0 l/m 0,0 km/h (0 Bft) S 190 0 min 0,000 mm 0,0 UV-I 5 W/m -2,9 C -1,8 C 0,0 km/h (0 Bft) 95,83 %
02.11.2015 06:48 -1,8 C 92 % 1029,7 hPa 0,0 l/m 0,0 km/h (0 Bft) S 190 0 min 0,000 mm 0,0 UV-I 5 W/m -2,9 C -1,8 C 0,0 km/h (0 Bft) 100,00 %
02.11.2015 06:49 -1,8 C 92 % 1029,7 hPa 0,0 l/m 0,0 km/h (0 Bft) S 190 0 min 0,000 mm 0,0 UV-I 5 W/m -2,9 C -1,8 C 0,0 km/h (0 Bft) 100,00 %
02.11.2015 06:50 -1,8 C 92 % 1029,6 hPa 0,0 l/m 0,0 km/h (0 Bft) S 190 0 min 0,000 mm 0,0 UV-I 5 W/m -2,9 C -1,8 C 0,0 km/h (0 Bft) 100,00 %
02.11.2015 06:51 -1,8 C 93 % 1029,7 hPa 0,0 l/m 0,2 km/h (0 Bft) S 190 0 min 0,000 mm 0,0 UV-I 5 W/m -2,8 C -1,8 C 1,6 km/h (1 Bft) 100,00 %
02.11.2015 06:52 -1,8 C 93 % 1029,7 hPa 0,0 l/m 0,1 km/h (0 Bft) S 190 0 min 0,000 mm 0,0 UV-I 5 W/m -2,8 C -1,8 C 1,6 km/h (1 Bft) 100,00 %
02.11.2015 06:53 -1,8 C 93 % 1029,7 hPa 0,0 l/m 0,1 km/h (0 Bft) S 190 0 min 0,000 mm 0,0 UV-I 7 W/m -2,8 C -1,8 C 1,6 km/h (1 Bft) 100,00 %
02.11.2015 06:54 -1,8 C 93 % 1029,7 hPa 0,0 l/m 1,3 km/h (1 Bft) S 190 0 min 0,000 mm 0,0 UV-I 7 W/m -2,8 C -1,8 C 1,6 km/h (1 Bft) 100,00 %
02.11.2015 06:55 -1,8 C 93 % 1029,7 hPa 0,0 l/m 1,5 km/h (1 Bft) S 190 0 min 0,000 mm 0,0 UV-I 7 W/m -2,8 C -1,8 C 1,6 km/h (1 Bft) 100,00 %
02.11.2015 06:56 -1,8 C 92 % 1029,8 hPa 0,0 l/m 0,8 km/h (0 Bft) S 190 0 min 0,000 mm 0,0 UV-I 7 W/m -2,9 C -1,8 C 1,6 km/h (1 Bft) 100,00 %
02.11.2015 06:57 -1,8 C 93 % 1029,8 hPa 0,0 l/m 0,3 km/h (0 Bft) S 190 0 min 0,000 mm 0,0 UV-I 8 W/m -2,8 C -1,8 C 1,6 km/h (1 Bft) 100,00 %
02.11.2015 06:58 -1,9 C 93 % 1029,8 hPa 0,0 l/m 0,1 km/h (0 Bft) S 190 0 min 0,000 mm 0,0 UV-I 9 W/m -2,9 C -1,9 C 1,6 km/h (1 Bft) 91,30 %
02.11.2015 06:59 -1,8 C 93 % 1029,8 hPa 0,0 l/m 1,2 km/h (1 Bft) S 190 0 min 0,000 mm 0,0 UV-I 9 W/m -2,8 C -1,8 C 1,6 km/h (1 Bft) 100,00 %
02.11.2015 07:00 -1,8 C 93 % 1029,8 hPa 0,0 l/m 0,2 km/h (0 Bft) S 190 0 min 0,000 mm 0,0 UV-I 9 W/m -2,8 C -1,8 C 1,6 km/h (1 Bft) 100,00 %
02.11.2015 07:01 -1,8 C 93 % 1029,8 hPa 0,0 l/m 0,0 km/h (0 Bft) S 190 1 min 0,000 mm 0,0 UV-I 10 W/m -2,8 C -1,8 C 0,0 km/h (0 Bft) 100,00 %
02.11.2015 07:02 -1,8 C 93 % 1029,8 hPa 0,0 l/m 0,0 km/h (0 Bft) S 190 1 min 0,000 mm 0,0 UV-I 11 W/m -2,8 C -1,8 C 0,0 km/h (0 Bft) 100,00 %
02.11.2015 07:03 -1,8 C 93 % 1029,8 hPa 0,0 l/m 0,0 km/h (0 Bft) S 190 0 min 0,000 mm 0,0 UV-I 11 W/m -2,8 C -1,8 C 0,0 km/h (0 Bft) 100,00 %
02.11.2015 07:04 -1,8 C 93 % 1029,8 hPa 0,0 l/m 0,0 km/h (0 Bft) S 190 0 min 0,000 mm 0,0 UV-I 11 W/m -2,8 C -1,8 C 0,0 km/h (0 Bft) 95,65 %
02.11.2015 07:05 -1,8 C 93 % 1029,8 hPa 0,0 l/m 0,0 km/h (0 Bft) S 190 0 min 0,000 mm 0,0 UV-I 11 W/m -2,8 C -1,8 C 0,0 km/h (0 Bft) 100,00 %
02.11.2015 07:06 -1,8 C 93 % 1029,7 hPa 0,0 l/m 0,1 km/h (0 Bft) S 190 0 min 0,000 mm 0,0 UV-I 12 W/m -2,8 C -1,8 C 1,6 km/h (1 Bft) 100,00 %
02.11.2015 07:07 -1,8 C 94 % 1029,8 hPa 0,0 l/m 0,0 km/h (0 Bft) S 190 0 min 0,000 mm 0,0 UV-I 12 W/m -2,6 C -1,8 C 0,0 km/h (0 Bft) 100,00 %
02.11.2015 07:08 -1,8 C 93 % 1029,7 hPa 0,0 l/m 0,0 km/h (0 Bft) S 190 0 min 0,000 mm 0,0 UV-I 12 W/m -2,8 C -1,8 C 0,0 km/h (0 Bft) 100,00 %
02.11.2015 07:09 -1,8 C 93 % 1029,8 hPa 0,0 l/m 0,0 km/h (0 Bft) S 190 0 min 0,000 mm 0,0 UV-I 12 W/m -2,8 C -1,8 C 0,0 km/h (0 Bft) 93,10 %
02.11.2015 07:10 -1,8 C 93 % 1029,8 hPa 0,0 l/m 0,0 km/h (0 Bft) S 190 0 min 0,000 mm 0,0 UV-I 12 W/m -2,8 C -1,8 C 0,0 km/h (0 Bft) 100,00 %
02.11.2015 07:11 -1,8 C 93 % 1029,8 hPa 0,0 l/m 0,0 km/h (0 Bft) S 190 0 min 0,000 mm 0,0 UV-I 12 W/m -2,8 C -1,8 C 0,0 km/h (0 Bft) 100,00 %
02.11.2015 07:14 -1,8 C 93 % 1029,9 hPa 0,0 l/m 0,0 km/h (0 Bft) S 190 0 min 0,000 mm 0,0 UV-I 14 W/m -2,8 C -1,8 C 0,0 km/h (0 Bft) 100,00 %
02.11.2015 07:15 -1,8 C 93 % 1029,9 hPa 0,0 l/m 0,0 km/h (0 Bft) S 190 0 min 0,000 mm 0,0 UV-I 14 W/m -2,8 C -1,8 C 0,0 km/h (0 Bft) 100,00 %
02.11.2015 07:16 -1,8 C 93 % 1029,9 hPa 0,0 l/m 0,0 km/h (0 Bft) S 190 0 min 0,000 mm 0,0 UV-I 14 W/m -2,8 C -1,8 C 0,0 km/h (0 Bft) 95,83 %
02.11.2015 07:17 -1,8 C 92 % 1029,9 hPa 0,0 l/m 0,0 km/h (0 Bft) S 190 0 min 0,000 mm 0,0 UV-I 16 W/m -2,9 C -1,8 C 0,0 km/h (0 Bft) 100,00 %
02.11.2015 07:18 -1,8 C 92 % 1030,0 hPa 0,0 l/m 0,0 km/h (0 Bft) S 190 0 min 0,000 mm 0,0 UV-I 16 W/m -2,9 C -1,8 C 0,0 km/h (0 Bft) 100,00 %
02.11.2015 07:19 -1,8 C 92 % 1029,9 hPa 0,0 l/m 0,0 km/h (0 Bft) S 190 0 min 0,000 mm 0,0 UV-I 16 W/m -2,9 C -1,8 C 0,0 km/h (0 Bft) 99,21 %
02.11.2015 07:20 -1,8 C 92 % 1030,0 hPa 0,0 l/m 0,0 km/h (0 Bft) S 190 0 min 0,000 mm 0,0 UV-I 16 W/m -2,9 C -1,8 C 0,0 km/h (0 Bft) 97,37 %
02.11.2015 07:21 -1,8 C 93 % 1029,9 hPa 0,0 l/m 0,0 km/h (0 Bft) S 190 0 min 0,000 mm 0,0 UV-I 16 W/m -2,8 C -1,8 C 0,0 km/h (0 Bft) 100,00 %
02.11.2015 07:22 -1,8 C 93 % 1029,9 hPa 0,0 l/m 0,0 km/h (0 Bft) S 190 0 min 0,000 mm 0,0 UV-I 18 W/m -2,8 C -1,8 C 0,0 km/h (0 Bft) 100,00 %
02.11.2015 07:23 -1,7 C 93 % 1030,0 hPa 0,0 l/m 0,0 km/h (0 Bft) S 190 0 min 0,000 mm 0,0 UV-I 18 W/m -2,7 C -1,7 C 0,0 km/h (0 Bft) 96,15 %
02.11.2015 07:24 -1,7 C 93 % 1029,9 hPa 0,0 l/m 0,0 km/h (0 Bft) S 190 0 min 0,000 mm 0,0 UV-I 18 W/m -2,7 C -1,7 C 0,0 km/h (0 Bft) 100,00 %
02.11.2015 07:25 -1,8 C 93 % 1029,9 hPa 0,0 l/m 0,0 km/h (0 Bft) S 190 0 min 0,000 mm 0,0 UV-I 19 W/m -2,8 C -1,8 C 0,0 km/h (0 Bft) 100,00 %
02.11.2015 07:26 -1,7 C 93 % 1030,0 hPa 0,0 l/m 0,0 km/h (0 Bft) S 190 0 min 0,000 mm 0,0 UV-I 20 W/m -2,7 C -1,7 C 0,0 km/h (0 Bft) 100,00 %
02.11.2015 07:27 -1,7 C 93 % 1030,1 hPa 0,0 l/m 0,0 km/h (0 Bft) S 190 0 min 0,000 mm 0,0 UV-I 22 W/m -2,7 C -1,7 C 0,0 km/h (0 Bft) 96,15 %
02.11.2015 07:28 -1,7 C 93 % 1030,1 hPa 0,0 l/m 0,0 km/h (0 Bft) S 190 0 min 0,000 mm 0,0 UV-I 28 W/m -2,7 C -1,7 C 0,0 km/h (0 Bft) 100,00 %
02.11.2015 07:29 -1,7 C 93 % 1030,1 hPa 0,0 l/m 0,0 km/h (0 Bft) S 190 0 min 0,000 mm 0,0 UV-I 33 W/m -2,7 C -1,7 C 0,0 km/h (0 Bft) 100,00 %
02.11.2015 07:30 -1,7 C 93 % 1030,1 hPa 0,0 l/m 0,0 km/h (0 Bft) S 190 0 min 0,000 mm 0,0 UV-I 37 W/m -2,7 C -1,7 C 0,0 km/h (0 Bft) 100,00 %
02.11.2015 07:31 -1,6 C 93 % 1030,0 hPa 0,0 l/m 0,0 km/h (0 Bft) S 190 0 min 0,000 mm 0,0 UV-I 46 W/m -2,6 C -1,6 C 0,0 km/h (0 Bft) 100,00 %
02.11.2015 07:32 -1,6 C 92 % 1030,0 hPa 0,0 l/m 0,0 km/h (0 Bft) S 190 0 min 0,000 mm 0,0 UV-I 52 W/m -2,7 C -1,6 C 0,0 km/h (0 Bft) 100,00 %
02.11.2015 07:33 -1,6 C 92 % 1030,0 hPa 0,0 l/m 0,0 km/h (0 Bft) S 190 0 min 0,000 mm 0,0 UV-I 54 W/m -2,7 C -1,6 C 0,0 km/h (0 Bft) 100,00 %
02.11.2015 07:34 -1,6 C 92 % 1030,0 hPa 0,0 l/m 0,0 km/h (0 Bft) S 190 0 min 0,000 mm 0,0 UV-I 56 W/m -2,7 C -1,6 C 0,0 km/h (0 Bft) 100,00 %
02.11.2015 07:35 -1,5 C 93 % 1030,0 hPa 0,0 l/m 0,0 km/h (0 Bft) S 190 1 min 0,000 mm 0,0 UV-I 59 W/m -2,5 C -1,5 C 0,0 km/h (0 Bft) 100,00 %
02.11.2015 07:36 -1,4 C 93 % 1030,0 hPa 0,0 l/m 0,0 km/h (0 Bft) S 190 1 min 0,000 mm 0,0 UV-I 62 W/m -2,4 C -1,4 C 0,0 km/h (0 Bft) 100,00 %
02.11.2015 07:37 -1,3 C 93 % 1030,0 hPa 0,0 l/m 0,0 km/h (0 Bft) S 190 1 min 0,000 mm 0,0 UV-I 63 W/m -2,3 C -1,3 C 0,0 km/h (0 Bft) 92,59 %
02.11.2015 07:38 -1,2 C 93 % 1030,0 hPa 0,0 l/m 0,0 km/h (0 Bft) S 190 1 min 0,000 mm 0,0 UV-I 64 W/m -2,2 C -1,2 C 0,0 km/h (0 Bft) 100,00 %
02.11.2015 07:39 -1,0 C 93 % 1030,0 hPa 0,0 l/m 0,0 km/h (0 Bft) S 190 1 min 0,000 mm 0,0 UV-I 67 W/m -2,0 C -1,0 C 0,0 km/h (0 Bft) 100,00 %
02.11.2015 07:40 -0,8 C 93 % 1030,0 hPa 0,0 l/m 0,0 km/h (0 Bft) S 190 1 min 0,000 mm 0,0 UV-I 69 W/m -1,8 C -0,8 C 0,0 km/h (0 Bft) 100,00 %
02.11.2015 07:41 -0,7 C 92 % 1030,1 hPa 0,0 l/m 0,0 km/h (0 Bft) S 190 1 min 0,000 mm 0,0 UV-I 71 W/m -1,8 C -0,7 C 0,0 km/h (0 Bft) 100,00 %
02.11.2015 07:42 -0,7 C 92 % 1030,1 hPa 0,0 l/m 0,0 km/h (0 Bft) S 190 1 min 0,000 mm 0,0 UV-I 74 W/m -1,8 C -0,7 C 0,0 km/h (0 Bft) 100,00 %
02.11.2015 07:43 -0,8 C 91 % 1030,1 hPa 0,0 l/m 0,0 km/h (0 Bft) S 190 1 min 0,000 mm 0,0 UV-I 76 W/m -2,1 C -0,8 C 0,0 km/h (0 Bft) 100,00 %
02.11.2015 07:44 -0,8 C 91 % 1030,0 hPa 0,0 l/m 0,3 km/h (0 Bft) S 190 1 min 0,000 mm 0,0 UV-I 79 W/m -2,1 C -0,8 C 1,6 km/h (1 Bft) 100,00 %
02.11.2015 07:45 -0,9 C 91 % 1030,0 hPa 0,0 l/m 0,4 km/h (0 Bft) S 190 1 min 0,000 mm 0,0 UV-I 79 W/m -2,2 C -0,9 C 1,6 km/h (1 Bft) 100,00 %
02.11.2015 07:46 -0,9 C 91 % 1030,1 hPa 0,0 l/m 0,0 km/h (0 Bft) S 190 1 min 0,000 mm 0,0 UV-I 83 W/m -2,2 C -0,9 C 0,0 km/h (0 Bft) 100,00 %
02.11.2015 07:47 -0,8 C 92 % 1030,1 hPa 0,0 l/m 0,0 km/h (0 Bft) S 190 1 min 0,000 mm 0,0 UV-I 85 W/m -1,9 C -0,8 C 0,0 km/h (0 Bft) 100,00 %
02.11.2015 07:48 -0,8 C 92 % 1030,1 hPa 0,0 l/m 0,0 km/h (0 Bft) S 190 1 min 0,000 mm 0,0 UV-I 87 W/m -1,9 C -0,8 C 0,0 km/h (0 Bft) 100,00 %
02.11.2015 07:49 -0,7 C 92 % 1030,1 hPa 0,0 l/m 0,0 km/h (0 Bft) S 190 1 min 0,000 mm 0,0 UV-I 90 W/m -1,8 C -0,7 C 0,0 km/h (0 Bft) 100,00 %
02.11.2015 07:50 -0,6 C 92 % 1030,1 hPa 0,0 l/m 0,0 km/h (0 Bft) S 190 1 min 0,000 mm 0,0 UV-I 92 W/m -1,7 C -0,6 C 0,0 km/h (0 Bft) 100,00 %
02.11.2015 07:51 -0,5 C 92 % 1030,1 hPa 0,0 l/m 0,0 km/h (0 Bft) S 190 1 min 0,000 mm 0,0 UV-I 95 W/m -1,6 C -0,5 C 0,0 km/h (0 Bft) 96,15 %
02.11.2015 07:52 -0,4 C 92 % 1030,1 hPa 0,0 l/m 0,0 km/h (0 Bft) S 190 1 min 0,000 mm 0,0 UV-I 97 W/m -1,5 C -0,4 C 0,0 km/h (0 Bft) 100,00 %
02.11.2015 07:53 -0,3 C 91 % 1030,1 hPa 0,0 l/m 0,0 km/h (0 Bft) S 190 1 min 0,000 mm 0,0 UV-I 99 W/m -1,6 C -0,3 C 0,0 km/h (0 Bft) 100,00 %
02.11.2015 07:54 -0,3 C 91 % 1030,1 hPa 0,0 l/m 0,0 km/h (0 Bft) S 190 1 min 0,000 mm 0,0 UV-I 102 W/m -1,6 C -0,3 C 0,0 km/h (0 Bft) 95,83 %
02.11.2015 07:55 -0,2 C 91 % 1030,1 hPa 0,0 l/m 0,0 km/h (0 Bft) S 190 1 min 0,000 mm 0,0 UV-I 105 W/m -1,5 C -0,2 C 0,0 km/h (0 Bft) 100,00 %
02.11.2015 07:56 -0,1 C 91 % 1030,1 hPa 0,0 l/m 0,0 km/h (0 Bft) S 190 1 min 0,000 mm 0,0 UV-I 106 W/m -1,4 C -0,1 C 0,0 km/h (0 Bft) 100,00 %
02.11.2015 07:57 -0,2 C 90 % 1030,1 hPa 0,0 l/m 0,0 km/h (0 Bft) S 190 1 min 0,000 mm 0,0 UV-I 111 W/m -1,6 C -0,2 C 0,0 km/h (0 Bft) 100,00 %
02.11.2015 07:58 -0,2 C 90 % 1030,1 hPa 0,0 l/m 0,0 km/h (0 Bft) S 190 1 min 0,000 mm 0,0 UV-I 113 W/m -1,6 C -0,2 C 0,0 km/h (0 Bft) 91,67 %
02.11.2015 07:59 -0,3 C 90 % 1030,2 hPa 0,0 l/m 0,0 km/h (0 Bft) S 190 1 min 0,000 mm 0,0 UV-I 115 W/m -1,7 C -0,3 C 0,0 km/h (0 Bft) 100,00 %
02.11.2015 08:00 -0,3 C 90 % 1030,2 hPa 0,0 l/m 0,0 km/h (0 Bft) S 190 1 min 0,000 mm 0,0 UV-I 119 W/m -1,7 C -0,3 C 0,0 km/h (0 Bft) 100,00 %
02.11.2015 08:01 -0,3 C 90 % 1030,2 hPa 0,0 l/m 0,0 km/h (0 Bft) S 190 1 min 0,025 mm 0,0 UV-I 121 W/m -1,7 C -0,3 C 0,0 km/h (0 Bft) 100,00 %
02.11.2015 08:02 -0,3 C 90 % 1030,2 hPa 0,0 l/m 0,1 km/h (0 Bft) S 190 1 min 0,000 mm 0,0 UV-I 124 W/m -1,7 C -0,3 C 1,6 km/h (1 Bft) 100,00 %
02.11.2015 08:03 -0,3 C 90 % 1030,2 hPa 0,0 l/m 0,0 km/h (0 Bft) S 190 1 min 0,000 mm 0,0 UV-I 127 W/m -1,7 C -0,3 C 0,0 km/h (0 Bft) 95,65 %
02.11.2015 08:04 -0,3 C 90 % 1030,3 hPa 0,0 l/m 0,0 km/h (0 Bft) S 190 1 min 0,000 mm 0,0 UV-I 129 W/m -1,7 C -0,3 C 0,0 km/h (0 Bft) 100,00 %
02.11.2015 08:05 -0,4 C 90 % 1030,2 hPa 0,0 l/m 0,0 km/h (0 Bft) S 190 1 min 0,000 mm 0,0 UV-I 132 W/m -1,8 C -0,4 C 0,0 km/h (0 Bft) 100,00 %
02.11.2015 08:06 -0,4 C 90 % 1030,3 hPa 0,0 l/m 0,0 km/h (0 Bft) S 190 1 min 0,000 mm 0,0 UV-I 134 W/m -1,8 C -0,4 C 0,0 km/h (0 Bft) 100,00 %
02.11.2015 08:07 -0,4 C 90 % 1030,3 hPa 0,0 l/m 0,0 km/h (0 Bft) S 190 1 min 0,000 mm 0,0 UV-I 136 W/m -1,8 C -0,4 C 0,0 km/h (0 Bft) 100,00 %
02.11.2015 08:08 -0,5 C 90 % 1030,2 hPa 0,0 l/m 0,0 km/h (0 Bft) S 190 1 min 0,000 mm 0,0 UV-I 139 W/m -1,9 C -0,5 C 0,0 km/h (0 Bft) 97,37 %
02.11.2015 08:09 -0,4 C 91 % 1030,2 hPa 0,0 l/m 0,0 km/h (0 Bft) S 190 1 min 0,000 mm 0,0 UV-I 141 W/m -1,7 C -0,4 C 0,0 km/h (0 Bft) 100,00 %
02.11.2015 08:10 -0,4 C 91 % 1030,2 hPa 0,0 l/m 0,0 km/h (0 Bft) S 190 1 min 0,000 mm 0,0 UV-I 144 W/m -1,7 C -0,4 C 0,0 km/h (0 Bft) 100,00 %
02.11.2015 08:11 -0,3 C 91 % 1030,2 hPa 0,0 l/m 0,0 km/h (0 Bft) S 190 1 min 0,000 mm 0,0 UV-I 147 W/m -1,6 C -0,3 C 0,0 km/h (0 Bft) 99,21 %
02.11.2015 08:12 -0,3 C 91 % 1030,2 hPa 0,0 l/m 0,0 km/h (0 Bft) S 190 1 min 0,000 mm 0,0 UV-I 148 W/m -1,6 C -0,3 C 0,0 km/h (0 Bft) 100,00 %
02.11.2015 08:13 -0,3 C 91 % 1030,3 hPa 0,0 l/m 0,0 km/h (0 Bft) S 190 1 min 0,000 mm 0,0 UV-I 152 W/m -1,6 C -0,3 C 0,0 km/h (0 Bft) 100,00 %
02.11.2015 08:14 -0,2 C 91 % 1030,3 hPa 0,0 l/m 0,0 km/h (0 Bft) S 190 1 min 0,000 mm 0,0 UV-I 155 W/m -1,5 C -0,2 C 0,0 km/h (0 Bft) 100,00 %
02.11.2015 08:15 -0,1 C 91 % 1030,2 hPa 0,0 l/m 0,0 km/h (0 Bft) S 190 1 min 0,000 mm 0,0 UV-I 158 W/m -1,4 C -0,1 C 0,0 km/h (0 Bft) 100,00 %
02.11.2015 08:16 -0,1 C 90 % 1030,3 hPa 0,0 l/m 0,0 km/h (0 Bft) S 190 1 min 0,000 mm 0,0 UV-I 160 W/m -1,5 C -0,1 C 0,0 km/h (0 Bft) 95,65 %
02.11.2015 08:17 0,1 C 90 % 1030,2 hPa 0,0 l/m 0,0 km/h (0 Bft) S 190 1 min 0,000 mm 0,0 UV-I 162 W/m -1,3 C 0,1 C 0,0 km/h (0 Bft) 100,00 %
02.11.2015 08:18 0,1 C 90 % 1030,2 hPa 0,0 l/m 0,0 km/h (0 Bft) S 190 1 min 0,000 mm 0,0 UV-I 164 W/m -1,3 C 0,1 C 0,0 km/h (0 Bft) 100,00 %
02.11.2015 08:19 0,2 C 90 % 1030,3 hPa 0,0 l/m 0,0 km/h (0 Bft) S 190 1 min 0,000 mm 0,0 UV-I 168 W/m -1,2 C 0,2 C 0,0 km/h (0 Bft) 100,00 %
02.11.2015 08:20 0,2 C 90 % 1030,3 hPa 0,0 l/m 0,1 km/h (0 Bft) S 190 1 min 0,000 mm 0,0 UV-I 171 W/m -1,2 C 0,2 C 1,6 km/h (1 Bft) 100,00 %
02.11.2015 08:21 0,3 C 90 % 1030,3 hPa 0,0 l/m 0,0 km/h (0 Bft) S 190 1 min 0,000 mm 0,0 UV-I 174 W/m -1,1 C 0,3 C 0,0 km/h (0 Bft) 100,00 %
02.11.2015 08:22 0,4 C 90 % 1030,3 hPa 0,0 l/m 0,0 km/h (0 Bft) S 190 1 min 0,000 mm 0,0 UV-I 176 W/m -1,0 C 0,4 C 0,0 km/h (0 Bft) 95,65 %
02.11.2015 08:23 0,5 C 90 % 1030,3 hPa 0,0 l/m 0,0 km/h (0 Bft) S 190 1 min 0,000 mm 0,0 UV-I 178 W/m -0,9 C 0,5 C 0,0 km/h (0 Bft) 100,00 %
02.11.2015 08:24 0,6 C 90 % 1030,2 hPa 0,0 l/m 0,0 km/h (0 Bft) S 190 1 min 0,000 mm 0,0 UV-I 180 W/m -0,8 C 0,6 C 0,0 km/h (0 Bft) 95,65 %
02.11.2015 08:25 0,7 C 90 % 1030,2 hPa 0,0 l/m 0,0 km/h (0 Bft) S 190 1 min 0,000 mm 0,0 UV-I 184 W/m -0,7 C 0,7 C 0,0 km/h (0 Bft) 100,00 %
02.11.2015 08:26 0,9 C 90 % 1030,2 hPa 0,0 l/m 0,0 km/h (0 Bft) S 190 1 min 0,000 mm 0,0 UV-I 186 W/m -0,6 C 0,9 C 0,0 km/h (0 Bft) 100,00 %
02.11.2015 08:27 1,1 C 90 % 1030,1 hPa 0,0 l/m 0,0 km/h (0 Bft) S 190 1 min 0,000 mm 0,0 UV-I 188 W/m -0,4 C 1,1 C 0,0 km/h (0 Bft) 100,00 %
02.11.2015 08:28 1,2 C 89 % 1030,1 hPa 0,0 l/m 0,0 km/h (0 Bft) S 190 1 min 0,000 mm 0,0 UV-I 191 W/m -0,4 C 1,2 C 0,0 km/h (0 Bft) 100,00 %
02.11.2015 08:29 1,3 C 89 % 1030,2 hPa 0,0 l/m 0,1 km/h (0 Bft) S 190 1 min 0,000 mm 0,0 UV-I 194 W/m -0,3 C 1,3 C 1,6 km/h (1 Bft) 100,00 %
02.11.2015 08:30 1,3 C 87 % 1030,2 hPa 0,0 l/m 0,5 km/h (0 Bft) S 186 1 min 0,000 mm 0,0 UV-I 196 W/m -0,6 C 1,3 C 1,6 km/h (1 Bft) 100,00 %
02.11.2015 08:31 1,4 C 88 % 1030,2 hPa 0,0 l/m 0,9 km/h (0 Bft) O-NO 57 1 min 0,000 mm 0,0 UV-I 198 W/m -0,4 C 1,4 C 1,6 km/h (1 Bft) 97,37 %
02.11.2015 08:32 1,4 C 88 % 1030,2 hPa 0,0 l/m 1,9 km/h (1 Bft) O-NO 57 1 min 0,000 mm 0,0 UV-I 200 W/m -0,4 C 1,4 C 3,2 km/h (1 Bft) 100,00 %
02.11.2015 08:33 1,6 C 88 % 1030,2 hPa 0,0 l/m 0,8 km/h (0 Bft) O-NO 69 1 min 0,000 mm 0,0 UV-I 203 W/m -0,2 C 1,6 C 1,6 km/h (1 Bft) 100,00 %
02.11.2015 08:34 1,6 C 88 % 1030,1 hPa 0,0 l/m 2,1 km/h (1 Bft) O-NO 60 1 min 0,000 mm 0,0 UV-I 206 W/m -0,2 C 1,6 C 3,2 km/h (1 Bft) 100,00 %
02.11.2015 08:35 1,7 C 87 % 1030,2 hPa 0,0 l/m 1,0 km/h (0 Bft) O-NO 76 1 min 0,000 mm 0,0 UV-I 208 W/m -0,2 C 1,7 C 1,6 km/h (1 Bft) 95,65 %
02.11.2015 08:36 1,8 C 87 % 1030,1 hPa 0,0 l/m 2,0 km/h (1 Bft) O 91 1 min 0,000 mm 0,0 UV-I 210 W/m -0,1 C 1,8 C 3,2 km/h (1 Bft) 100,00 %
02.11.2015 08:37 1,8 C 87 % 1030,1 hPa 0,0 l/m 1,3 km/h (1 Bft) O-NO 69 1 min 0,000 mm 0,0 UV-I 213 W/m -0,1 C 1,8 C 1,6 km/h (1 Bft) 96,15 %
02.11.2015 08:38 1,8 C 88 % 1030,2 hPa 0,0 l/m 1,3 km/h (1 Bft) NO 43 1 min 0,000 mm 0,0 UV-I 216 W/m 0,0 C 1,8 C 3,2 km/h (1 Bft) 100,00 %
02.11.2015 08:39 1,8 C 87 % 1030,1 hPa 0,0 l/m 1,1 km/h (1 Bft) NO 38 1 min 0,000 mm 0,4 UV-I 218 W/m -0,1 C 1,8 C 3,2 km/h (1 Bft) 100,00 %
02.11.2015 08:40 1,9 C 87 % 1030,1 hPa 0,0 l/m 1,0 km/h (0 Bft) N 5 1 min 0,000 mm 0,5 UV-I 220 W/m -0,0 C 1,9 C 3,2 km/h (1 Bft) 100,00 %
02.11.2015 08:41 1,9 C 87 % 1030,1 hPa 0,0 l/m 1,6 km/h (1 Bft) O-NO 64 1 min 0,000 mm 0,5 UV-I 222 W/m -0,0 C 1,9 C 3,2 km/h (1 Bft) 100,00 %
02.11.2015 08:42 1,9 C 87 % 1030,1 hPa 0,0 l/m 1,7 km/h (1 Bft) NO 44 1 min 0,000 mm 0,5 UV-I 226 W/m -0,0 C 1,9 C 3,2 km/h (1 Bft) 100,00 %
02.11.2015 08:43 1,9 C 86 % 1030,1 hPa 0,0 l/m 1,0 km/h (0 Bft) N-NO 30 1 min 0,000 mm 0,5 UV-I 228 W/m -0,2 C 1,9 C 3,2 km/h (1 Bft) 100,00 %
02.11.2015 08:44 1,9 C 87 % 1030,1 hPa 0,0 l/m 1,9 km/h (1 Bft) N-NO 23 1 min 0,000 mm 0,5 UV-I 230 W/m -0,0 C 1,9 C 3,2 km/h (1 Bft) 100,00 %
02.11.2015 08:45 1,9 C 86 % 1030,1 hPa 0,0 l/m 3,1 km/h (1 Bft) N-NO 24 1 min 0,000 mm 0,5 UV-I 232 W/m -0,2 C 1,9 C 4,8 km/h (1 Bft) 100,00 %
02.11.2015 08:46 1,9 C 86 % 1030,1 hPa 0,0 l/m 2,3 km/h (1 Bft) O-NO 63 1 min 0,000 mm 0,5 UV-I 235 W/m -0,2 C 1,9 C 4,8 km/h (1 Bft) 100,00 %
02.11.2015 08:47 1,9 C 87 % 1030,1 hPa 0,0 l/m 1,3 km/h (1 Bft) NO 41 1 min 0,000 mm 0,5 UV-I 237 W/m -0,0 C 1,9 C 3,2 km/h (1 Bft) 100,00 %
02.11.2015 08:48 1,9 C 87 % 1030,1 hPa 0,0 l/m 0,7 km/h (0 Bft) NO 36 1 min 0,000 mm 0,5 UV-I 237 W/m -0,0 C 1,9 C 1,6 km/h (1 Bft) 100,00 %
02.11.2015 08:49 1,9 C 87 % 1030,1 hPa 0,0 l/m 1,4 km/h (1 Bft) NO 35 1 min 0,000 mm 0,5 UV-I 238 W/m -0,0 C 1,9 C 3,2 km/h (1 Bft) 100,00 %
02.11.2015 08:50 2,0 C 87 % 1030,2 hPa 0,0 l/m 1,5 km/h (1 Bft) NO 35 1 min 0,000 mm 0,5 UV-I 241 W/m 0,1 C 2,0 C 3,2 km/h (1 Bft) 100,00 %
02.11.2015 08:51 2,0 C 86 % 1030,1 hPa 0,0 l/m 0,8 km/h (0 Bft) NO 35 1 min 0,000 mm 0,5 UV-I 243 W/m -0,1 C 2,0 C 1,6 km/h (1 Bft) 100,00 %
02.11.2015 08:52 2,1 C 86 % 1030,2 hPa 0,0 l/m 0,7 km/h (0 Bft) NO 34 1 min 0,000 mm 0,6 UV-I 247 W/m 0,0 C 2,1 C 1,6 km/h (1 Bft) 100,00 %
02.11.2015 08:53 2,1 C 86 % 1030,2 hPa 0,0 l/m 1,2 km/h (1 Bft) N-NO 33 1 min 0,000 mm 0,6 UV-I 249 W/m 0,0 C 2,1 C 3,2 km/h (1 Bft) 100,00 %
02.11.2015 08:54 2,2 C 86 % 1030,1 hPa 0,0 l/m 0,7 km/h (0 Bft) N-NO 31 1 min 0,000 mm 0,6 UV-I 252 W/m 0,1 C 2,2 C 3,2 km/h (1 Bft) 100,00 %
02.11.2015 08:55 2,3 C 87 % 1030,1 hPa 0,0 l/m 0,1 km/h (0 Bft) N-NO 31 1 min 0,000 mm 0,6 UV-I 255 W/m 0,4 C 2,3 C 1,6 km/h (1 Bft) 100,00 %
02.11.2015 08:56 2,3 C 87 % 1030,1 hPa 0,0 l/m 1,5 km/h (1 Bft) N-NO 31 1 min 0,000 mm 0,6 UV-I 257 W/m 0,4 C 2,3 C 3,2 km/h (1 Bft) 100,00 %
02.11.2015 08:57 2,3 C 87 % 1030,1 hPa 0,0 l/m 1,5 km/h (1 Bft) N-NO 31 1 min 0,000 mm 0,6 UV-I 258 W/m 0,4 C 2,3 C 3,2 km/h (1 Bft) 100,00 %
02.11.2015 08:58 2,3 C 86 % 1030,1 hPa 0,0 l/m 0,9 km/h (0 Bft) N-NO 31 1 min 0,000 mm 0,6 UV-I 260 W/m 0,2 C 2,3 C 1,6 km/h (1 Bft) 95,65 %
02.11.2015 08:59 2,4 C 86 % 1030,1 hPa 0,0 l/m 1,5 km/h (1 Bft) N-NO 31 1 min 0,000 mm 0,6 UV-I 264 W/m 0,3 C 2,4 C 3,2 km/h (1 Bft) 100,00 %
02.11.2015 09:00 2,3 C 86 % 1030,1 hPa 0,0 l/m 1,5 km/h (1 Bft) N-NO 29 1 min 0,077 mm 0,6 UV-I 266 W/m 0,2 C 2,3 C 3,2 km/h (1 Bft) 100,00 %
02.11.2015 09:02 2,5 C 86 % 1030,1 hPa 0,0 l/m 0,9 km/h (0 Bft) O 83 2 min 0,000 mm 0,6 UV-I 270 W/m 0,4 C 2,5 C 3,2 km/h (1 Bft) 98,00 %
02.11.2015 09:03 2,7 C 86 % 1030,1 hPa 0,0 l/m 2,2 km/h (1 Bft) O 97 1 min 0,000 mm 0,7 UV-I 273 W/m 0,6 C 2,7 C 6,4 km/h (2 Bft) 100,00 %
02.11.2015 09:04 2,8 C 85 % 1030,1 hPa 0,0 l/m 3,7 km/h (1 Bft) O 83 1 min 0,000 mm 0,7 UV-I 276 W/m 0,5 C 2,8 C 6,4 km/h (2 Bft) 96,15 %
02.11.2015 09:05 2,9 C 84 % 1030,1 hPa 0,0 l/m 4,6 km/h (1 Bft) O-SO 106 1 min 0,000 mm 0,7 UV-I 277 W/m 0,5 C 2,9 C 6,4 km/h (2 Bft) 100,00 %
02.11.2015 09:06 2,9 C 82 % 1030,1 hPa 0,0 l/m 5,3 km/h (1 Bft) O 80 1 min 0,000 mm 0,7 UV-I 277 W/m 0,1 C 2,9 C 6,4 km/h (2 Bft) 100,00 %
02.11.2015 09:07 2,9 C 82 % 1030,1 hPa 0,0 l/m 5,1 km/h (1 Bft) O-NO 65 1 min 0,000 mm 0,7 UV-I 278 W/m 0,1 C 2,9 C 6,4 km/h (2 Bft) 100,00 %
02.11.2015 09:08 3,0 C 82 % 1030,0 hPa 0,0 l/m 3,4 km/h (1 Bft) O-NO 76 1 min 0,000 mm 0,7 UV-I 285 W/m 0,2 C 3,0 C 4,8 km/h (1 Bft) 100,00 %
02.11.2015 09:09 3,0 C 82 % 1030,1 hPa 0,0 l/m 5,6 km/h (1 Bft) O-NO 63 1 min 0,000 mm 0,7 UV-I 274 W/m 0,2 C 3,0 C 6,4 km/h (2 Bft) 97,37 %
02.11.2015 09:10 3,0 C 82 % 1030,1 hPa 0,0 l/m 5,6 km/h (1 Bft) O 90 1 min 0,000 mm 0,7 UV-I 280 W/m 0,2 C 3,0 C 9,7 km/h (2 Bft) 100,00 %
02.11.2015 09:11 3,0 C 81 % 1030,1 hPa 0,0 l/m 4,8 km/h (1 Bft) O 96 1 min 0,000 mm 0,7 UV-I 290 W/m 0,1 C 3,0 C 9,7 km/h (2 Bft) 100,00 %
02.11.2015 09:15 3,1 C 82 % 1030,1 hPa 0,0 l/m 4,8 km/h (1 Bft) O-NO 67 4 min 0,000 mm 0,7 UV-I 275 W/m 0,3 C 3,1 C 9,7 km/h (2 Bft) 100,00 %
02.11.2015 09:20 3,2 C 82 % 1030,1 hPa 0,0 l/m 2,4 km/h (1 Bft) NO 40 5 min 0,000 mm 0,7 UV-I 268 W/m 0,4 C 3,2 C 3,2 km/h (1 Bft) 98,51 %
02.11.2015 09:21 3,2 C 82 % 1030,1 hPa 0,0 l/m 4,1 km/h (1 Bft) NO 40 1 min 0,000 mm 0,8 UV-I 256 W/m 0,4 C 3,2 C 6,4 km/h (2 Bft) 100,00 %
02.11.2015 09:24 3,3 C 81 % 1030,2 hPa 0,0 l/m 3,3 km/h (1 Bft) O-NO 64 3 min 0,000 mm 0,8 UV-I 281 W/m 0,4 C 3,3 C 4,8 km/h (1 Bft) 100,00 %
02.11.2015 09:25 3,3 C 81 % 1030,2 hPa 0,0 l/m 4,9 km/h (1 Bft) O-NO 60 1 min 0,000 mm 0,8 UV-I 300 W/m 0,4 C 3,3 C 11,3 km/h (2 Bft) 95,83 %
02.11.2015 09:26 3,4 C 81 % 1030,2 hPa 0,0 l/m 4,3 km/h (1 Bft) O 80 1 min 0,000 mm 0,8 UV-I 298 W/m 0,5 C 3,4 C 6,4 km/h (2 Bft) 100,00 %
02.11.2015 09:27 3,4 C 81 % 1030,2 hPa 0,0 l/m 5,1 km/h (1 Bft) O 84 1 min 0,000 mm 0,8 UV-I 272 W/m 0,5 C 3,4 C 8,0 km/h (2 Bft) 95,83 %
02.11.2015 09:28 3,4 C 81 % 1030,2 hPa 0,0 l/m 3,9 km/h (1 Bft) O 79 1 min 0,000 mm 0,8 UV-I 260 W/m 0,5 C 3,4 C 6,4 km/h (2 Bft) 100,00 %
02.11.2015 09:29 3,4 C 80 % 1030,2 hPa 0,0 l/m 5,3 km/h (1 Bft) O 85 1 min 0,000 mm 0,8 UV-I 261 W/m 0,3 C 3,4 C 9,7 km/h (2 Bft) 100,00 %
02.11.2015 09:30 3,5 C 79 % 1030,2 hPa 0,0 l/m 5,2 km/h (1 Bft) O 92 1 min 0,000 mm 0,9 UV-I 264 W/m 0,2 C 3,5 C 6,4 km/h (2 Bft) 100,00 %
02.11.2015 09:31 3,4 C 80 % 1030,2 hPa 0,0 l/m 3,1 km/h (1 Bft) O 86 1 min 0,000 mm 0,9 UV-I 252 W/m 0,3 C 3,4 C 4,8 km/h (1 Bft) 100,00 %
02.11.2015 09:32 3,5 C 81 % 1030,2 hPa 0,0 l/m 3,0 km/h (1 Bft) O 84 1 min 0,000 mm 0,9 UV-I 283 W/m 0,6 C 3,5 C 6,4 km/h (2 Bft) 95,65 %
02.11.2015 09:33 3,6 C 80 % 1030,1 hPa 0,0 l/m 4,5 km/h (1 Bft) O-SO 103 1 min 0,000 mm 0,9 UV-I 304 W/m 0,5 C 3,6 C 8,0 km/h (2 Bft) 91,67 %
02.11.2015 09:34 3,6 C 80 % 1030,1 hPa 0,0 l/m 3,5 km/h (1 Bft) O-NO 75 1 min 0,000 mm 0,9 UV-I 320 W/m 0,5 C 3,6 C 8,0 km/h (2 Bft) 100,00 %
02.11.2015 09:35 3,6 C 81 % 1030,1 hPa 0,0 l/m 2,7 km/h (1 Bft) O 85 1 min 0,000 mm 0,9 UV-I 337 W/m 0,7 C 3,6 C 4,8 km/h (1 Bft) 100,00 %
02.11.2015 09:36 3,7 C 80 % 1030,1 hPa 0,0 l/m 5,9 km/h (2 Bft) O 79 1 min 0,000 mm 1,0 UV-I 338 W/m 0,6 C 3,7 C 8,0 km/h (2 Bft) 100,00 %
02.11.2015 09:37 3,7 C 80 % 1030,1 hPa 0,0 l/m 4,7 km/h (1 Bft) O 93 1 min 0,000 mm 1,0 UV-I 344 W/m 0,6 C 3,7 C 6,4 km/h (2 Bft) 100,00 %
02.11.2015 09:38 3,7 C 80 % 1030,1 hPa 0,0 l/m 4,2 km/h (1 Bft) O-NO 58 1 min 0,000 mm 1,0 UV-I 338 W/m 0,6 C 3,7 C 6,4 km/h (2 Bft) 100,00 %
02.11.2015 09:39 3,8 C 80 % 1030,1 hPa 0,0 l/m 3,8 km/h (1 Bft) O 98 1 min 0,000 mm 1,0 UV-I 330 W/m 0,7 C 3,8 C 4,8 km/h (1 Bft) 95,65 %
02.11.2015 09:40 3,8 C 81 % 1030,2 hPa 0,0 l/m 5,1 km/h (1 Bft) O-NO 78 1 min 0,000 mm 1,0 UV-I 286 W/m 0,8 C 3,8 C 6,4 km/h (2 Bft) 100,00 %
02.11.2015 09:41 3,8 C 79 % 1030,1 hPa 0,0 l/m 4,3 km/h (1 Bft) O 90 1 min 0,000 mm 1,0 UV-I 302 W/m 0,5 C 3,8 C 6,4 km/h (2 Bft) 100,00 %
02.11.2015 09:42 3,8 C 79 % 1030,1 hPa 0,0 l/m 5,6 km/h (1 Bft) O-SO 104 1 min 0,000 mm 1,0 UV-I 328 W/m 0,5 C 3,8 C 8,0 km/h (2 Bft) 100,00 %
02.11.2015 09:43 3,8 C 79 % 1030,1 hPa 0,0 l/m 3,4 km/h (1 Bft) NO 35 1 min 0,000 mm 1,0 UV-I 352 W/m 0,5 C 3,8 C 4,8 km/h (1 Bft) 100,00 %
02.11.2015 09:44 3,9 C 80 % 1030,1 hPa 0,0 l/m 5,6 km/h (1 Bft) O-NO 61 1 min 0,000 mm 1,0 UV-I 347 W/m 0,8 C 3,9 C 8,0 km/h (2 Bft) 100,00 %
02.11.2015 09:45 3,9 C 79 % 1030,1 hPa 0,0 l/m 6,2 km/h (2 Bft) O-NO 71 1 min 0,000 mm 1,0 UV-I 355 W/m 0,6 C 3,9 C 9,7 km/h (2 Bft) 100,00 %
02.11.2015 09:46 3,9 C 79 % 1030,1 hPa 0,0 l/m 4,1 km/h (1 Bft) O-SO 111 1 min 0,000 mm 1,1 UV-I 362 W/m 0,6 C 3,9 C 9,7 km/h (2 Bft) 100,00 %
02.11.2015 09:47 4,0 C 79 % 1030,1 hPa 0,0 l/m 4,5 km/h (1 Bft) O 98 1 min 0,000 mm 1,1 UV-I 364 W/m 0,7 C 4,0 C 9,7 km/h (2 Bft) 100,00 %
02.11.2015 09:48 4,0 C 79 % 1030,1 hPa 0,0 l/m 5,7 km/h (1 Bft) O-NO 77 1 min 0,000 mm 1,0 UV-I 327 W/m 0,7 C 4,0 C 9,7 km/h (2 Bft) 100,00 %
02.11.2015 09:49 4,0 C 79 % 1030,1 hPa 0,0 l/m 4,2 km/h (1 Bft) O-SO 123 1 min 0,000 mm 1,0 UV-I 278 W/m 0,7 C 4,0 C 6,4 km/h (2 Bft) 100,00 %
02.11.2015 09:50 4,1 C 78 % 1030,1 hPa 0,0 l/m 5,5 km/h (1 Bft) O-NO 63 1 min 0,000 mm 1,0 UV-I 303 W/m 0,6 C 4,1 C 9,7 km/h (2 Bft) 100,00 %
02.11.2015 09:51 4,1 C 79 % 1030,1 hPa 0,0 l/m 5,4 km/h (1 Bft) O 86 1 min 0,000 mm 1,0 UV-I 290 W/m 0,8 C 4,1 C 8,0 km/h (2 Bft) 100,00 %
02.11.2015 09:52 4,0 C 78 % 1030,1 hPa 0,0 l/m 4,6 km/h (1 Bft) O-NO 71 1 min 0,000 mm 1,0 UV-I 293 W/m 0,5 C 4,0 C 6,4 km/h (2 Bft) 95,83 %
02.11.2015 09:53 4,0 C 78 % 1030,1 hPa 0,0 l/m 5,2 km/h (1 Bft) O 83 1 min 0,000 mm 1,0 UV-I 286 W/m 0,5 C 4,0 C 6,4 km/h (2 Bft) 100,00 %
02.11.2015 09:54 4,1 C 79 % 1030,1 hPa 0,0 l/m 2,7 km/h (1 Bft) O-NO 63 1 min 0,000 mm 1,0 UV-I 225 W/m 0,8 C 4,1 C 4,8 km/h (1 Bft) 100,00 %
02.11.2015 09:55 4,1 C 79 % 1030,1 hPa 0,0 l/m 5,1 km/h (1 Bft) O 93 1 min 0,000 mm 1,1 UV-I 299 W/m 0,8 C 4,1 C 9,7 km/h (2 Bft) 100,00 %
02.11.2015 09:56 4,1 C 78 % 1030,1 hPa 0,0 l/m 6,5 km/h (2 Bft) O 82 1 min 0,000 mm 1,1 UV-I 293 W/m 0,6 C 4,0 C 9,7 km/h (2 Bft) 100,00 %
02.11.2015 09:57 4,1 C 78 % 1030,1 hPa 0,0 l/m 5,5 km/h (1 Bft) O-NO 59 1 min 0,000 mm 1,1 UV-I 269 W/m 0,6 C 4,1 C 9,7 km/h (2 Bft) 91,67 %
02.11.2015 09:58 4,1 C 77 % 1030,1 hPa 0,0 l/m 5,4 km/h (1 Bft) O 100 1 min 0,000 mm 1,1 UV-I 278 W/m 0,4 C 4,1 C 9,7 km/h (2 Bft) 100,00 %
02.11.2015 09:59 4,1 C 78 % 1030,0 hPa 0,0 l/m 3,6 km/h (1 Bft) O-SO 109 0 min 0,000 mm 1,0 UV-I 212 W/m 0,6 C 4,1 C 6,4 km/h (2 Bft) 100,00 %
02.11.2015 10:00 4,1 C 78 % 1030,0 hPa 0,0 l/m 3,9 km/h (1 Bft) O 97 1 min 0,127 mm 1,1 UV-I 269 W/m 0,6 C 4,1 C 6,4 km/h (2 Bft) 100,00 %
02.11.2015 10:01 4,1 C 77 % 1030,0 hPa 0,0 l/m 5,9 km/h (2 Bft) O-NO 76 1 min 0,000 mm 1,1 UV-I 308 W/m 0,4 C 4,1 C 9,7 km/h (2 Bft) 100,00 %
02.11.2015 10:02 4,1 C 77 % 1030,0 hPa 0,0 l/m 5,9 km/h (2 Bft) O-NO 72 1 min 0,000 mm 1,2 UV-I 330 W/m 0,4 C 4,1 C 8,0 km/h (2 Bft) 96,15 %
02.11.2015 10:03 4,1 C 77 % 1030,0 hPa 0,0 l/m 3,6 km/h (1 Bft) O 96 1 min 0,000 mm 1,1 UV-I 300 W/m 0,4 C 4,1 C 6,4 km/h (2 Bft) 100,00 %
02.11.2015 10:04 4,2 C 79 % 1030,1 hPa 0,0 l/m 1,3 km/h (1 Bft) O 101 1 min 0,000 mm 1,2 UV-I 299 W/m 0,9 C 4,2 C 1,6 km/h (1 Bft) 100,00 %
02.11.2015 10:05 4,3 C 79 % 1030,1 hPa 0,0 l/m 3,8 km/h (1 Bft) O-SO 107 1 min 0,000 mm 1,2 UV-I 311 W/m 1,0 C 4,3 C 8,0 km/h (2 Bft) 100,00 %
02.11.2015 10:06 4,3 C 77 % 1030,1 hPa 0,0 l/m 5,2 km/h (1 Bft) O 86 1 min 0,000 mm 1,2 UV-I 305 W/m 0,6 C 4,3 C 8,0 km/h (2 Bft) 100,00 %
02.11.2015 10:07 4,3 C 77 % 1030,0 hPa 0,0 l/m 3,8 km/h (1 Bft) O-NO 76 1 min 0,000 mm 1,2 UV-I 296 W/m 0,6 C 4,3 C 6,4 km/h (2 Bft) 100,00 %
02.11.2015 10:08 4,3 C 77 % 1030,0 hPa 0,0 l/m 4,0 km/h (1 Bft) O-NO 76 1 min 0,000 mm 1,1 UV-I 251 W/m 0,6 C 4,3 C 6,4 km/h (2 Bft) 100,00 %
02.11.2015 10:09 4,3 C 77 % 1030,0 hPa 0,0 l/m 4,1 km/h (1 Bft) O 94 1 min 0,000 mm 1,3 UV-I 279 W/m 0,6 C 4,3 C 8,0 km/h (2 Bft) 95,83 %
02.11.2015 10:10 4,4 C 76 % 1030,0 hPa 0,0 l/m 4,8 km/h (1 Bft) O-NO 61 1 min 0,000 mm 1,2 UV-I 351 W/m 0,5 C 4,4 C 8,0 km/h (2 Bft) 100,00 %
02.11.2015 10:11 4,4 C 76 % 1030,0 hPa 0,0 l/m 4,2 km/h (1 Bft) O-NO 70 1 min 0,000 mm 1,2 UV-I 369 W/m 0,5 C 4,4 C 8,0 km/h (2 Bft) 100,00 %
02.11.2015 10:12 4,5 C 76 % 1030,0 hPa 0,0 l/m 6,8 km/h (2 Bft) O 80 1 min 0,000 mm 1,3 UV-I 372 W/m 0,6 C 4,2 C 12,9 km/h (3 Bft) 100,00 %
02.11.2015 10:13 4,5 C 76 % 1030,0 hPa 0,0 l/m 5,8 km/h (2 Bft) O 92 1 min 0,000 mm 1,3 UV-I 402 W/m 0,6 C 4,5 C 9,7 km/h (2 Bft) 100,00 %
02.11.2015 10:14 4,5 C 76 % 1030,0 hPa 0,0 l/m 5,9 km/h (2 Bft) NO 54 1 min 0,000 mm 1,3 UV-I 420 W/m 0,6 C 4,5 C 6,4 km/h (2 Bft) 96,55 %
02.11.2015 10:15 4,6 C 76 % 1030,0 hPa 0,0 l/m 3,7 km/h (1 Bft) O-SO 108 1 min 0,000 mm 1,3 UV-I 420 W/m 0,7 C 4,6 C 6,4 km/h (2 Bft) 100,00 %
02.11.2015 10:16 4,6 C 76 % 1030,0 hPa 0,0 l/m 3,6 km/h (1 Bft) O 96 1 min 0,000 mm 1,3 UV-I 420 W/m 0,7 C 4,6 C 6,4 km/h (2 Bft) 91,67 %
02.11.2015 10:17 4,7 C 76 % 1030,0 hPa 0,0 l/m 4,4 km/h (1 Bft) O 81 1 min 0,000 mm 1,3 UV-I 427 W/m 0,8 C 4,7 C 9,7 km/h (2 Bft) 100,00 %
02.11.2015 10:18 4,7 C 76 % 1030,0 hPa 0,0 l/m 2,4 km/h (1 Bft) O-NO 71 1 min 0,000 mm 1,3 UV-I 425 W/m 0,8 C 4,7 C 3,2 km/h (1 Bft) 100,00 %
02.11.2015 10:19 4,8 C 75 % 1029,9 hPa 0,0 l/m 3,9 km/h (1 Bft) O 96 1 min 0,000 mm 1,3 UV-I 405 W/m 0,8 C 4,8 C 8,0 km/h (2 Bft) 100,00 %
02.11.2015 10:20 4,9 C 75 % 1029,9 hPa 0,0 l/m 1,6 km/h (1 Bft) O-NO 63 1 min 0,000 mm 1,3 UV-I 352 W/m 0,8 C 4,9 C 4,8 km/h (1 Bft) 95,83 %
02.11.2015 10:21 4,9 C 75 % 1029,9 hPa 0,0 l/m 5,4 km/h (1 Bft) O-NO 69 1 min 0,000 mm 1,3 UV-I 381 W/m 0,8 C 4,9 C 11,3 km/h (2 Bft) 100,00 %
02.11.2015 10:22 4,9 C 75 % 1029,9 hPa 0,0 l/m 4,5 km/h (1 Bft) O 97 1 min 0,000 mm 1,3 UV-I 403 W/m 0,8 C 4,9 C 6,4 km/h (2 Bft) 100,00 %
02.11.2015 10:23 5,0 C 75 % 1029,9 hPa 0,0 l/m 5,2 km/h (1 Bft) O-NO 62 1 min 0,000 mm 1,2 UV-I 394 W/m 0,9 C 5,0 C 6,4 km/h (2 Bft) 100,00 %
02.11.2015 10:24 4,9 C 74 % 1029,9 hPa 0,0 l/m 6,7 km/h (2 Bft) O 80 0 min 0,000 mm 1,2 UV-I 227 W/m 0,7 C 4,7 C 11,3 km/h (2 Bft) 100,00 %
02.11.2015 10:25 4,9 C 74 % 1029,9 hPa 0,0 l/m 5,7 km/h (1 Bft) O 92 0 min 0,000 mm 1,2 UV-I 201 W/m 0,7 C 4,9 C 9,7 km/h (2 Bft) 100,00 %
02.11.2015 10:26 4,9 C 75 % 1029,9 hPa 0,0 l/m 3,9 km/h (1 Bft) O-NO 67 1 min 0,000 mm 1,2 UV-I 243 W/m 0,8 C 4,9 C 6,4 km/h (2 Bft) 100,00 %
02.11.2015 10:27 4,9 C 74 % 1030,0 hPa 0,0 l/m 4,7 km/h (1 Bft) O-SO 111 1 min 0,000 mm 1,3 UV-I 267 W/m 0,7 C 4,9 C 6,4 km/h (2 Bft) 100,00 %
02.11.2015 10:28 4,9 C 75 % 1030,0 hPa 0,0 l/m 4,0 km/h (1 Bft) O-NO 67 1 min 0,000 mm 1,2 UV-I 261 W/m 0,8 C 4,9 C 4,8 km/h (1 Bft) 100,00 %
02.11.2015 10:29 4,9 C 75 % 1029,9 hPa 0,0 l/m 3,0 km/h (1 Bft) O-NO 70 1 min 0,000 mm 1,3 UV-I 292 W/m 0,8 C 4,9 C 4,8 km/h (1 Bft) 100,00 %
02.11.2015 10:30 5,0 C 75 % 1029,9 hPa 0,0 l/m 3,5 km/h (1 Bft) O 80 1 min 0,000 mm 1,3 UV-I 377 W/m 0,9 C 5,0 C 6,4 km/h (2 Bft) 100,00 %
02.11.2015 10:31 5,1 C 75 % 1029,9 hPa 0,0 l/m 4,5 km/h (1 Bft) O-SO 115 1 min 0,000 mm 1,4 UV-I 393 W/m 1,0 C 5,1 C 6,4 km/h (2 Bft) 100,00 %
02.11.2015 10:32 5,1 C 74 % 1029,9 hPa 0,0 l/m 5,0 km/h (1 Bft) O-SO 118 1 min 0,000 mm 1,4 UV-I 409 W/m 0,9 C 5,1 C 9,7 km/h (2 Bft) 100,00 %
02.11.2015 10:33 5,2 C 75 % 1030,0 hPa 0,0 l/m 3,1 km/h (1 Bft) O-SO 123 1 min 0,000 mm 1,4 UV-I 420 W/m 1,1 C 5,2 C 4,8 km/h (1 Bft) 96,15 %
02.11.2015 10:34 5,3 C 76 % 1030,0 hPa 0,0 l/m 2,7 km/h (1 Bft) NO 35 1 min 0,000 mm 1,4 UV-I 408 W/m 1,4 C 5,3 C 4,8 km/h (1 Bft) 95,83 %
02.11.2015 10:35 5,3 C 75 % 1030,0 hPa 0,0 l/m 2,7 km/h (1 Bft) O-NO 72 1 min 0,000 mm 1,4 UV-I 414 W/m 1,2 C 5,3 C 3,2 km/h (1 Bft) 100,00 %
02.11.2015 10:36 5,4 C 75 % 1029,9 hPa 0,0 l/m 4,3 km/h (1 Bft) O 79 1 min 0,000 mm 1,4 UV-I 368 W/m 1,3 C 5,4 C 6,4 km/h (2 Bft) 96,55 %
02.11.2015 10:37 5,4 C 74 % 1029,9 hPa 0,0 l/m 3,0 km/h (1 Bft) SO 126 1 min 0,000 mm 1,4 UV-I 330 W/m 1,1 C 5,4 C 4,8 km/h (1 Bft) 95,83 %
02.11.2015 10:38 5,5 C 74 % 1029,9 hPa 0,0 l/m 3,6 km/h (1 Bft) O-NO 71 1 min 0,000 mm 1,3 UV-I 294 W/m 1,2 C 5,5 C 6,4 km/h (2 Bft) 100,00 %
02.11.2015 10:39 5,5 C 74 % 1029,9 hPa 0,0 l/m 1,3 km/h (1 Bft) O 90 1 min 0,000 mm 1,3 UV-I 272 W/m 1,2 C 5,5 C 4,8 km/h (1 Bft) 100,00 %
02.11.2015 10:40 5,5 C 73 % 1029,9 hPa 0,0 l/m 4,3 km/h (1 Bft) O-NO 68 1 min 0,000 mm 1,4 UV-I 257 W/m 1,1 C 5,5 C 6,4 km/h (2 Bft) 100,00 %
02.11.2015 10:41 5,5 C 73 % 1029,9 hPa 0,0 l/m 5,4 km/h (1 Bft) NO 46 1 min 0,000 mm 1,4 UV-I 370 W/m 1,1 C 5,5 C 8,0 km/h (2 Bft) 100,00 %
02.11.2015 10:42 5,4 C 73 % 1029,8 hPa 0,0 l/m 7,3 km/h (2 Bft) O-NO 65 1 min 0,000 mm 1,3 UV-I 292 W/m 1,0 C 4,6 C 9,7 km/h (2 Bft) 100,00 %
02.11.2015 10:43 5,5 C 72 % 1029,8 hPa 0,0 l/m 3,8 km/h (1 Bft) NO 52 1 min 0,000 mm 1,4 UV-I 369 W/m 0,9 C 5,5 C 6,4 km/h (2 Bft) 100,00 %
02.11.2015 10:44 5,6 C 74 % 1029,8 hPa 0,0 l/m 3,9 km/h (1 Bft) O 93 1 min 0,000 mm 1,5 UV-I 403 W/m 1,3 C 5,6 C 6,4 km/h (2 Bft) 100,00 %
02.11.2015 10:45 5,6 C 72 % 1029,8 hPa 0,0 l/m 4,7 km/h (1 Bft) O-NO 61 1 min 0,000 mm 1,5 UV-I 433 W/m 1,0 C 5,6 C 9,7 km/h (2 Bft) 100,00 %
02.11.2015 10:46 5,7 C 73 % 1029,8 hPa 0,0 l/m 2,9 km/h (1 Bft) SO 133 1 min 0,000 mm 1,5 UV-I 451 W/m 1,2 C 5,7 C 4,8 km/h (1 Bft) 100,00 %
02.11.2015 10:47 5,8 C 73 % 1029,8 hPa 0,0 l/m 1,8 km/h (1 Bft) O 93 1 min 0,000 mm 1,5 UV-I 446 W/m 1,3 C 5,8 C 3,2 km/h (1 Bft) 100,00 %
02.11.2015 10:48 5,9 C 72 % 1029,8 hPa 0,0 l/m 5,5 km/h (1 Bft) O-SO 102 1 min 0,000 mm 1,5 UV-I 436 W/m 1,2 C 5,9 C 8,0 km/h (2 Bft) 100,00 %
02.11.2015 10:49 5,9 C 71 % 1029,8 hPa 0,0 l/m 5,3 km/h (1 Bft) O-SO 113 1 min 0,000 mm 1,5 UV-I 413 W/m 1,1 C 5,9 C 8,0 km/h (2 Bft) 100,00 %
02.11.2015 10:50 5,9 C 72 % 1029,8 hPa 0,0 l/m 4,2 km/h (1 Bft) O 79 1 min 0,000 mm 1,5 UV-I 419 W/m 1,2 C 5,9 C 4,8 km/h (1 Bft) 100,00 %
02.11.2015 10:51 5,9 C 71 % 1029,8 hPa 0,0 l/m 5,8 km/h (2 Bft) O-NO 76 1 min 0,000 mm 1,5 UV-I 424 W/m 1,1 C 5,9 C 9,7 km/h (2 Bft) 100,00 %
02.11.2015 10:52 5,9 C 71 % 1029,8 hPa 0,0 l/m 4,4 km/h (1 Bft) O-SO 103 1 min 0,000 mm 1,5 UV-I 436 W/m 1,1 C 5,9 C 6,4 km/h (2 Bft) 100,00 %
02.11.2015 10:53 5,9 C 71 % 1029,8 hPa 0,0 l/m 3,2 km/h (1 Bft) O-NO 73 1 min 0,000 mm 1,6 UV-I 455 W/m 1,1 C 5,9 C 4,8 km/h (1 Bft) 100,00 %
02.11.2015 10:54 5,9 C 72 % 1029,8 hPa 0,0 l/m 0,8 km/h (0 Bft) O-NO 69 1 min 0,000 mm 1,6 UV-I 459 W/m 1,2 C 5,9 C 3,2 km/h (1 Bft) 100,00 %
02.11.2015 10:55 6,0 C 72 % 1029,8 hPa 0,0 l/m 1,7 km/h (1 Bft) O-SO 111 1 min 0,000 mm 1,6 UV-I 459 W/m 1,3 C 6,0 C 4,8 km/h (1 Bft) 95,83 %
02.11.2015 10:56 6,1 C 72 % 1029,8 hPa 0,0 l/m 4,4 km/h (1 Bft) O 88 1 min 0,000 mm 1,6 UV-I 459 W/m 1,4 C 6,1 C 6,4 km/h (2 Bft) 100,00 %
02.11.2015 10:57 6,2 C 72 % 1029,8 hPa 0,0 l/m 2,3 km/h (1 Bft) O 89 1 min 0,000 mm 1,6 UV-I 461 W/m 1,5 C 6,2 C 3,2 km/h (1 Bft) 100,00 %
02.11.2015 10:58 6,3 C 73 % 1029,7 hPa 0,0 l/m 0,8 km/h (0 Bft) O 91 1 min 0,000 mm 1,6 UV-I 461 W/m 1,8 C 6,3 C 1,6 km/h (1 Bft) 100,00 %
02.11.2015 10:59 6,5 C 73 % 1029,7 hPa 0,0 l/m 3,5 km/h (1 Bft) O-SO 123 1 min 0,000 mm 1,6 UV-I 462 W/m 2,0 C 6,5 C 6,4 km/h (2 Bft) 96,55 %
02.11.2015 11:00 6,5 C 70 % 1029,7 hPa 0,0 l/m 3,6 km/h (1 Bft) O 92 1 min 0,000 mm 1,7 UV-I 464 W/m 1,4 C 6,5 C 6,4 km/h (2 Bft) 100,00 %
02.11.2015 11:01 6,4 C 70 % 1029,7 hPa 0,0 l/m 2,6 km/h (1 Bft) O-SO 119 1 min 0,152 mm 1,7 UV-I 465 W/m 1,3 C 6,4 C 3,2 km/h (1 Bft) 100,00 %
02.11.2015 11:02 6,4 C 70 % 1029,7 hPa 0,0 l/m 2,1 km/h (1 Bft) O-SO 119 1 min 0,000 mm 1,7 UV-I 466 W/m 1,3 C 6,4 C 4,8 km/h (1 Bft) 100,00 %
02.11.2015 11:03 6,5 C 73 % 1029,7 hPa 0,0 l/m 0,7 km/h (0 Bft) O-SO 117 1 min 0,000 mm 1,7 UV-I 466 W/m 2,0 C 6,5 C 1,6 km/h (1 Bft) 100,00 %
02.11.2015 11:05 6,7 C 71 % 1029,7 hPa 0,0 l/m 4,3 km/h (1 Bft) O-SO 113 2 min 0,000 mm 1,7 UV-I 466 W/m 1,8 C 6,7 C 6,4 km/h (2 Bft) 100,00 %
02.11.2015 11:06 6,7 C 71 % 1029,8 hPa 0,0 l/m 1,0 km/h (0 Bft) O-SO 113 1 min 0,000 mm 1,7 UV-I 463 W/m 1,8 C 6,7 C 1,6 km/h (1 Bft) 100,00 %
02.11.2015 11:07 6,8 C 70 % 1029,7 hPa 0,0 l/m 0,3 km/h (0 Bft) O-SO 113 1 min 0,000 mm 1,7 UV-I 466 W/m 1,7 C 6,8 C 1,6 km/h (1 Bft) 100,00 %
02.11.2015 11:09 7,0 C 71 % 1029,7 hPa 0,0 l/m 2,0 km/h (1 Bft) O-SO 119 2 min 0,000 mm 1,7 UV-I 466 W/m 2,1 C 7,0 C 4,8 km/h (1 Bft) 100,00 %
02.11.2015 11:10 7,0 C 71 % 1029,7 hPa 0,0 l/m 3,2 km/h (1 Bft) O-SO 111 1 min 0,000 mm 1,7 UV-I 468 W/m 2,1 C 7,0 C 4,8 km/h (1 Bft) 95,83 %
02.11.2015 11:11 6,9 C 68 % 1029,7 hPa 0,0 l/m 0,9 km/h (0 Bft) O 94 1 min 0,000 mm 1,7 UV-I 468 W/m 1,4 C 6,9 C 3,2 km/h (1 Bft) 100,00 %
02.11.2015 11:12 6,9 C 70 % 1029,7 hPa 0,0 l/m 2,2 km/h (1 Bft) O-NO 68 1 min 0,000 mm 1,7 UV-I 468 W/m 1,8 C 6,9 C 3,2 km/h (1 Bft) 100,00 %
02.11.2015 11:13 6,9 C 70 % 1029,6 hPa 0,0 l/m 3,0 km/h (1 Bft) O-SO 105 1 min 0,000 mm 1,7 UV-I 469 W/m 1,8 C 6,9 C 4,8 km/h (1 Bft) 100,00 %
02.11.2015 11:15 7,1 C 69 % 1029,7 hPa 0,0 l/m 1,6 km/h (1 Bft) O 90 2 min 0,000 mm 1,7 UV-I 469 W/m 1,8 C 7,1 C 4,8 km/h (1 Bft) 100,00 %
02.11.2015 11:17 7,1 C 67 % 1029,6 hPa 0,0 l/m 1,8 km/h (1 Bft) O 80 2 min 0,000 mm 1,7 UV-I 470 W/m 1,4 C 7,1 C 3,2 km/h (1 Bft) 100,00 %
02.11.2015 11:18 7,1 C 69 % 1029,6 hPa 0,0 l/m 1,5 km/h (1 Bft) O-NO 75 1 min 0,000 mm 1,7 UV-I 474 W/m 1,8 C 7,1 C 3,2 km/h (1 Bft) 100,00 %
02.11.2015 11:19 7,3 C 72 % 1029,6 hPa 0,0 l/m 0,7 km/h (0 Bft) O-SO 102 1 min 0,000 mm 1,7 UV-I 469 W/m 2,6 C 7,3 C 1,6 km/h (1 Bft) 100,00 %
02.11.2015 11:20 7,4 C 68 % 1029,6 hPa 0,0 l/m 2,4 km/h (1 Bft) O 98 1 min 0,000 mm 1,7 UV-I 470 W/m 1,9 C 7,4 C 4,8 km/h (1 Bft) 100,00 %
02.11.2015 11:21 7,4 C 67 % 1029,6 hPa 0,0 l/m 5,0 km/h (1 Bft) SO 135 1 min 0,000 mm 1,7 UV-I 471 W/m 1,7 C 7,4 C 6,4 km/h (2 Bft) 100,00 %
02.11.2015 11:22 7,3 C 68 % 1029,6 hPa 0,0 l/m 5,6 km/h (1 Bft) O 101 1 min 0,000 mm 1,7 UV-I 469 W/m 1,8 C 7,3 C 9,7 km/h (2 Bft) 100,00 %
02.11.2015 11:23 7,3 C 69 % 1029,6 hPa 0,0 l/m 3,9 km/h (1 Bft) O-SO 114 1 min 0,000 mm 1,7 UV-I 469 W/m 2,0 C 7,3 C 4,8 km/h (1 Bft) 100,00 %
02.11.2015 11:24 7,2 C 67 % 1029,5 hPa 0,0 l/m 2,8 km/h (1 Bft) S-SO 152 1 min 0,000 mm 1,7 UV-I 471 W/m 1,5 C 7,2 C 4,8 km/h (1 Bft) 95,65 %
02.11.2015 11:25 7,0 C 66 % 1029,5 hPa 0,0 l/m 0,6 km/h (0 Bft) S-SO 152 1 min 0,000 mm 1,7 UV-I 472 W/m 1,1 C 7,0 C 1,6 km/h (1 Bft) 100,00 %
02.11.2015 11:26 6,9 C 68 % 1029,5 hPa 0,0 l/m 0,7 km/h (0 Bft) S-SO 152 1 min 0,000 mm 1,7 UV-I 472 W/m 1,4 C 6,9 C 1,6 km/h (1 Bft) 100,00 %
02.11.2015 11:27 6,9 C 68 % 1029,6 hPa 0,0 l/m 0,0 km/h (0 Bft) S-SO 152 1 min 0,000 mm 1,7 UV-I 471 W/m 1,4 C 6,9 C 0,0 km/h (0 Bft) 100,00 %
02.11.2015 11:28 6,9 C 69 % 1029,5 hPa 0,0 l/m 0,0 km/h (0 Bft) S-SO 152 1 min 0,000 mm 1,7 UV-I 471 W/m 1,6 C 6,9 C 0,0 km/h (0 Bft) 95,65 %
02.11.2015 11:29 7,1 C 70 % 1029,5 hPa 0,0 l/m 0,9 km/h (0 Bft) SO 146 1 min 0,000 mm 1,8 UV-I 472 W/m 2,0 C 7,1 C 1,6 km/h (1 Bft) 100,00 %
02.11.2015 11:30 7,2 C 70 % 1029,5 hPa 0,0 l/m 1,4 km/h (1 Bft) NO 46 1 min 0,000 mm 1,8 UV-I 472 W/m 2,1 C 7,2 C 3,2 km/h (1 Bft) 100,00 %
02.11.2015 11:31 7,3 C 69 % 1029,5 hPa 0,0 l/m 2,7 km/h (1 Bft) SO 132 1 min 0,000 mm 1,8 UV-I 472 W/m 2,0 C 7,3 C 4,8 km/h (1 Bft) 100,00 %
02.11.2015 11:32 7,3 C 67 % 1029,5 hPa 0,0 l/m 3,3 km/h (1 Bft) O-SO 123 1 min 0,000 mm 1,8 UV-I 472 W/m 1,6 C 7,3 C 4,8 km/h (1 Bft) 100,00 %
02.11.2015 11:33 7,3 C 67 % 1029,5 hPa 0,0 l/m 3,8 km/h (1 Bft) O-SO 114 1 min 0,000 mm 1,8 UV-I 475 W/m 1,6 C 7,3 C 6,4 km/h (2 Bft) 100,00 %
02.11.2015 11:34 7,2 C 68 % 1029,5 hPa 0,0 l/m 0,8 km/h (0 Bft) O-SO 113 1 min 0,000 mm 1,8 UV-I 476 W/m 1,7 C 7,2 C 1,6 km/h (1 Bft) 99,23 %
02.11.2015 11:35 7,2 C 68 % 1029,5 hPa 0,0 l/m 0,0 km/h (0 Bft) O-SO 113 1 min 0,000 mm 1,8 UV-I 475 W/m 1,7 C 7,2 C 0,0 km/h (0 Bft) 97,37 %
02.11.2015 11:36 7,3 C 72 % 1029,5 hPa 0,0 l/m 0,2 km/h (0 Bft) O-SO 113 1 min 0,000 mm 1,8 UV-I 475 W/m 2,6 C 7,3 C 1,6 km/h (1 Bft) 96,55 %
02.11.2015 11:37 7,4 C 69 % 1029,5 hPa 0,0 l/m 0,9 km/h (0 Bft) N-NO 27 1 min 0,000 mm 1,8 UV-I 475 W/m 2,1 C 7,4 C 3,2 km/h (1 Bft) 95,83 %
02.11.2015 11:38 7,6 C 69 % 1029,5 hPa 0,0 l/m 2,0 km/h (1 Bft) O-NO 71 1 min 0,000 mm 1,8 UV-I 476 W/m 2,3 C 7,6 C 3,2 km/h (1 Bft) 100,00 %
02.11.2015 11:39 7,7 C 69 % 1029,4 hPa 0,0 l/m 2,3 km/h (1 Bft) O 86 1 min 0,000 mm 1,8 UV-I 476 W/m 2,4 C 7,7 C 6,4 km/h (2 Bft) 100,00 %
02.11.2015 11:40 7,7 C 67 % 1029,5 hPa 0,0 l/m 3,9 km/h (1 Bft) N-NO 33 1 min 0,000 mm 1,8 UV-I 476 W/m 2,0 C 7,7 C 6,4 km/h (2 Bft) 100,00 %
02.11.2015 11:41 7,8 C 69 % 1029,5 hPa 0,0 l/m 2,7 km/h (1 Bft) NO 40 1 min 0,000 mm 1,8 UV-I 478 W/m 2,5 C 7,8 C 4,8 km/h (1 Bft) 100,00 %
02.11.2015 11:42 7,8 C 68 % 1029,5 hPa 0,0 l/m 1,6 km/h (1 Bft) NO 51 1 min 0,000 mm 1,8 UV-I 477 W/m 2,3 C 7,8 C 3,2 km/h (1 Bft) 100,00 %
02.11.2015 11:43 7,9 C 67 % 1029,5 hPa 0,0 l/m 2,8 km/h (1 Bft) NO 34 1 min 0,000 mm 1,8 UV-I 479 W/m 2,2 C 7,9 C 4,8 km/h (1 Bft) 100,00 %
02.11.2015 11:44 8,1 C 69 % 1029,4 hPa 0,0 l/m 3,2 km/h (1 Bft) NO 36 1 min 0,000 mm 1,8 UV-I 481 W/m 2,8 C 8,1 C 4,8 km/h (1 Bft) 100,00 %
02.11.2015 11:45 8,1 C 68 % 1029,4 hPa 0,0 l/m 2,0 km/h (1 Bft) O-NO 63 1 min 0,000 mm 1,8 UV-I 482 W/m 2,6 C 8,1 C 3,2 km/h (1 Bft) 100,00 %
02.11.2015 11:46 8,1 C 70 % 1029,4 hPa 0,0 l/m 3,0 km/h (1 Bft) O 88 1 min 0,000 mm 1,8 UV-I 482 W/m 3,0 C 8,1 C 4,8 km/h (1 Bft) 100,00 %
02.11.2015 11:47 8,1 C 67 % 1029,4 hPa 0,0 l/m 3,1 km/h (1 Bft) NO 38 1 min 0,000 mm 1,8 UV-I 484 W/m 2,3 C 8,1 C 4,8 km/h (1 Bft) 100,00 %
02.11.2015 11:48 8,2 C 67 % 1029,4 hPa 0,0 l/m 1,5 km/h (1 Bft) O 98 1 min 0,000 mm 1,8 UV-I 485 W/m 2,4 C 8,2 C 3,2 km/h (1 Bft) 100,00 %
02.11.2015 11:49 8,2 C 68 % 1029,4 hPa 0,0 l/m 1,3 km/h (1 Bft) N-NO 28 1 min 0,000 mm 1,8 UV-I 485 W/m 2,7 C 8,2 C 3,2 km/h (1 Bft) 100,00 %
02.11.2015 11:50 8,2 C 67 % 1029,3 hPa 0,0 l/m 1,8 km/h (1 Bft) O-NO 78 1 min 0,000 mm 1,8 UV-I 485 W/m 2,4 C 8,2 C 3,2 km/h (1 Bft) 100,00 %
02.11.2015 11:51 8,2 C 66 % 1029,3 hPa 0,0 l/m 2,5 km/h (1 Bft) O 96 1 min 0,000 mm 1,8 UV-I 485 W/m 2,2 C 8,2 C 3,2 km/h (1 Bft) 100,00 %
02.11.2015 11:52 8,2 C 65 % 1029,3 hPa 0,0 l/m 1,3 km/h (1 Bft) O 96 1 min 0,000 mm 1,8 UV-I 485 W/m 2,0 C 8,2 C 3,2 km/h (1 Bft) 100,00 %
02.11.2015 11:53 8,3 C 68 % 1029,3 hPa 0,0 l/m 1,3 km/h (1 Bft) O-SO 115 1 min 0,000 mm 1,8 UV-I 485 W/m 2,7 C 8,3 C 4,8 km/h (1 Bft) 100,00 %
02.11.2015 11:55 8,3 C 68 % 1029,3 hPa 0,0 l/m 1,6 km/h (1 Bft) O 90 2 min 0,000 mm 1,8 UV-I 485 W/m 2,7 C 8,3 C 4,8 km/h (1 Bft) 100,00 %
02.11.2015 11:57 8,3 C 65 % 1029,3 hPa 0,0 l/m 0,3 km/h (0 Bft) O-SO 105 2 min 0,000 mm 1,8 UV-I 482 W/m 2,1 C 8,3 C 1,6 km/h (1 Bft) 97,83 %
02.11.2015 11:58 8,3 C 66 % 1029,3 hPa 0,0 l/m 0,4 km/h (0 Bft) O-SO 105 1 min 0,000 mm 1,8 UV-I 482 W/m 2,3 C 8,3 C 1,6 km/h (1 Bft) 95,65 %
02.11.2015 11:59 8,3 C 66 % 1029,3 hPa 0,0 l/m 0,7 km/h (0 Bft) O-NO 78 1 min 0,000 mm 1,8 UV-I 481 W/m 2,3 C 8,3 C 1,6 km/h (1 Bft) 95,83 %
02.11.2015 12:00 8,4 C 67 % 1029,3 hPa 0,0 l/m 3,0 km/h (1 Bft) O 90 1 min 0,000 mm 1,8 UV-I 478 W/m 2,6 C 8,4 C 4,8 km/h (1 Bft) 100,00 %
02.11.2015 12:01 8,6 C 66 % 1029,3 hPa 0,0 l/m 4,0 km/h (1 Bft) O 84 1 min 0,203 mm 1,7 UV-I 460 W/m 2,6 C 8,6 C 4,8 km/h (1 Bft) 100,00 %
02.11.2015 12:02 8,6 C 66 % 1029,3 hPa 0,0 l/m 2,8 km/h (1 Bft) O 81 1 min 0,000 mm 1,7 UV-I 427 W/m 2,6 C 8,6 C 4,8 km/h (1 Bft) 96,15 %
02.11.2015 12:03 8,7 C 64 % 1029,3 hPa 0,0 l/m 3,5 km/h (1 Bft) O 88 1 min 0,000 mm 1,6 UV-I 327 W/m 2,3 C 8,7 C 4,8 km/h (1 Bft) 95,83 %
02.11.2015 12:04 8,7 C 63 % 1029,3 hPa 0,0 l/m 3,7 km/h (1 Bft) O-NO 70 0 min 0,000 mm 1,5 UV-I 230 W/m 2,1 C 8,7 C 4,8 km/h (1 Bft) 95,65 %
02.11.2015 12:05 8,6 C 64 % 1029,2 hPa 0,0 l/m 3,4 km/h (1 Bft) O 98 0 min 0,000 mm 1,6 UV-I 252 W/m 2,2 C 8,6 C 4,8 km/h (1 Bft) 100,00 %
02.11.2015 12:06 8,6 C 64 % 1029,3 hPa 0,0 l/m 3,0 km/h (1 Bft) O-NO 71 1 min 0,000 mm 1,5 UV-I 295 W/m 2,2 C 8,6 C 4,8 km/h (1 Bft) 100,00 %
02.11.2015 12:07 8,6 C 65 % 1029,3 hPa 0,0 l/m 4,0 km/h (1 Bft) O-SO 103 1 min 0,000 mm 1,7 UV-I 399 W/m 2,4 C 8,6 C 4,8 km/h (1 Bft) 100,00 %
02.11.2015 12:08 8,7 C 65 % 1029,2 hPa 0,0 l/m 1,7 km/h (1 Bft) O-SO 104 1 min 0,000 mm 1,7 UV-I 479 W/m 2,5 C 8,7 C 3,2 km/h (1 Bft) 100,00 %
02.11.2015 12:09 8,7 C 65 % 1029,2 hPa 0,0 l/m 3,4 km/h (1 Bft) O 97 1 min 0,000 mm 1,7 UV-I 485 W/m 2,5 C 8,7 C 9,7 km/h (2 Bft) 96,15 %
02.11.2015 12:10 8,8 C 63 % 1029,2 hPa 0,0 l/m 5,2 km/h (1 Bft) O 101 1 min 0,000 mm 1,7 UV-I 483 W/m 2,2 C 8,8 C 9,7 km/h (2 Bft) 100,00 %
02.11.2015 12:11 8,8 C 64 % 1029,2 hPa 0,0 l/m 2,3 km/h (1 Bft) O-NO 61 1 min 0,000 mm 1,7 UV-I 483 W/m 2,4 C 8,8 C 4,8 km/h (1 Bft) 100,00 %
02.11.2015 12:12 8,9 C 65 % 1029,2 hPa 0,0 l/m 3,9 km/h (1 Bft) O 93 1 min 0,000 mm 1,7 UV-I 481 W/m 2,7 C 8,9 C 6,4 km/h (2 Bft) 100,00 %
02.11.2015 12:13 9,0 C 63 % 1029,2 hPa 0,0 l/m 3,8 km/h (1 Bft) O-NO 78 1 min 0,000 mm 1,7 UV-I 478 W/m 2,3 C 9,0 C 4,8 km/h (1 Bft) 92,31 %
02.11.2015 12:14 9,0 C 63 % 1029,2 hPa 0,0 l/m 4,8 km/h (1 Bft) O 96 1 min 0,000 mm 1,7 UV-I 480 W/m 2,3 C 9,0 C 6,4 km/h (2 Bft) 100,00 %
02.11.2015 12:15 9,0 C 62 % 1029,1 hPa 0,0 l/m 4,2 km/h (1 Bft) O 98 1 min 0,000 mm 1,7 UV-I 478 W/m 2,1 C 9,0 C 6,4 km/h (2 Bft) 96,55 %
02.11.2015 12:16 9,1 C 63 % 1029,1 hPa 0,0 l/m 5,9 km/h (2 Bft) O-NO 78 1 min 0,000 mm 1,7 UV-I 478 W/m 2,4 C 9,1 C 9,7 km/h (2 Bft) 100,00 %
02.11.2015 12:17 9,2 C 66 % 1029,1 hPa 0,0 l/m 1,4 km/h (1 Bft) N-NO 30 1 min 0,000 mm 1,7 UV-I 476 W/m 3,2 C 9,2 C 3,2 km/h (1 Bft) 100,00 %
02.11.2015 12:18 9,3 C 64 % 1029,1 hPa 0,0 l/m 1,7 km/h (1 Bft) O 93 1 min 0,000 mm 1,7 UV-I 476 W/m 2,8 C 9,3 C 3,2 km/h (1 Bft) 95,83 %
02.11.2015 12:19 9,4 C 62 % 1029,1 hPa 0,0 l/m 5,6 km/h (1 Bft) O 100 1 min 0,000 mm 1,7 UV-I 476 W/m 2,5 C 9,4 C 9,7 km/h (2 Bft) 100,00 %
02.11.2015 12:20 9,3 C 61 % 1029,1 hPa 0,0 l/m 5,6 km/h (1 Bft) O 82 1 min 0,000 mm 1,7 UV-I 475 W/m 2,2 C 9,3 C 6,4 km/h (2 Bft) 100,00 %
02.11.2015 12:21 9,3 C 62 % 1029,2 hPa 0,0 l/m 4,4 km/h (1 Bft) NO 53 1 min 0,000 mm 1,7 UV-I 475 W/m 2,4 C 9,3 C 6,4 km/h (2 Bft) 99,18 %
02.11.2015 12:22 9,3 C 62 % 1029,1 hPa 0,0 l/m 2,3 km/h (1 Bft) O-SO 109 1 min 0,000 mm 1,7 UV-I 474 W/m 2,4 C 9,3 C 3,2 km/h (1 Bft) 100,00 %
02.11.2015 12:23 9,4 C 64 % 1029,1 hPa 0,0 l/m 3,8 km/h (1 Bft) O 83 1 min 0,000 mm 1,7 UV-I 473 W/m 2,9 C 9,4 C 4,8 km/h (1 Bft) 95,83 %
02.11.2015 12:24 9,3 C 62 % 1029,1 hPa 0,0 l/m 2,7 km/h (1 Bft) O-NO 78 1 min 0,000 mm 1,7 UV-I 473 W/m 2,4 C 9,3 C 4,8 km/h (1 Bft) 100,00 %
02.11.2015 12:25 9,3 C 62 % 1029,1 hPa 0,0 l/m 3,0 km/h (1 Bft) O-NO 74 1 min 0,000 mm 1,7 UV-I 472 W/m 2,4 C 9,3 C 4,8 km/h (1 Bft) 100,00 %
02.11.2015 12:26 9,3 C 61 % 1029,1 hPa 0,0 l/m 2,4 km/h (1 Bft) O 88 1 min 0,000 mm 1,7 UV-I 471 W/m 2,2 C 9,3 C 4,8 km/h (1 Bft) 100,00 %
02.11.2015 12:27 9,4 C 64 % 1029,0 hPa 0,0 l/m 3,0 km/h (1 Bft) O 101 1 min 0,000 mm 1,7 UV-I 471 W/m 2,9 C 9,4 C 4,8 km/h (1 Bft) 100,00 %
02.11.2015 12:28 9,6 C 64 % 1029,0 hPa 0,0 l/m 2,7 km/h (1 Bft) O-NO 73 1 min 0,000 mm 1,7 UV-I 469 W/m 3,1 C 9,6 C 4,8 km/h (1 Bft) 100,00 %
02.11.2015 12:29 9,6 C 63 % 1029,0 hPa 0,0 l/m 3,9 km/h (1 Bft) O-SO 105 1 min 0,000 mm 1,7 UV-I 469 W/m 2,9 C 9,6 C 6,4 km/h (2 Bft) 100,00 %
02.11.2015 12:30 9,6 C 62 % 1028,9 hPa 0,0 l/m 5,3 km/h (1 Bft) O-NO 78 1 min 0,000 mm 1,7 UV-I 469 W/m 2,7 C 9,6 C 9,7 km/h (2 Bft) 100,00 %
02.11.2015 12:31 9,7 C 61 % 1028,9 hPa 0,0 l/m 4,0 km/h (1 Bft) O-NO 75 1 min 0,000 mm 1,7 UV-I 468 W/m 2,5 C 9,7 C 8,0 km/h (2 Bft) 100,00 %
02.11.2015 12:32 9,7 C 61 % 1028,9 hPa 0,0 l/m 5,0 km/h (1 Bft) O 99 1 min 0,000 mm 1,7 UV-I 468 W/m 2,5 C 9,7 C 6,4 km/h (2 Bft) 100,00 %
02.11.2015 12:33 9,7 C 61 % 1028,9 hPa 0,0 l/m 3,6 km/h (1 Bft) O 86 1 min 0,000 mm 1,6 UV-I 466 W/m 2,5 C 9,7 C 6,4 km/h (2 Bft) 100,00 %
02.11.2015 12:34 9,7 C 61 % 1028,9 hPa 0,0 l/m 3,1 km/h (1 Bft) O-NO 72 1 min 0,000 mm 1,6 UV-I 465 W/m 2,5 C 9,7 C 4,8 km/h (1 Bft) 100,00 %
02.11.2015 12:35 9,7 C 61 % 1028,8 hPa 0,0 l/m 3,6 km/h (1 Bft) O 88 1 min 0,000 mm 1,6 UV-I 464 W/m 2,5 C 9,7 C 6,4 km/h (2 Bft) 100,00 %
02.11.2015 12:36 9,7 C 61 % 1028,8 hPa 0,0 l/m 2,3 km/h (1 Bft) O-NO 78 1 min 0,000 mm 1,6 UV-I 463 W/m 2,5 C 9,7 C 4,8 km/h (1 Bft) 100,00 %
02.11.2015 12:37 9,7 C 60 % 1028,8 hPa 0,0 l/m 2,8 km/h (1 Bft) O 86 1 min 0,000 mm 1,6 UV-I 463 W/m 2,3 C 9,7 C 4,8 km/h (1 Bft) 100,00 %
02.11.2015 12:38 9,7 C 61 % 1028,8 hPa 0,0 l/m 1,0 km/h (0 Bft) O 86 1 min 0,000 mm 1,6 UV-I 462 W/m 2,5 C 9,7 C 1,6 km/h (1 Bft) 100,00 %
02.11.2015 12:39 9,8 C 61 % 1028,8 hPa 0,0 l/m 0,5 km/h (0 Bft) NO 51 1 min 0,000 mm 1,6 UV-I 429 W/m 2,6 C 9,8 C 3,2 km/h (1 Bft) 100,00 %
02.11.2015 12:40 9,8 C 61 % 1028,8 hPa 0,0 l/m 1,8 km/h (1 Bft) NO 38 1 min 0,000 mm 1,6 UV-I 446 W/m 2,6 C 9,8 C 3,2 km/h (1 Bft) 100,00 %
02.11.2015 12:41 9,8 C 61 % 1028,8 hPa 0,0 l/m 2,6 km/h (1 Bft) N 355 1 min 0,000 mm 1,6 UV-I 460 W/m 2,6 C 9,8 C 4,8 km/h (1 Bft) 100,00 %
02.11.2015 12:42 9,8 C 65 % 1028,7 hPa 0,0 l/m 3,1 km/h (1 Bft) O 95 1 min 0,000 mm 1,6 UV-I 456 W/m 3,5 C 9,8 C 4,8 km/h (1 Bft) 100,00 %
02.11.2015 12:43 9,9 C 62 % 1028,7 hPa 0,0 l/m 2,4 km/h (1 Bft) NO 54 1 min 0,000 mm 1,6 UV-I 458 W/m 3,0 C 9,9 C 4,8 km/h (1 Bft) 95,65 %
02.11.2015 12:44 9,9 C 60 % 1028,6 hPa 0,0 l/m 3,8 km/h (1 Bft) O-SO 105 1 min 0,000 mm 1,6 UV-I 459 W/m 2,5 C 9,9 C 9,7 km/h (2 Bft) 100,00 %
02.11.2015 12:45 9,9 C 59 % 1028,7 hPa 0,0 l/m 3,1 km/h (1 Bft) O-SO 118 1 min 0,000 mm 1,6 UV-I 457 W/m 2,3 C 9,9 C 4,8 km/h (1 Bft) 100,00 %
02.11.2015 12:46 10,1 C 61 % 1028,6 hPa 0,0 l/m 6,0 km/h (2 Bft) O 84 1 min 0,000 mm 1,6 UV-I 459 W/m 2,9 C 10,1 C 11,3 km/h (2 Bft) 95,83 %
02.11.2015 12:47 10,1 C 60 % 1028,6 hPa 0,0 l/m 2,6 km/h (1 Bft) NO 49 1 min 0,000 mm 1,6 UV-I 457 W/m 2,7 C 10,1 C 6,4 km/h (2 Bft) 100,00 %
02.11.2015 12:48 10,2 C 64 % 1028,6 hPa 0,0 l/m 2,0 km/h (1 Bft) O-SO 102 1 min 0,000 mm 1,6 UV-I 458 W/m 3,7 C 10,2 C 3,2 km/h (1 Bft) 100,00 %
02.11.2015 12:49 10,2 C 63 % 1028,6 hPa 0,0 l/m 2,3 km/h (1 Bft) N-NO 20 1 min 0,000 mm 1,6 UV-I 458 W/m 3,5 C 10,2 C 3,2 km/h (1 Bft) 100,00 %
02.11.2015 12:50 10,3 C 62 % 1028,6 hPa 0,0 l/m 1,6 km/h (1 Bft) NO 45 1 min 0,000 mm 1,6 UV-I 457 W/m 3,3 C 10,3 C 3,2 km/h (1 Bft) 100,00 %
02.11.2015 12:51 10,3 C 62 % 1028,6 hPa 0,0 l/m 2,4 km/h (1 Bft) N 5 1 min 0,000 mm 1,6 UV-I 457 W/m 3,3 C 10,3 C 3,2 km/h (1 Bft) 100,00 %
02.11.2015 12:52 10,2 C 60 % 1028,6 hPa 0,0 l/m 4,0 km/h (1 Bft) N-NO 20 1 min 0,000 mm 1,6 UV-I 459 W/m 2,8 C 10,2 C 4,8 km/h (1 Bft) 100,00 %
02.11.2015 12:53 10,3 C 65 % 1028,6 hPa 0,0 l/m 4,1 km/h (1 Bft) O 91 1 min 0,000 mm 1,6 UV-I 458 W/m 4,0 C 10,3 C 6,4 km/h (2 Bft) 100,00 %
02.11.2015 12:54 10,4 C 61 % 1028,6 hPa 0,0 l/m 4,2 km/h (1 Bft) O 101 1 min 0,000 mm 1,5 UV-I 451 W/m 3,2 C 10,4 C 6,4 km/h (2 Bft) 100,00 %
02.11.2015 12:55 10,4 C 60 % 1028,6 hPa 0,0 l/m 3,5 km/h (1 Bft) O-SO 110 1 min 0,000 mm 1,5 UV-I 429 W/m 3,0 C 10,4 C 6,4 km/h (2 Bft) 100,00 %
02.11.2015 12:56 10,4 C 59 % 1028,6 hPa 0,0 l/m 4,6 km/h (1 Bft) O 99 1 min 0,000 mm 1,5 UV-I 448 W/m 2,7 C 10,4 C 6,4 km/h (2 Bft) 100,00 %
02.11.2015 12:57 10,4 C 59 % 1028,6 hPa 0,0 l/m 1,8 km/h (1 Bft) N-NO 29 1 min 0,000 mm 1,5 UV-I 449 W/m 2,7 C 10,4 C 3,2 km/h (1 Bft) 100,00 %
02.11.2015 12:58 10,4 C 59 % 1028,6 hPa 0,0 l/m 2,4 km/h (1 Bft) O-SO 105 1 min 0,000 mm 1,5 UV-I 460 W/m 2,7 C 10,4 C 4,8 km/h (1 Bft) 100,00 %
02.11.2015 12:59 10,3 C 58 % 1028,6 hPa 0,0 l/m 2,9 km/h (1 Bft) O-SO 114 1 min 0,000 mm 1,5 UV-I 461 W/m 2,4 C 10,3 C 3,2 km/h (1 Bft) 100,00 %
02.11.2015 13:00 10,4 C 59 % 1028,6 hPa 0,0 l/m 2,5 km/h (1 Bft) O 98 1 min 0,229 mm 1,5 UV-I 461 W/m 2,7 C 10,4 C 4,8 km/h (1 Bft) 100,00 %
02.11.2015 13:01 10,4 C 58 % 1028,6 hPa 0,0 l/m 2,5 km/h (1 Bft) O 91 1 min 0,000 mm 1,5 UV-I 462 W/m 2,5 C 10,4 C 3,2 km/h (1 Bft) 100,00 %
02.11.2015 13:02 10,4 C 60 % 1028,6 hPa 0,0 l/m 1,5 km/h (1 Bft) O-NO 78 1 min 0,000 mm 1,5 UV-I 464 W/m 3,0 C 10,4 C 3,2 km/h (1 Bft) 100,00 %
02.11.2015 13:03 10,4 C 61 % 1028,5 hPa 0,0 l/m 2,1 km/h (1 Bft) O-NO 74 1 min 0,000 mm 1,5 UV-I 466 W/m 3,2 C 10,4 C 3,2 km/h (1 Bft) 96,15 %
02.11.2015 13:04 10,6 C 60 % 1028,6 hPa 0,0 l/m 2,6 km/h (1 Bft) NO 44 1 min 0,000 mm 1,5 UV-I 466 W/m 3,2 C 10,6 C 3,2 km/h (1 Bft) 100,00 %
02.11.2015 13:05 10,6 C 61 % 1028,5 hPa 0,0 l/m 1,7 km/h (1 Bft) NO 39 1 min 0,000 mm 1,5 UV-I 466 W/m 3,4 C 10,6 C 3,2 km/h (1 Bft) 95,65 %
02.11.2015 13:06 10,6 C 61 % 1028,5 hPa 0,0 l/m 1,5 km/h (1 Bft) SO 130 1 min 0,000 mm 1,4 UV-I 468 W/m 3,4 C 10,6 C 1,6 km/h (1 Bft) 100,00 %
02.11.2015 13:07 10,6 C 57 % 1028,5 hPa 0,0 l/m 3,9 km/h (1 Bft) SO 128 1 min 0,000 mm 1,4 UV-I 469 W/m 2,4 C 10,6 C 4,8 km/h (1 Bft) 91,67 %
02.11.2015 13:08 10,3 C 56 % 1028,5 hPa 0,0 l/m 0,8 km/h (0 Bft) SO 128 1 min 0,000 mm 1,4 UV-I 470 W/m 1,9 C 10,3 C 3,2 km/h (1 Bft) 100,00 %
02.11.2015 13:09 10,2 C 57 % 1028,5 hPa 0,0 l/m 2,1 km/h (1 Bft) O-SO 117 1 min 0,000 mm 1,4 UV-I 452 W/m 2,1 C 10,2 C 3,2 km/h (1 Bft) 100,00 %
02.11.2015 13:10 10,2 C 58 % 1028,5 hPa 0,0 l/m 2,7 km/h (1 Bft) O-SO 118 1 min 0,000 mm 1,3 UV-I 432 W/m 2,3 C 10,2 C 4,8 km/h (1 Bft) 100,00 %
02.11.2015 13:11 10,3 C 59 % 1028,4 hPa 0,0 l/m 4,2 km/h (1 Bft) O-SO 111 1 min 0,000 mm 1,4 UV-I 462 W/m 2,6 C 10,3 C 6,4 km/h (2 Bft) 100,00 %
02.11.2015 13:12 10,4 C 61 % 1028,4 hPa 0,0 l/m 1,0 km/h (0 Bft) SO 131 1 min 0,000 mm 1,4 UV-I 475 W/m 3,2 C 10,4 C 1,6 km/h (1 Bft) 100,00 %
02.11.2015 13:13 10,6 C 62 % 1028,4 hPa 0,0 l/m 1,1 km/h (1 Bft) N 11 1 min 0,000 mm 1,3 UV-I 469 W/m 3,6 C 10,6 C 4,8 km/h (1 Bft) 100,00 %
02.11.2015 13:14 10,7 C 58 % 1028,5 hPa 0,0 l/m 2,2 km/h (1 Bft) NO 42 1 min 0,000 mm 1,3 UV-I 475 W/m 2,8 C 10,7 C 3,2 km/h (1 Bft) 100,00 %
02.11.2015 13:15 10,7 C 58 % 1028,5 hPa 0,0 l/m 3,3 km/h (1 Bft) NO 49 1 min 0,000 mm 1,3 UV-I 420 W/m 2,8 C 10,7 C 6,4 km/h (2 Bft) 100,00 %
02.11.2015 13:16 10,6 C 58 % 1028,5 hPa 0,0 l/m 3,1 km/h (1 Bft) N-NO 30 1 min 0,000 mm 1,2 UV-I 288 W/m 2,7 C 10,6 C 6,4 km/h (2 Bft) 100,00 %
02.11.2015 13:17 10,5 C 58 % 1028,5 hPa 0,0 l/m 1,9 km/h (1 Bft) NO 48 1 min 0,000 mm 1,2 UV-I 288 W/m 2,6 C 10,5 C 3,2 km/h (1 Bft) 100,00 %
02.11.2015 13:18 10,5 C 58 % 1028,4 hPa 0,0 l/m 3,0 km/h (1 Bft) N-NO 31 1 min 0,000 mm 1,3 UV-I 393 W/m 2,6 C 10,5 C 4,8 km/h (1 Bft) 100,00 %
02.11.2015 13:19 10,6 C 59 % 1028,4 hPa 0,0 l/m 2,0 km/h (1 Bft) O-NO 74 1 min 0,000 mm 1,3 UV-I 429 W/m 2,9 C 10,6 C 3,2 km/h (1 Bft) 100,00 %
02.11.2015 13:20 10,6 C 57 % 1028,4 hPa 0,0 l/m 4,8 km/h (1 Bft) O 85 1 min 0,000 mm 1,3 UV-I 466 W/m 2,4 C 10,6 C 6,4 km/h (2 Bft) 96,15 %
02.11.2015 13:21 10,7 C 57 % 1028,4 hPa 0,0 l/m 4,8 km/h (1 Bft) O-NO 68 1 min 0,000 mm 1,3 UV-I 460 W/m 2,5 C 10,7 C 6,4 km/h (2 Bft) 100,00 %
02.11.2015 13:22 10,7 C 57 % 1028,4 hPa 0,0 l/m 4,8 km/h (1 Bft) O 87 1 min 0,000 mm 1,3 UV-I 463 W/m 2,5 C 10,7 C 9,7 km/h (2 Bft) 100,00 %
02.11.2015 13:23 10,7 C 57 % 1028,4 hPa 0,0 l/m 4,6 km/h (1 Bft) O 86 1 min 0,000 mm 1,3 UV-I 452 W/m 2,5 C 10,7 C 6,4 km/h (2 Bft) 96,15 %
02.11.2015 13:24 10,7 C 57 % 1028,3 hPa 0,0 l/m 4,7 km/h (1 Bft) O 81 1 min 0,000 mm 1,3 UV-I 458 W/m 2,5 C 10,7 C 6,4 km/h (2 Bft) 100,00 %
02.11.2015 13:25 10,8 C 59 % 1028,3 hPa 0,0 l/m 1,7 km/h (1 Bft) O 96 1 min 0,000 mm 1,2 UV-I 392 W/m 3,1 C 10,8 C 3,2 km/h (1 Bft) 100,00 %
02.11.2015 13:26 10,8 C 58 % 1028,3 hPa 0,0 l/m 1,0 km/h (0 Bft) NO 51 1 min 0,000 mm 1,2 UV-I 377 W/m 2,9 C 10,8 C 3,2 km/h (1 Bft) 100,00 %
02.11.2015 13:27 10,7 C 60 % 1028,3 hPa 0,0 l/m 3,2 km/h (1 Bft) N-NO 27 1 min 0,000 mm 1,1 UV-I 367 W/m 3,3 C 10,7 C 4,8 km/h (1 Bft) 100,00 %
02.11.2015 13:28 10,7 C 58 % 1028,3 hPa 0,0 l/m 2,4 km/h (1 Bft) N 360 1 min 0,000 mm 1,3 UV-I 433 W/m 2,8 C 10,7 C 4,8 km/h (1 Bft) 100,00 %
02.11.2015 13:29 10,6 C 58 % 1028,4 hPa 0,0 l/m 2,4 km/h (1 Bft) N 355 1 min 0,000 mm 1,3 UV-I 406 W/m 2,7 C 10,6 C 3,2 km/h (1 Bft) 100,00 %
02.11.2015 13:30 10,7 C 62 % 1028,3 hPa 0,0 l/m 3,7 km/h (1 Bft) NO 42 1 min 0,000 mm 1,2 UV-I 371 W/m 3,7 C 10,7 C 6,4 km/h (2 Bft) 95,83 %
02.11.2015 13:31 10,7 C 61 % 1028,4 hPa 0,0 l/m 4,3 km/h (1 Bft) O 90 1 min 0,000 mm 1,2 UV-I 431 W/m 3,5 C 10,7 C 8,0 km/h (2 Bft) 100,00 %
02.11.2015 13:32 10,8 C 59 % 1028,4 hPa 0,0 l/m 2,4 km/h (1 Bft) NO 53 1 min 0,000 mm 1,2 UV-I 438 W/m 3,1 C 10,8 C 4,8 km/h (1 Bft) 100,00 %
02.11.2015 13:33 10,9 C 61 % 1028,4 hPa 0,0 l/m 1,2 km/h (1 Bft) NO 53 1 min 0,000 mm 1,2 UV-I 439 W/m 3,7 C 10,9 C 1,6 km/h (1 Bft) 100,00 %
02.11.2015 13:34 11,0 C 59 % 1028,4 hPa 0,0 l/m 1,8 km/h (1 Bft) NO 49 1 min 0,000 mm 1,2 UV-I 439 W/m 3,3 C 11,0 C 3,2 km/h (1 Bft) 100,00 %
02.11.2015 13:35 11,1 C 61 % 1028,4 hPa 0,0 l/m 2,2 km/h (1 Bft) N-NO 20 1 min 0,000 mm 1,2 UV-I 430 W/m 3,9 C 11,1 C 4,8 km/h (1 Bft) 100,00 %
02.11.2015 13:36 11,1 C 59 % 1028,3 hPa 0,0 l/m 6,2 km/h (2 Bft) O-NO 78 1 min 0,000 mm 1,2 UV-I 429 W/m 3,4 C 11,1 C 11,3 km/h (2 Bft) 100,00 %
02.11.2015 13:37 11,1 C 57 % 1028,3 hPa 0,0 l/m 5,2 km/h (1 Bft) O-SO 121 1 min 0,000 mm 1,2 UV-I 427 W/m 2,9 C 11,1 C 9,7 km/h (2 Bft) 91,30 %
02.11.2015 13:38 11,0 C 57 % 1028,3 hPa 0,0 l/m 4,0 km/h (1 Bft) O 96 1 min 0,000 mm 1,2 UV-I 431 W/m 2,8 C 11,0 C 4,8 km/h (1 Bft) 95,83 %
02.11.2015 13:39 11,0 C 59 % 1028,3 hPa 0,0 l/m 2,3 km/h (1 Bft) N-NO 25 1 min 0,000 mm 1,2 UV-I 429 W/m 3,3 C 11,0 C 4,8 km/h (1 Bft) 100,00 %
02.11.2015 13:40 10,9 C 59 % 1028,3 hPa 0,0 l/m 2,6 km/h (1 Bft) N-NO 20 1 min 0,000 mm 1,2 UV-I 424 W/m 3,2 C 10,9 C 4,8 km/h (1 Bft) 100,00 %
02.11.2015 13:41 10,9 C 63 % 1028,3 hPa 0,0 l/m 4,9 km/h (1 Bft) SO 136 1 min 0,000 mm 1,2 UV-I 423 W/m 4,1 C 10,9 C 6,4 km/h (2 Bft) 96,15 %
02.11.2015 13:42 11,0 C 60 % 1028,4 hPa 0,0 l/m 3,8 km/h (1 Bft) N-NO 25 1 min 0,000 mm 1,1 UV-I 419 W/m 3,5 C 11,0 C 6,4 km/h (2 Bft) 100,00 %
02.11.2015 13:43 11,0 C 60 % 1028,3 hPa 0,0 l/m 4,2 km/h (1 Bft) NO 43 1 min 0,000 mm 1,1 UV-I 415 W/m 3,5 C 11,0 C 4,8 km/h (1 Bft) 100,00 %
02.11.2015 13:44 11,0 C 60 % 1028,4 hPa 0,0 l/m 3,1 km/h (1 Bft) NO 48 1 min 0,000 mm 1,1 UV-I 412 W/m 3,5 C 11,0 C 6,4 km/h (2 Bft) 95,65 %
02.11.2015 13:45 11,0 C 60 % 1028,3 hPa 0,0 l/m 2,3 km/h (1 Bft) NO 46 1 min 0,000 mm 1,1 UV-I 405 W/m 3,5 C 11,0 C 3,2 km/h (1 Bft) 96,15 %
02.11.2015 13:46 10,9 C 59 % 1028,3 hPa 0,0 l/m 2,5 km/h (1 Bft) NO 42 1 min 0,000 mm 1,1 UV-I 402 W/m 3,2 C 10,9 C 4,8 km/h (1 Bft) 100,00 %
02.11.2015 13:47 10,9 C 59 % 1028,3 hPa 0,0 l/m 1,9 km/h (1 Bft) O 88 1 min 0,000 mm 1,1 UV-I 403 W/m 3,2 C 10,9 C 4,8 km/h (1 Bft) 100,00 %
02.11.2015 13:48 11,0 C 59 % 1028,3 hPa 0,0 l/m 3,3 km/h (1 Bft) O-NO 57 1 min 0,000 mm 1,1 UV-I 400 W/m 3,3 C 11,0 C 4,8 km/h (1 Bft) 100,00 %
02.11.2015 13:49 11,1 C 57 % 1028,3 hPa 0,0 l/m 2,7 km/h (1 Bft) O-NO 57 1 min 0,000 mm 1,1 UV-I 397 W/m 2,9 C 11,1 C 4,8 km/h (1 Bft) 100,00 %
02.11.2015 13:50 11,0 C 57 % 1028,3 hPa 0,0 l/m 2,0 km/h (1 Bft) NO 55 1 min 0,000 mm 1,1 UV-I 396 W/m 2,8 C 11,0 C 3,2 km/h (1 Bft) 95,65 %
02.11.2015 13:51 10,9 C 58 % 1028,3 hPa 0,0 l/m 1,7 km/h (1 Bft) O-SO 109 1 min 0,000 mm 1,1 UV-I 394 W/m 3,0 C 10,9 C 4,8 km/h (1 Bft) 100,00 %
02.11.2015 13:52 10,9 C 59 % 1028,3 hPa 0,0 l/m 3,2 km/h (1 Bft) NO 42 1 min 0,000 mm 1,1 UV-I 394 W/m 3,2 C 10,9 C 4,8 km/h (1 Bft) 100,00 %
02.11.2015 13:53 10,9 C 58 % 1028,3 hPa 0,0 l/m 2,7 km/h (1 Bft) N-NO 17 1 min 0,000 mm 1,0 UV-I 391 W/m 3,0 C 10,9 C 4,8 km/h (1 Bft) 100,00 %
02.11.2015 13:54 10,9 C 58 % 1028,3 hPa 0,0 l/m 3,9 km/h (1 Bft) N 5 1 min 0,000 mm 1,0 UV-I 388 W/m 3,0 C 10,9 C 6,4 km/h (2 Bft) 100,00 %
02.11.2015 13:55 11,0 C 61 % 1028,2 hPa 0,0 l/m 5,5 km/h (1 Bft) O 81 1 min 0,000 mm 1,0 UV-I 386 W/m 3,8 C 11,0 C 8,0 km/h (2 Bft) 100,00 %
02.11.2015 13:56 11,1 C 58 % 1028,2 hPa 0,0 l/m 3,6 km/h (1 Bft) O-SO 102 1 min 0,000 mm 1,0 UV-I 384 W/m 3,2 C 11,1 C 6,4 km/h (2 Bft) 95,65 %
02.11.2015 13:57 11,1 C 58 % 1028,2 hPa 0,0 l/m 1,7 km/h (1 Bft) O-NO 58 1 min 0,000 mm 1,0 UV-I 384 W/m 3,2 C 11,1 C 3,2 km/h (1 Bft) 100,00 %
02.11.2015 13:58 11,1 C 59 % 1028,2 hPa 0,0 l/m 2,3 km/h (1 Bft) NO 40 1 min 0,000 mm 1,0 UV-I 383 W/m 3,4 C 11,1 C 3,2 km/h (1 Bft) 100,00 %
02.11.2015 13:59 11,1 C 61 % 1028,2 hPa 0,0 l/m 3,2 km/h (1 Bft) N-NO 17 1 min 0,000 mm 1,0 UV-I 383 W/m 3,9 C 11,1 C 4,8 km/h (1 Bft) 100,00 %
02.11.2015 14:00 11,0 C 57 % 1028,2 hPa 0,0 l/m 2,7 km/h (1 Bft) O 82 1 min 0,000 mm 1,0 UV-I 389 W/m 2,8 C 11,0 C 6,4 km/h (2 Bft) 100,00 %
02.11.2015 14:01 11,0 C 61 % 1028,2 hPa 0,0 l/m 1,5 km/h (1 Bft) NO 38 1 min 0,203 mm 0,9 UV-I 380 W/m 3,8 C 11,0 C 3,2 km/h (1 Bft) 100,00 %
02.11.2015 14:02 11,1 C 62 % 1028,2 hPa 0,0 l/m 2,0 km/h (1 Bft) NO 53 1 min 0,000 mm 0,9 UV-I 377 W/m 4,1 C 11,1 C 3,2 km/h (1 Bft) 100,00 %
02.11.2015 14:03 11,1 C 59 % 1028,2 hPa 0,0 l/m 1,6 km/h (1 Bft) NO 53 1 min 0,000 mm 0,9 UV-I 377 W/m 3,4 C 11,1 C 3,2 km/h (1 Bft) 93,33 %
02.11.2015 14:04 11,1 C 59 % 1028,2 hPa 0,0 l/m 3,4 km/h (1 Bft) O 81 1 min 0,000 mm 0,9 UV-I 378 W/m 3,4 C 11,1 C 4,8 km/h (1 Bft) 100,00 %
02.11.2015 14:05 11,2 C 59 % 1028,2 hPa 0,0 l/m 2,3 km/h (1 Bft) O-NO 78 1 min 0,000 mm 0,9 UV-I 378 W/m 3,5 C 11,2 C 3,2 km/h (1 Bft) 100,00 %
02.11.2015 14:06 11,3 C 58 % 1028,2 hPa 0,0 l/m 2,3 km/h (1 Bft) O 80 1 min 0,000 mm 0,9 UV-I 374 W/m 3,3 C 11,3 C 4,8 km/h (1 Bft) 100,00 %
02.11.2015 14:07 11,3 C 59 % 1028,2 hPa 0,0 l/m 3,6 km/h (1 Bft) O-NO 76 1 min 0,000 mm 0,8 UV-I 353 W/m 3,6 C 11,3 C 9,7 km/h (2 Bft) 100,00 %
02.11.2015 14:08 11,3 C 57 % 1028,1 hPa 0,0 l/m 3,3 km/h (1 Bft) O-NO 61 1 min 0,000 mm 0,8 UV-I 338 W/m 3,1 C 11,3 C 6,4 km/h (2 Bft) 95,83 %
02.11.2015 14:09 11,3 C 58 % 1028,1 hPa 0,0 l/m 2,3 km/h (1 Bft) N-NO 14 1 min 0,000 mm 0,8 UV-I 289 W/m 3,3 C 11,3 C 6,4 km/h (2 Bft) 95,65 %
02.11.2015 14:10 11,3 C 59 % 1028,1 hPa 0,0 l/m 5,1 km/h (1 Bft) NO 52 1 min 0,000 mm 0,8 UV-I 266 W/m 3,6 C 11,3 C 6,4 km/h (2 Bft) 100,00 %
02.11.2015 14:11 11,2 C 58 % 1028,1 hPa 0,0 l/m 2,6 km/h (1 Bft) O-NO 73 1 min 0,000 mm 0,8 UV-I 267 W/m 3,2 C 11,2 C 4,8 km/h (1 Bft) 100,00 %
02.11.2015 14:12 11,1 C 58 % 1028,1 hPa 0,0 l/m 2,0 km/h (1 Bft) O-NO 75 1 min 0,000 mm 0,8 UV-I 302 W/m 3,2 C 11,1 C 3,2 km/h (1 Bft) 100,00 %
02.11.2015 14:13 11,1 C 59 % 1028,1 hPa 0,0 l/m 2,5 km/h (1 Bft) O 97 1 min 0,000 mm 0,8 UV-I 333 W/m 3,4 C 11,1 C 4,8 km/h (1 Bft) 100,00 %
02.11.2015 14:14 11,1 C 59 % 1028,1 hPa 0,0 l/m 3,3 km/h (1 Bft) O-NO 59 1 min 0,000 mm 0,8 UV-I 334 W/m 3,4 C 11,1 C 6,4 km/h (2 Bft) 100,00 %
02.11.2015 14:15 11,2 C 58 % 1028,1 hPa 0,0 l/m 5,7 km/h (1 Bft) O-SO 103 1 min 0,000 mm 0,8 UV-I 327 W/m 3,2 C 11,2 C 12,9 km/h (3 Bft) 96,43 %
02.11.2015 14:16 11,2 C 58 % 1028,1 hPa 0,0 l/m 3,6 km/h (1 Bft) O 99 1 min 0,000 mm 0,8 UV-I 326 W/m 3,2 C 11,2 C 4,8 km/h (1 Bft) 100,00 %
02.11.2015 14:17 11,2 C 57 % 1028,1 hPa 0,0 l/m 3,4 km/h (1 Bft) O-NO 73 1 min 0,000 mm 0,8 UV-I 338 W/m 3,0 C 11,2 C 4,8 km/h (1 Bft) 100,00 %
02.11.2015 14:18 11,2 C 58 % 1028,1 hPa 0,0 l/m 3,6 km/h (1 Bft) O 86 1 min 0,000 mm 0,8 UV-I 352 W/m 3,2 C 11,2 C 6,4 km/h (2 Bft) 100,00 %
02.11.2015 14:19 11,2 C 57 % 1028,0 hPa 0,0 l/m 3,8 km/h (1 Bft) O 94 1 min 0,000 mm 0,7 UV-I 354 W/m 3,0 C 11,2 C 6,4 km/h (2 Bft) 100,00 %
02.11.2015 14:20 11,3 C 58 % 1028,1 hPa 0,0 l/m 6,6 km/h (2 Bft) O-NO 74 1 min 0,000 mm 0,7 UV-I 353 W/m 3,3 C 11,2 C 11,3 km/h (2 Bft) 100,00 %
02.11.2015 14:21 11,3 C 56 % 1028,0 hPa 0,0 l/m 5,1 km/h (1 Bft) O 82 1 min 0,000 mm 0,7 UV-I 350 W/m 2,8 C 11,3 C 6,4 km/h (2 Bft) 100,00 %
02.11.2015 14:22 11,3 C 57 % 1028,1 hPa 0,0 l/m 6,4 km/h (2 Bft) O 84 1 min 0,000 mm 0,7 UV-I 334 W/m 3,1 C 11,3 C 11,3 km/h (2 Bft) 100,00 %
02.11.2015 14:23 11,3 C 56 % 1028,0 hPa 0,0 l/m 7,5 km/h (2 Bft) O 80 1 min 0,000 mm 0,7 UV-I 305 W/m 2,8 C 10,5 C 12,9 km/h (3 Bft) 96,15 %
02.11.2015 14:24 11,3 C 56 % 1028,1 hPa 0,0 l/m 6,3 km/h (2 Bft) O-NO 76 1 min 0,000 mm 0,7 UV-I 297 W/m 2,8 C 11,3 C 11,3 km/h (2 Bft) 100,00 %
02.11.2015 14:25 11,3 C 56 % 1028,0 hPa 0,0 l/m 8,1 km/h (2 Bft) O 100 1 min 0,000 mm 0,7 UV-I 296 W/m 2,8 C 10,2 C 11,3 km/h (2 Bft) 100,00 %
02.11.2015 14:26 11,3 C 57 % 1028,0 hPa 0,0 l/m 5,2 km/h (1 Bft) O-NO 65 1 min 0,000 mm 0,7 UV-I 308 W/m 3,1 C 11,3 C 6,4 km/h (2 Bft) 100,00 %
02.11.2015 14:27 11,3 C 55 % 1028,0 hPa 0,0 l/m 3,9 km/h (1 Bft) O-NO 69 1 min 0,000 mm 0,7 UV-I 322 W/m 2,6 C 11,3 C 4,8 km/h (1 Bft) 100,00 %
02.11.2015 14:28 11,3 C 56 % 1028,0 hPa 0,0 l/m 4,8 km/h (1 Bft) O 88 1 min 0,000 mm 0,7 UV-I 323 W/m 2,8 C 11,3 C 8,0 km/h (2 Bft) 100,00 %
02.11.2015 14:29 11,2 C 55 % 1028,0 hPa 0,0 l/m 7,7 km/h (2 Bft) O-NO 59 1 min 0,000 mm 0,7 UV-I 320 W/m 2,5 C 10,3 C 12,9 km/h (3 Bft) 100,00 %
02.11.2015 14:30 11,2 C 54 % 1028,0 hPa 0,0 l/m 7,3 km/h (2 Bft) O 81 1 min 0,000 mm 0,7 UV-I 316 W/m 2,2 C 10,6 C 12,9 km/h (3 Bft) 100,00 %
02.11.2015 14:31 11,2 C 55 % 1028,0 hPa 0,0 l/m 5,1 km/h (1 Bft) O-NO 57 1 min 0,000 mm 0,7 UV-I 315 W/m 2,5 C 11,2 C 6,4 km/h (2 Bft) 95,83 %
02.11.2015 14:32 11,2 C 54 % 1028,0 hPa 0,0 l/m 3,0 km/h (1 Bft) O-SO 115 1 min 0,000 mm 0,7 UV-I 312 W/m 2,2 C 11,2 C 4,8 km/h (1 Bft) 100,00 %
02.11.2015 14:33 11,2 C 54 % 1028,0 hPa 0,0 l/m 6,6 km/h (2 Bft) O 94 1 min 0,000 mm 0,6 UV-I 306 W/m 2,2 C 11,1 C 11,3 km/h (2 Bft) 100,00 %
02.11.2015 14:34 11,2 C 55 % 1027,9 hPa 0,0 l/m 4,7 km/h (1 Bft) O-NO 74 1 min 0,000 mm 0,6 UV-I 302 W/m 2,5 C 11,2 C 8,0 km/h (2 Bft) 100,00 %
02.11.2015 14:35 11,2 C 55 % 1027,9 hPa 0,0 l/m 7,2 km/h (2 Bft) O-SO 104 1 min 0,000 mm 0,6 UV-I 299 W/m 2,5 C 10,6 C 11,3 km/h (2 Bft) 100,00 %
02.11.2015 14:36 11,2 C 54 % 1028,0 hPa 0,0 l/m 10,2 km/h (2 Bft) O 96 1 min 0,000 mm 0,6 UV-I 295 W/m 2,2 C 8,8 C 12,9 km/h (3 Bft) 96,15 %
02.11.2015 14:37 11,2 C 53 % 1027,9 hPa 0,0 l/m 6,8 km/h (2 Bft) O 95 1 min 0,000 mm 0,6 UV-I 291 W/m 2,0 C 10,9 C 12,9 km/h (3 Bft) 100,00 %
02.11.2015 14:38 11,1 C 54 % 1027,9 hPa 0,0 l/m 6,9 km/h (2 Bft) O-NO 77 1 min 0,000 mm 0,6 UV-I 289 W/m 2,2 C 10,8 C 11,3 km/h (2 Bft) 96,15 %
02.11.2015 14:39 11,2 C 55 % 1027,9 hPa 0,0 l/m 7,6 km/h (2 Bft) O 82 1 min 0,000 mm 0,6 UV-I 286 W/m 2,5 C 10,4 C 11,3 km/h (2 Bft) 100,00 %
02.11.2015 14:40 11,2 C 54 % 1028,0 hPa 0,0 l/m 6,0 km/h (2 Bft) O-NO 78 1 min 0,000 mm 0,6 UV-I 282 W/m 2,2 C 11,2 C 9,7 km/h (2 Bft) 100,00 %
02.11.2015 14:41 11,1 C 54 % 1027,9 hPa 0,0 l/m 4,4 km/h (1 Bft) NO 56 1 min 0,000 mm 0,6 UV-I 279 W/m 2,2 C 11,1 C 6,4 km/h (2 Bft) 100,00 %
02.11.2015 14:42 11,1 C 55 % 1027,9 hPa 0,0 l/m 4,0 km/h (1 Bft) O 89 1 min 0,000 mm 0,6 UV-I 275 W/m 2,4 C 11,1 C 6,4 km/h (2 Bft) 100,00 %
02.11.2015 14:43 11,1 C 56 % 1027,9 hPa 0,0 l/m 2,9 km/h (1 Bft) O-SO 109 1 min 0,000 mm 0,6 UV-I 271 W/m 2,7 C 11,1 C 4,8 km/h (1 Bft) 100,00 %
02.11.2015 14:44 11,1 C 55 % 1027,9 hPa 0,0 l/m 4,9 km/h (1 Bft) NO 49 1 min 0,000 mm 0,6 UV-I 268 W/m 2,4 C 11,1 C 6,4 km/h (2 Bft) 100,00 %
02.11.2015 14:45 11,1 C 55 % 1027,9 hPa 0,0 l/m 5,5 km/h (1 Bft) O 83 1 min 0,000 mm 0,5 UV-I 265 W/m 2,4 C 11,1 C 8,0 km/h (2 Bft) 100,00 %
02.11.2015 14:46 11,1 C 56 % 1027,9 hPa 0,0 l/m 3,6 km/h (1 Bft) O-NO 59 1 min 0,000 mm 0,5 UV-I 263 W/m 2,7 C 11,1 C 4,8 km/h (1 Bft) 95,83 %
02.11.2015 14:47 11,2 C 56 % 1027,9 hPa 0,0 l/m 5,0 km/h (1 Bft) O-SO 104 1 min 0,000 mm 0,5 UV-I 258 W/m 2,8 C 11,2 C 6,4 km/h (2 Bft) 100,00 %
02.11.2015 14:48 11,2 C 56 % 1027,9 hPa 0,0 l/m 5,3 km/h (1 Bft) O-SO 111 1 min 0,000 mm 0,5 UV-I 253 W/m 2,8 C 11,2 C 9,7 km/h (2 Bft) 100,00 %
02.11.2015 14:49 11,2 C 57 % 1027,9 hPa 0,0 l/m 4,6 km/h (1 Bft) O 88 1 min 0,000 mm 0,5 UV-I 252 W/m 3,0 C 11,2 C 9,7 km/h (2 Bft) 100,00 %
02.11.2015 14:50 11,1 C 56 % 1027,9 hPa 0,0 l/m 3,5 km/h (1 Bft) O 90 1 min 0,000 mm 0,5 UV-I 248 W/m 2,7 C 11,1 C 6,4 km/h (2 Bft) 100,00 %
02.11.2015 14:51 11,1 C 57 % 1027,8 hPa 0,0 l/m 3,3 km/h (1 Bft) O-NO 76 1 min 0,000 mm 0,5 UV-I 244 W/m 2,9 C 11,1 C 4,8 km/h (1 Bft) 100,00 %
02.11.2015 14:52 11,1 C 57 % 1027,9 hPa 0,0 l/m 5,2 km/h (1 Bft) O 79 1 min 0,000 mm 0,5 UV-I 242 W/m 2,9 C 11,1 C 8,0 km/h (2 Bft) 100,00 %
02.11.2015 14:53 11,2 C 57 % 1027,9 hPa 0,0 l/m 5,7 km/h (1 Bft) O-NO 65 1 min 0,000 mm 0,5 UV-I 239 W/m 3,0 C 11,2 C 8,0 km/h (2 Bft) 96,15 %
02.11.2015 14:54 11,2 C 57 % 1027,9 hPa 0,0 l/m 7,4 km/h (2 Bft) O 92 1 min 0,000 mm 0,5 UV-I 237 W/m 3,0 C 10,5 C 12,9 km/h (3 Bft) 100,00 %
02.11.2015 14:55 11,2 C 57 % 1027,9 hPa 0,0 l/m 5,6 km/h (1 Bft) O-NO 63 1 min 0,000 mm 0,5 UV-I 233 W/m 3,0 C 11,2 C 9,7 km/h (2 Bft) 100,00 %
02.11.2015 14:56 11,1 C 56 % 1027,9 hPa 0,0 l/m 5,1 km/h (1 Bft) O-SO 120 1 min 0,000 mm 0,3 UV-I 231 W/m 2,7 C 11,1 C 6,4 km/h (2 Bft) 100,00 %
02.11.2015 14:57 11,1 C 56 % 1027,9 hPa 0,0 l/m 3,1 km/h (1 Bft) O-SO 104 1 min 0,000 mm 0,0 UV-I 228 W/m 2,7 C 11,1 C 4,8 km/h (1 Bft) 100,00 %
02.11.2015 14:58 11,0 C 58 % 1027,8 hPa 0,0 l/m 4,7 km/h (1 Bft) O 90 1 min 0,000 mm 0,0 UV-I 225 W/m 3,1 C 11,0 C 6,4 km/h (2 Bft) 100,00 %
02.11.2015 14:59 11,0 C 57 % 1027,8 hPa 0,0 l/m 6,9 km/h (2 Bft) O 92 1 min 0,000 mm 0,0 UV-I 221 W/m 2,8 C 10,7 C 9,7 km/h (2 Bft) 100,00 %
02.11.2015 15:00 11,0 C 56 % 1027,9 hPa 0,0 l/m 4,0 km/h (1 Bft) O 86 1 min 0,000 mm 0,0 UV-I 220 W/m 2,6 C 11,0 C 6,4 km/h (2 Bft) 100,00 %
02.11.2015 15:01 11,0 C 57 % 1027,8 hPa 0,0 l/m 3,9 km/h (1 Bft) O-NO 73 1 min 0,178 mm 0,0 UV-I 217 W/m 2,8 C 11,0 C 6,4 km/h (2 Bft) 96,15 %
02.11.2015 15:02 11,0 C 56 % 1027,9 hPa 0,0 l/m 4,0 km/h (1 Bft) O 79 1 min 0,000 mm 0,0 UV-I 213 W/m 2,6 C 11,0 C 4,8 km/h (1 Bft) 100,00 %
02.11.2015 15:03 11,0 C 58 % 1027,8 hPa 0,0 l/m 3,4 km/h (1 Bft) O 87 1 min 0,000 mm 0,0 UV-I 212 W/m 3,1 C 11,0 C 4,8 km/h (1 Bft) 96,30 %
02.11.2015 15:04 11,0 C 57 % 1027,8 hPa 0,0 l/m 2,8 km/h (1 Bft) O 98 1 min 0,000 mm 0,0 UV-I 209 W/m 2,8 C 11,0 C 4,8 km/h (1 Bft) 100,00 %
02.11.2015 15:05 11,0 C 58 % 1027,8 hPa 0,0 l/m 4,9 km/h (1 Bft) O 88 1 min 0,000 mm 0,0 UV-I 206 W/m 3,1 C 11,0 C 8,0 km/h (2 Bft) 100,00 %
02.11.2015 15:06 11,0 C 57 % 1027,8 hPa 0,0 l/m 5,6 km/h (1 Bft) O-SO 113 1 min 0,000 mm 0,0 UV-I 204 W/m 2,8 C 11,0 C 8,0 km/h (2 Bft) 100,00 %
02.11.2015 15:07 10,9 C 57 % 1027,9 hPa 0,0 l/m 4,0 km/h (1 Bft) O-SO 113 1 min 0,000 mm 0,0 UV-I 201 W/m 2,7 C 10,9 C 6,4 km/h (2 Bft) 100,00 %
02.11.2015 15:08 10,9 C 57 % 1027,9 hPa 0,0 l/m 7,0 km/h (2 Bft) O 97 1 min 0,000 mm 0,0 UV-I 199 W/m 2,7 C 10,5 C 9,7 km/h (2 Bft) 100,00 %
02.11.2015 15:09 10,8 C 56 % 1027,9 hPa 0,0 l/m 4,6 km/h (1 Bft) O 79 1 min 0,000 mm 0,0 UV-I 196 W/m 2,4 C 10,8 C 6,4 km/h (2 Bft) 100,00 %
02.11.2015 15:10 10,8 C 56 % 1027,8 hPa 0,0 l/m 7,5 km/h (2 Bft) O-SO 111 1 min 0,000 mm 0,0 UV-I 193 W/m 2,4 C 10,0 C 12,9 km/h (3 Bft) 100,00 %
02.11.2015 15:11 10,8 C 56 % 1027,8 hPa 0,0 l/m 4,7 km/h (1 Bft) O-NO 75 1 min 0,000 mm 0,0 UV-I 192 W/m 2,4 C 10,8 C 6,4 km/h (2 Bft) 100,00 %
02.11.2015 15:12 10,8 C 57 % 1027,8 hPa 0,0 l/m 3,4 km/h (1 Bft) O 90 1 min 0,000 mm 0,0 UV-I 189 W/m 2,6 C 10,8 C 4,8 km/h (1 Bft) 96,15 %
02.11.2015 15:13 10,8 C 56 % 1027,8 hPa 0,0 l/m 6,4 km/h (2 Bft) O 85 1 min 0,000 mm 0,0 UV-I 187 W/m 2,4 C 10,8 C 9,7 km/h (2 Bft) 100,00 %
02.11.2015 15:14 10,8 C 56 % 1027,8 hPa 0,0 l/m 5,0 km/h (1 Bft) O 98 1 min 0,000 mm 0,0 UV-I 185 W/m 2,4 C 10,8 C 9,7 km/h (2 Bft) 100,00 %
02.11.2015 15:15 10,8 C 57 % 1027,8 hPa 0,0 l/m 4,3 km/h (1 Bft) O-NO 77 1 min 0,000 mm 0,0 UV-I 184 W/m 2,6 C 10,8 C 6,4 km/h (2 Bft) 95,83 %
02.11.2015 15:16 10,7 C 56 % 1027,8 hPa 0,0 l/m 6,2 km/h (2 Bft) O 98 1 min 0,000 mm 0,0 UV-I 181 W/m 2,3 C 10,7 C 11,3 km/h (2 Bft) 100,00 %
02.11.2015 15:17 10,7 C 58 % 1027,9 hPa 0,0 l/m 3,1 km/h (1 Bft) SO 138 1 min 0,000 mm 0,0 UV-I 178 W/m 2,8 C 10,7 C 4,8 km/h (1 Bft) 100,00 %
02.11.2015 15:18 10,7 C 57 % 1027,8 hPa 0,0 l/m 4,2 km/h (1 Bft) O-NO 64 1 min 0,000 mm 0,0 UV-I 175 W/m 2,5 C 10,7 C 6,4 km/h (2 Bft) 100,00 %
02.11.2015 15:19 10,7 C 57 % 1027,8 hPa 0,0 l/m 4,9 km/h (1 Bft) O 88 1 min 0,000 mm 0,0 UV-I 173 W/m 2,5 C 10,7 C 6,4 km/h (2 Bft) 100,00 %
02.11.2015 15:20 10,7 C 56 % 1027,8 hPa 0,0 l/m 5,1 km/h (1 Bft) O 97 1 min 0,000 mm 0,0 UV-I 170 W/m 2,3 C 10,7 C 8,0 km/h (2 Bft) 100,00 %
02.11.2015 15:21 10,6 C 57 % 1027,8 hPa 0,0 l/m 7,0 km/h (2 Bft) O-SO 102 1 min 0,000 mm 0,0 UV-I 168 W/m 2,4 C 10,2 C 11,3 km/h (2 Bft) 100,00 %
02.11.2015 15:22 10,6 C 57 % 1027,8 hPa 0,0 l/m 8,9 km/h (2 Bft) O 87 1 min 0,000 mm 0,0 UV-I 165 W/m 2,4 C 8,9 C 12,9 km/h (3 Bft) 100,00 %
02.11.2015 15:23 10,6 C 57 % 1027,8 hPa 0,0 l/m 5,4 km/h (1 Bft) O-NO 63 1 min 0,000 mm 0,0 UV-I 162 W/m 2,4 C 10,6 C 12,9 km/h (3 Bft) 100,00 %
02.11.2015 15:24 10,6 C 57 % 1027,8 hPa 0,0 l/m 5,5 km/h (1 Bft) O-NO 74 1 min 0,000 mm 0,0 UV-I 160 W/m 2,4 C 10,6 C 8,0 km/h (2 Bft) 100,00 %
02.11.2015 15:25 10,5 C 57 % 1027,7 hPa 0,0 l/m 5,6 km/h (1 Bft) O-NO 77 1 min 0,000 mm 0,0 UV-I 157 W/m 2,3 C 10,5 C 11,3 km/h (2 Bft) 100,00 %
02.11.2015 15:26 10,4 C 58 % 1027,8 hPa 0,0 l/m 5,8 km/h (2 Bft) O-NO 76 1 min 0,000 mm 0,0 UV-I 154 W/m 2,5 C 10,4 C 9,7 km/h (2 Bft) 100,00 %
02.11.2015 15:27 10,4 C 58 % 1027,8 hPa 0,0 l/m 7,0 km/h (2 Bft) O 96 1 min 0,000 mm 0,0 UV-I 150 W/m 2,5 C 10,0 C 12,9 km/h (3 Bft) 100,00 %
02.11.2015 15:28 10,4 C 58 % 1027,8 hPa 0,0 l/m 7,1 km/h (2 Bft) O-SO 119 1 min 0,000 mm 0,0 UV-I 146 W/m 2,5 C 9,9 C 11,3 km/h (2 Bft) 100,00 %
02.11.2015 15:29 10,4 C 58 % 1027,8 hPa 0,0 l/m 6,1 km/h (2 Bft) NO 56 1 min 0,000 mm 0,0 UV-I 143 W/m 2,5 C 10,4 C 11,3 km/h (2 Bft) 96,15 %
02.11.2015 15:30 10,3 C 59 % 1027,7 hPa 0,0 l/m 5,0 km/h (1 Bft) O-NO 66 1 min 0,000 mm 0,0 UV-I 140 W/m 2,6 C 10,3 C 9,7 km/h (2 Bft) 100,00 %
02.11.2015 15:31 10,3 C 59 % 1027,8 hPa 0,0 l/m 7,6 km/h (2 Bft) O-SO 105 1 min 0,000 mm 0,0 UV-I 136 W/m 2,6 C 9,4 C 12,9 km/h (3 Bft) 96,15 %
02.11.2015 15:32 10,3 C 60 % 1027,8 hPa 0,0 l/m 5,8 km/h (2 Bft) O 97 1 min 0,000 mm 0,0 UV-I 133 W/m 2,9 C 10,3 C 9,7 km/h (2 Bft) 100,00 %
02.11.2015 15:33 10,3 C 60 % 1027,8 hPa 0,0 l/m 4,4 km/h (1 Bft) O 82 1 min 0,000 mm 0,0 UV-I 129 W/m 2,9 C 10,3 C 6,4 km/h (2 Bft) 100,00 %
02.11.2015 15:34 10,2 C 61 % 1027,8 hPa 0,0 l/m 4,6 km/h (1 Bft) NO 55 1 min 0,000 mm 0,0 UV-I 125 W/m 3,0 C 10,2 C 6,4 km/h (2 Bft) 100,00 %
02.11.2015 15:35 10,2 C 61 % 1027,8 hPa 0,0 l/m 5,9 km/h (2 Bft) O 98 1 min 0,000 mm 0,0 UV-I 122 W/m 3,0 C 10,2 C 9,7 km/h (2 Bft) 95,65 %
02.11.2015 15:36 10,2 C 60 % 1027,8 hPa 0,0 l/m 6,0 km/h (2 Bft) O-NO 61 1 min 0,000 mm 0,0 UV-I 119 W/m 2,8 C 10,2 C 9,7 km/h (2 Bft) 100,00 %
02.11.2015 15:37 10,2 C 60 % 1027,8 hPa 0,0 l/m 5,1 km/h (1 Bft) O 84 1 min 0,000 mm 0,0 UV-I 115 W/m 2,8 C 10,2 C 8,0 km/h (2 Bft) 100,00 %
02.11.2015 15:38 10,2 C 61 % 1027,8 hPa 0,0 l/m 4,8 km/h (1 Bft) O 98 1 min 0,000 mm 0,0 UV-I 112 W/m 3,0 C 10,2 C 6,4 km/h (2 Bft) 100,00 %
02.11.2015 15:39 10,2 C 61 % 1027,8 hPa 0,0 l/m 3,4 km/h (1 Bft) O 92 1 min 0,000 mm 0,0 UV-I 109 W/m 3,0 C 10,2 C 4,8 km/h (1 Bft) 100,00 %
02.11.2015 15:40 10,1 C 61 % 1027,8 hPa 0,0 l/m 4,3 km/h (1 Bft) O 83 1 min 0,000 mm 0,0 UV-I 107 W/m 2,9 C 10,1 C 6,4 km/h (2 Bft) 100,00 %
02.11.2015 15:41 10,1 C 61 % 1027,8 hPa 0,0 l/m 5,6 km/h (1 Bft) O 90 1 min 0,000 mm 0,0 UV-I 104 W/m 2,9 C 10,1 C 6,4 km/h (2 Bft) 100,00 %
02.11.2015 15:42 10,1 C 61 % 1027,7 hPa 0,0 l/m 3,9 km/h (1 Bft) NO 45 1 min 0,000 mm 0,0 UV-I 100 W/m 2,9 C 10,1 C 6,4 km/h (2 Bft) 100,00 %
02.11.2015 15:43 10,1 C 61 % 1027,7 hPa 0,0 l/m 4,8 km/h (1 Bft) O 92 1 min 0,000 mm 0,0 UV-I 98 W/m 2,9 C 10,1 C 11,3 km/h (2 Bft) 100,00 %
02.11.2015 15:44 10,1 C 61 % 1027,7 hPa 0,0 l/m 7,6 km/h (2 Bft) O 98 1 min 0,000 mm 0,0 UV-I 96 W/m 2,9 C 9,2 C 14,5 km/h (3 Bft) 100,00 %
02.11.2015 15:45 10,1 C 61 % 1027,7 hPa 0,0 l/m 6,3 km/h (2 Bft) O 96 1 min 0,000 mm 0,0 UV-I 94 W/m 2,9 C 10,1 C 8,0 km/h (2 Bft) 96,15 %
02.11.2015 15:46 10,1 C 61 % 1027,7 hPa 0,0 l/m 5,4 km/h (1 Bft) O-SO 103 1 min 0,000 mm 0,0 UV-I 90 W/m 2,9 C 10,1 C 11,3 km/h (2 Bft) 100,00 %
02.11.2015 15:47 10,1 C 61 % 1027,7 hPa 0,0 l/m 5,0 km/h (1 Bft) O 96 1 min 0,000 mm 0,0 UV-I 87 W/m 2,9 C 10,1 C 6,4 km/h (2 Bft) 100,00 %
02.11.2015 15:48 10,1 C 62 % 1027,7 hPa 0,0 l/m 5,0 km/h (1 Bft) O 97 1 min 0,000 mm 0,0 UV-I 84 W/m 3,2 C 10,1 C 6,4 km/h (2 Bft) 100,00 %
02.11.2015 15:49 10,0 C 63 % 1027,7 hPa 0,0 l/m 4,4 km/h (1 Bft) O 80 1 min 0,000 mm 0,0 UV-I 82 W/m 3,3 C 10,0 C 9,7 km/h (2 Bft) 95,83 %
02.11.2015 15:50 9,9 C 63 % 1027,7 hPa 0,0 l/m 3,8 km/h (1 Bft) O-NO 57 1 min 0,000 mm 0,0 UV-I 80 W/m 3,2 C 9,9 C 6,4 km/h (2 Bft) 100,00 %
02.11.2015 15:51 9,9 C 64 % 1027,8 hPa 0,0 l/m 4,1 km/h (1 Bft) O-NO 71 1 min 0,000 mm 0,0 UV-I 77 W/m 3,4 C 9,9 C 4,8 km/h (1 Bft) 100,00 %
02.11.2015 15:52 9,8 C 64 % 1027,8 hPa 0,0 l/m 3,8 km/h (1 Bft) O 96 1 min 0,000 mm 0,0 UV-I 74 W/m 3,3 C 9,8 C 4,8 km/h (1 Bft) 100,00 %
02.11.2015 15:53 9,8 C 64 % 1027,8 hPa 0,0 l/m 3,6 km/h (1 Bft) O 92 1 min 0,000 mm 0,0 UV-I 71 W/m 3,3 C 9,8 C 4,8 km/h (1 Bft) 100,00 %
02.11.2015 15:54 9,8 C 64 % 1027,8 hPa 0,0 l/m 4,6 km/h (1 Bft) O-NO 75 1 min 0,000 mm 0,0 UV-I 69 W/m 3,3 C 9,8 C 6,4 km/h (2 Bft) 100,00 %
02.11.2015 15:55 9,8 C 64 % 1027,8 hPa 0,0 l/m 3,4 km/h (1 Bft) O 88 1 min 0,000 mm 0,0 UV-I 68 W/m 3,3 C 9,8 C 4,8 km/h (1 Bft) 100,00 %
02.11.2015 15:56 9,8 C 65 % 1027,8 hPa 0,0 l/m 4,1 km/h (1 Bft) O-NO 76 1 min 0,000 mm 0,0 UV-I 66 W/m 3,5 C 9,8 C 6,4 km/h (2 Bft) 100,00 %
02.11.2015 15:57 9,8 C 65 % 1027,8 hPa 0,0 l/m 2,9 km/h (1 Bft) O-NO 75 1 min 0,000 mm 0,0 UV-I 63 W/m 3,5 C 9,8 C 4,8 km/h (1 Bft) 100,00 %
02.11.2015 15:58 9,7 C 65 % 1027,8 hPa 0,0 l/m 4,0 km/h (1 Bft) O 82 1 min 0,000 mm 0,0 UV-I 62 W/m 3,4 C 9,7 C 6,4 km/h (2 Bft) 100,00 %
02.11.2015 15:59 9,7 C 65 % 1027,8 hPa 0,0 l/m 3,6 km/h (1 Bft) O 82 1 min 0,000 mm 0,0 UV-I 59 W/m 3,4 C 9,7 C 4,8 km/h (1 Bft) 100,00 %
02.11.2015 16:00 9,7 C 64 % 1027,8 hPa 0,0 l/m 3,0 km/h (1 Bft) O 80 1 min 0,000 mm 0,0 UV-I 57 W/m 3,2 C 9,7 C 4,8 km/h (1 Bft) 100,00 %
02.11.2015 16:01 9,7 C 65 % 1027,8 hPa 0,0 l/m 2,4 km/h (1 Bft) O 80 1 min 0,076 mm 0,0 UV-I 55 W/m 3,4 C 9,7 C 4,8 km/h (1 Bft) 100,00 %
02.11.2015 16:02 9,6 C 65 % 1027,8 hPa 0,0 l/m 4,0 km/h (1 Bft) O-NO 75 0 min 0,000 mm 0,0 UV-I 53 W/m 3,4 C 9,6 C 4,8 km/h (1 Bft) 100,00 %
02.11.2015 16:03 9,6 C 66 % 1027,8 hPa 0,0 l/m 1,6 km/h (1 Bft) O-NO 76 0 min 0,000 mm 0,0 UV-I 51 W/m 3,6 C 9,6 C 3,2 km/h (1 Bft) 100,00 %
02.11.2015 16:04 9,5 C 66 % 1027,8 hPa 0,0 l/m 1,7 km/h (1 Bft) O-NO 76 0 min 0,000 mm 0,0 UV-I 49 W/m 3,5 C 9,5 C 3,2 km/h (1 Bft) 91,67 %
02.11.2015 16:05 9,4 C 66 % 1027,8 hPa 0,0 l/m 2,3 km/h (1 Bft) O 82 0 min 0,000 mm 0,0 UV-I 46 W/m 3,4 C 9,4 C 4,8 km/h (1 Bft) 97,37 %
02.11.2015 16:06 9,4 C 65 % 1027,8 hPa 0,0 l/m 2,8 km/h (1 Bft) O 92 0 min 0,000 mm 0,0 UV-I 43 W/m 3,2 C 9,4 C 6,4 km/h (2 Bft) 100,00 %
02.11.2015 16:07 9,4 C 65 % 1027,8 hPa 0,0 l/m 3,5 km/h (1 Bft) O 92 0 min 0,000 mm 0,0 UV-I 42 W/m 3,2 C 9,4 C 4,8 km/h (1 Bft) 100,00 %
02.11.2015 16:08 9,5 C 65 % 1027,8 hPa 0,0 l/m 4,4 km/h (1 Bft) O 92 0 min 0,000 mm 0,0 UV-I 40 W/m 3,3 C 9,5 C 4,8 km/h (1 Bft) 100,00 %
02.11.2015 16:09 9,5 C 65 % 1027,8 hPa 0,0 l/m 4,0 km/h (1 Bft) O 89 0 min 0,000 mm 0,0 UV-I 39 W/m 3,3 C 9,5 C 4,8 km/h (1 Bft) 100,00 %
02.11.2015 16:10 9,4 C 65 % 1027,8 hPa 0,0 l/m 3,8 km/h (1 Bft) O 80 0 min 0,000 mm 0,0 UV-I 37 W/m 3,2 C 9,4 C 9,7 km/h (2 Bft) 100,00 %
02.11.2015 16:11 9,4 C 65 % 1027,8 hPa 0,0 l/m 3,9 km/h (1 Bft) O 100 0 min 0,000 mm 0,0 UV-I 34 W/m 3,2 C 9,4 C 6,4 km/h (2 Bft) 100,00 %
02.11.2015 16:12 9,4 C 65 % 1027,8 hPa 0,0 l/m 3,4 km/h (1 Bft) O 92 0 min 0,000 mm 0,0 UV-I 33 W/m 3,2 C 9,4 C 4,8 km/h (1 Bft) 100,00 %
02.11.2015 16:13 9,4 C 66 % 1027,8 hPa 0,0 l/m 2,9 km/h (1 Bft) O 92 0 min 0,000 mm 0,0 UV-I 31 W/m 3,4 C 9,4 C 4,8 km/h (1 Bft) 100,00 %
02.11.2015 16:14 9,3 C 66 % 1027,8 hPa 0,0 l/m 2,0 km/h (1 Bft) O 88 0 min 0,000 mm 0,0 UV-I 28 W/m 3,3 C 9,3 C 3,2 km/h (1 Bft) 100,00 %
02.11.2015 16:15 9,2 C 66 % 1027,8 hPa 0,0 l/m 2,6 km/h (1 Bft) O-NO 67 0 min 0,000 mm 0,0 UV-I 26 W/m 3,2 C 9,2 C 4,8 km/h (1 Bft) 100,00 %
02.11.2015 16:16 9,2 C 66 % 1027,8 hPa 0,0 l/m 4,0 km/h (1 Bft) O 101 0 min 0,000 mm 0,0 UV-I 26 W/m 3,2 C 9,2 C 6,4 km/h (2 Bft) 100,00 %
02.11.2015 16:17 9,1 C 66 % 1027,8 hPa 0,0 l/m 3,6 km/h (1 Bft) O 88 0 min 0,000 mm 0,0 UV-I 24 W/m 3,1 C 9,1 C 6,4 km/h (2 Bft) 100,00 %
02.11.2015 16:18 9,1 C 66 % 1027,8 hPa 0,0 l/m 3,0 km/h (1 Bft) O 98 0 min 0,000 mm 0,0 UV-I 23 W/m 3,1 C 9,1 C 3,2 km/h (1 Bft) 95,83 %
02.11.2015 16:19 9,1 C 66 % 1027,8 hPa 0,0 l/m 3,0 km/h (1 Bft) O-SO 115 0 min 0,000 mm 0,0 UV-I 22 W/m 3,1 C 9,1 C 4,8 km/h (1 Bft) 100,00 %
02.11.2015 16:20 9,1 C 66 % 1027,8 hPa 0,0 l/m 2,8 km/h (1 Bft) O 80 0 min 0,000 mm 0,0 UV-I 21 W/m 3,1 C 9,1 C 4,8 km/h (1 Bft) 100,00 %
02.11.2015 16:21 9,1 C 66 % 1027,8 hPa 0,0 l/m 2,1 km/h (1 Bft) NO 46 0 min 0,000 mm 0,0 UV-I 19 W/m 3,1 C 9,1 C 3,2 km/h (1 Bft) 100,00 %
02.11.2015 16:22 9,1 C 66 % 1027,8 hPa 0,0 l/m 4,0 km/h (1 Bft) O-SO 103 0 min 0,000 mm 0,0 UV-I 19 W/m 3,1 C 9,1 C 4,8 km/h (1 Bft) 100,00 %
02.11.2015 16:23 9,1 C 66 % 1027,9 hPa 0,0 l/m 2,6 km/h (1 Bft) O-NO 74 0 min 0,000 mm 0,0 UV-I 18 W/m 3,1 C 9,1 C 4,8 km/h (1 Bft) 100,00 %
02.11.2015 16:24 9,1 C 66 % 1027,8 hPa 0,0 l/m 2,0 km/h (1 Bft) O-NO 74 0 min 0,000 mm 0,0 UV-I 17 W/m 3,1 C 9,1 C 3,2 km/h (1 Bft) 100,00 %
02.11.2015 16:25 9,0 C 66 % 1027,8 hPa 0,0 l/m 1,5 km/h (1 Bft) O 86 0 min 0,000 mm 0,0 UV-I 16 W/m 3,0 C 9,0 C 3,2 km/h (1 Bft) 91,67 %
02.11.2015 16:26 8,9 C 66 % 1027,9 hPa 0,0 l/m 1,0 km/h (0 Bft) O 84 0 min 0,000 mm 0,0 UV-I 16 W/m 2,9 C 8,9 C 3,2 km/h (1 Bft) 96,43 %
02.11.2015 16:27 8,8 C 67 % 1027,8 hPa 0,0 l/m 0,6 km/h (0 Bft) O 84 0 min 0,000 mm 0,0 UV-I 16 W/m 3,0 C 8,8 C 1,6 km/h (1 Bft) 100,00 %
02.11.2015 16:28 8,8 C 67 % 1027,8 hPa 0,0 l/m 0,3 km/h (0 Bft) O 84 0 min 0,000 mm 0,0 UV-I 14 W/m 3,0 C 8,8 C 1,6 km/h (1 Bft) 95,65 %
02.11.2015 16:29 8,7 C 67 % 1027,8 hPa 0,0 l/m 1,5 km/h (1 Bft) O 88 0 min 0,000 mm 0,0 UV-I 14 W/m 2,9 C 8,7 C 3,2 km/h (1 Bft) 100,00 %
02.11.2015 16:30 8,7 C 67 % 1027,8 hPa 0,0 l/m 3,9 km/h (1 Bft) O 87 1 min 0,000 mm 0,0 UV-I 14 W/m 2,9 C 8,7 C 6,4 km/h (2 Bft) 100,00 %
02.11.2015 16:31 8,7 C 67 % 1027,8 hPa 0,0 l/m 2,1 km/h (1 Bft) O 97 1 min 0,000 mm 0,0 UV-I 13 W/m 2,9 C 8,7 C 4,8 km/h (1 Bft) 95,83 %
02.11.2015 16:32 8,7 C 67 % 1027,8 hPa 0,0 l/m 2,3 km/h (1 Bft) O-NO 67 1 min 0,000 mm 0,0 UV-I 12 W/m 2,9 C 8,7 C 4,8 km/h (1 Bft) 100,00 %
02.11.2015 16:33 8,6 C 67 % 1027,8 hPa 0,0 l/m 1,9 km/h (1 Bft) O 90 1 min 0,000 mm 0,0 UV-I 12 W/m 2,8 C 8,6 C 4,8 km/h (1 Bft) 100,00 %
02.11.2015 16:34 8,6 C 67 % 1027,8 hPa 0,0 l/m 3,1 km/h (1 Bft) O 86 0 min 0,000 mm 0,0 UV-I 12 W/m 2,8 C 8,6 C 4,8 km/h (1 Bft) 100,00 %
02.11.2015 16:35 8,6 C 67 % 1027,8 hPa 0,0 l/m 2,8 km/h (1 Bft) O-NO 78 0 min 0,000 mm 0,0 UV-I 11 W/m 2,8 C 8,6 C 4,8 km/h (1 Bft) 100,00 %
02.11.2015 16:36 8,6 C 67 % 1027,9 hPa 0,0 l/m 0,3 km/h (0 Bft) O-NO 78 0 min 0,000 mm 0,0 UV-I 11 W/m 2,8 C 8,6 C 1,6 km/h (1 Bft) 100,00 %
02.11.2015 16:37 8,6 C 67 % 1027,8 hPa 0,0 l/m 1,3 km/h (1 Bft) O-NO 71 0 min 0,000 mm 0,0 UV-I 11 W/m 2,8 C 8,6 C 3,2 km/h (1 Bft) 100,00 %
02.11.2015 16:38 8,5 C 67 % 1027,8 hPa 0,0 l/m 0,8 km/h (0 Bft) O-NO 71 0 min 0,000 mm 0,0 UV-I 9 W/m 2,7 C 8,5 C 1,6 km/h (1 Bft) 100,00 %
02.11.2015 16:39 8,4 C 67 % 1027,8 hPa 0,0 l/m 0,3 km/h (0 Bft) O-NO 71 0 min 0,000 mm 0,0 UV-I 9 W/m 2,6 C 8,4 C 1,6 km/h (1 Bft) 100,00 %
02.11.2015 16:40 8,4 C 67 % 1027,9 hPa 0,0 l/m 0,0 km/h (0 Bft) O-NO 71 0 min 0,000 mm 0,0 UV-I 9 W/m 2,6 C 8,4 C 0,0 km/h (0 Bft) 100,00 %
02.11.2015 16:41 8,3 C 67 % 1027,9 hPa 0,0 l/m 0,9 km/h (0 Bft) O-NO 71 0 min 0,000 mm 0,0 UV-I 8 W/m 2,5 C 8,3 C 1,6 km/h (1 Bft) 95,65 %
02.11.2015 16:42 8,3 C 68 % 1027,9 hPa 0,0 l/m 1,3 km/h (1 Bft) O-NO 71 0 min 0,000 mm 0,0 UV-I 7 W/m 2,7 C 8,3 C 1,6 km/h (1 Bft) 100,00 %
02.11.2015 16:43 8,2 C 68 % 1027,9 hPa 0,0 l/m 1,7 km/h (1 Bft) O 88 0 min 0,000 mm 0,0 UV-I 7 W/m 2,7 C 8,2 C 3,2 km/h (1 Bft) 100,00 %
02.11.2015 16:44 8,2 C 68 % 1027,9 hPa 0,0 l/m 1,8 km/h (1 Bft) O 86 0 min 0,000 mm 0,0 UV-I 7 W/m 2,7 C 8,2 C 3,2 km/h (1 Bft) 100,00 %
02.11.2015 16:45 8,2 C 68 % 1027,9 hPa 0,0 l/m 2,7 km/h (1 Bft) O 82 0 min 0,000 mm 0,0 UV-I 5 W/m 2,7 C 8,2 C 4,8 km/h (1 Bft) 100,00 %
02.11.2015 16:46 8,1 C 68 % 1027,9 hPa 0,0 l/m 0,9 km/h (0 Bft) O 85 0 min 0,000 mm 0,0 UV-I 5 W/m 2,6 C 8,1 C 1,6 km/h (1 Bft) 100,00 %
02.11.2015 16:47 8,1 C 68 % 1027,9 hPa 0,0 l/m 2,5 km/h (1 Bft) O 92 0 min 0,000 mm 0,0 UV-I 5 W/m 2,6 C 8,1 C 4,8 km/h (1 Bft) 100,00 %
02.11.2015 16:48 8,1 C 68 % 1028,0 hPa 0,0 l/m 3,7 km/h (1 Bft) O 87 0 min 0,000 mm 0,0 UV-I 5 W/m 2,6 C 8,1 C 4,8 km/h (1 Bft) 100,00 %
02.11.2015 16:49 8,0 C 68 % 1028,0 hPa 0,0 l/m 3,9 km/h (1 Bft) O 92 0 min 0,000 mm 0,0 UV-I 5 W/m 2,5 C 8,0 C 8,0 km/h (2 Bft) 100,00 %
02.11.2015 16:50 8,0 C 68 % 1028,0 hPa 0,0 l/m 4,0 km/h (1 Bft) O 86 0 min 0,000 mm 0,0 UV-I 5 W/m 2,5 C 8,0 C 11,3 km/h (2 Bft) 100,00 %
02.11.2015 16:51 7,9 C 68 % 1028,0 hPa 0,0 l/m 6,4 km/h (2 Bft) O-NO 65 0 min 0,000 mm 0,0 UV-I 0 W/m 2,4 C 7,9 C 11,3 km/h (2 Bft) 100,00 %
02.11.2015 16:52 7,9 C 68 % 1028,0 hPa 0,0 l/m 5,1 km/h (1 Bft) O-NO 78 0 min 0,000 mm 0,0 UV-I 0 W/m 2,4 C 7,9 C 6,4 km/h (2 Bft) 100,00 %
02.11.2015 16:53 7,9 C 68 % 1028,0 hPa 0,0 l/m 6,5 km/h (2 Bft) O 83 0 min 0,000 mm 0,0 UV-I 0 W/m 2,4 C 7,8 C 11,3 km/h (2 Bft) 100,00 %
02.11.2015 16:54 7,9 C 69 % 1028,0 hPa 0,0 l/m 6,2 km/h (2 Bft) O 92 0 min 0,000 mm 0,0 UV-I 0 W/m 2,6 C 7,9 C 8,0 km/h (2 Bft) 100,00 %
02.11.2015 16:55 7,8 C 69 % 1027,9 hPa 0,0 l/m 5,5 km/h (1 Bft) O-NO 76 0 min 0,000 mm 0,0 UV-I 0 W/m 2,5 C 7,8 C 8,0 km/h (2 Bft) 99,23 %
02.11.2015 16:56 7,8 C 69 % 1027,9 hPa 0,0 l/m 4,4 km/h (1 Bft) O 88 0 min 0,000 mm 0,0 UV-I 0 W/m 2,5 C 7,8 C 6,4 km/h (2 Bft) 100,00 %
02.11.2015 16:57 7,7 C 70 % 1028,0 hPa 0,0 l/m 3,1 km/h (1 Bft) O-SO 102 0 min 0,000 mm 0,0 UV-I 0 W/m 2,6 C 7,7 C 4,8 km/h (1 Bft) 100,00 %
02.11.2015 16:58 7,6 C 70 % 1028,0 hPa 0,0 l/m 5,2 km/h (1 Bft) O-SO 107 0 min 0,000 mm 0,0 UV-I 0 W/m 2,5 C 7,6 C 6,4 km/h (2 Bft) 100,00 %
02.11.2015 16:59 7,5 C 70 % 1028,0 hPa 0,0 l/m 4,3 km/h (1 Bft) O-NO 66 0 min 0,000 mm 0,0 UV-I 0 W/m 2,4 C 7,5 C 6,4 km/h (2 Bft) 100,00 %
02.11.2015 17:00 7,4 C 70 % 1027,9 hPa 0,0 l/m 4,8 km/h (1 Bft) O-NO 63 0 min 0,000 mm 0,0 UV-I 0 W/m 2,3 C 7,4 C 6,4 km/h (2 Bft) 100,00 %
02.11.2015 17:01 7,4 C 70 % 1027,9 hPa 0,0 l/m 5,4 km/h (1 Bft) O-NO 65 0 min 0,025 mm 0,0 UV-I 0 W/m 2,3 C 7,4 C 9,7 km/h (2 Bft) 100,00 %
02.11.2015 17:02 7,4 C 70 % 1027,9 hPa 0,0 l/m 5,6 km/h (1 Bft) O-NO 69 0 min 0,000 mm 0,0 UV-I 0 W/m 2,3 C 7,4 C 8,0 km/h (2 Bft) 100,00 %
02.11.2015 17:03 7,3 C 71 % 1027,9 hPa 0,0 l/m 5,8 km/h (2 Bft) O-NO 77 0 min 0,000 mm 0,0 UV-I 0 W/m 2,4 C 7,3 C 8,0 km/h (2 Bft) 100,00 %
02.11.2015 17:04 7,3 C 71 % 1027,9 hPa 0,0 l/m 5,4 km/h (1 Bft) O-NO 66 0 min 0,000 mm 0,0 UV-I 0 W/m 2,4 C 7,3 C 6,4 km/h (2 Bft) 92,31 %
02.11.2015 17:05 7,3 C 71 % 1027,9 hPa 0,0 l/m 4,2 km/h (1 Bft) O 89 0 min 0,000 mm 0,0 UV-I 0 W/m 2,4 C 7,3 C 6,4 km/h (2 Bft) 96,30 %
02.11.2015 17:06 7,3 C 71 % 1027,9 hPa 0,0 l/m 6,1 km/h (2 Bft) O 82 0 min 0,000 mm 0,0 UV-I 0 W/m 2,4 C 7,3 C 8,0 km/h (2 Bft) 100,00 %
02.11.2015 17:07 7,2 C 71 % 1027,9 hPa 0,0 l/m 3,9 km/h (1 Bft) O 98 0 min 0,000 mm 0,0 UV-I 0 W/m 2,3 C 7,2 C 6,4 km/h (2 Bft) 100,00 %
02.11.2015 17:08 7,2 C 71 % 1027,9 hPa 0,0 l/m 3,3 km/h (1 Bft) O-NO 74 0 min 0,000 mm 0,0 UV-I 0 W/m 2,3 C 7,2 C 4,8 km/h (1 Bft) 95,65 %
02.11.2015 17:09 7,2 C 72 % 1027,9 hPa 0,0 l/m 3,9 km/h (1 Bft) O-NO 57 0 min 0,000 mm 0,0 UV-I 0 W/m 2,5 C 7,2 C 4,8 km/h (1 Bft) 100,00 %
02.11.2015 17:10 7,1 C 71 % 1027,9 hPa 0,0 l/m 3,7 km/h (1 Bft) O 85 0 min 0,000 mm 0,0 UV-I 0 W/m 2,2 C 7,1 C 4,8 km/h (1 Bft) 100,00 %
02.11.2015 17:11 7,1 C 72 % 1028,0 hPa 0,0 l/m 2,5 km/h (1 Bft) O-NO 74 0 min 0,000 mm 0,0 UV-I 0 W/m 2,4 C 7,1 C 4,8 km/h (1 Bft) 100,00 %
02.11.2015 17:12 6,9 C 72 % 1028,1 hPa 0,0 l/m 4,5 km/h (1 Bft) O-NO 69 0 min 0,000 mm 0,0 UV-I 0 W/m 2,2 C 6,9 C 6,4 km/h (2 Bft) 100,00 %
02.11.2015 17:13 6,9 C 72 % 1028,0 hPa 0,0 l/m 4,0 km/h (1 Bft) O-SO 104 0 min 0,000 mm 0,0 UV-I 0 W/m 2,2 C 6,9 C 6,4 km/h (2 Bft) 100,00 %
02.11.2015 17:14 6,9 C 72 % 1028,1 hPa 0,0 l/m 3,0 km/h (1 Bft) O-NO 75 0 min 0,000 mm 0,0 UV-I 0 W/m 2,2 C 6,9 C 4,8 km/h (1 Bft) 100,00 %
02.11.2015 17:15 6,9 C 72 % 1028,1 hPa 0,0 l/m 1,9 km/h (1 Bft) O 99 0 min 0,000 mm 0,0 UV-I 0 W/m 2,2 C 6,9 C 3,2 km/h (1 Bft) 100,00 %
02.11.2015 17:16 6,9 C 72 % 1028,1 hPa 0,0 l/m 5,6 km/h (1 Bft) O-SO 112 0 min 0,000 mm 0,0 UV-I 0 W/m 2,2 C 6,9 C 9,7 km/h (2 Bft) 100,00 %
02.11.2015 17:17 6,9 C 72 % 1028,1 hPa 0,0 l/m 2,4 km/h (1 Bft) O 94 0 min 0,000 mm 0,0 UV-I 0 W/m 2,2 C 6,9 C 3,2 km/h (1 Bft) 100,00 %
02.11.2015 17:18 6,8 C 72 % 1028,1 hPa 0,0 l/m 2,2 km/h (1 Bft) O-NO 62 0 min 0,000 mm 0,0 UV-I 0 W/m 2,1 C 6,8 C 4,8 km/h (1 Bft) 100,00 %
02.11.2015 17:19 6,8 C 72 % 1028,1 hPa 0,0 l/m 3,0 km/h (1 Bft) O 98 0 min 0,000 mm 0,0 UV-I 0 W/m 2,1 C 6,8 C 4,8 km/h (1 Bft) 97,37 %
02.11.2015 17:20 6,8 C 72 % 1028,1 hPa 0,0 l/m 2,5 km/h (1 Bft) O-NO 76 0 min 0,000 mm 0,0 UV-I 0 W/m 2,1 C 6,8 C 4,8 km/h (1 Bft) 100,00 %
02.11.2015 17:21 6,9 C 72 % 1028,1 hPa 0,0 l/m 2,3 km/h (1 Bft) O 97 0 min 0,000 mm 0,0 UV-I 0 W/m 2,2 C 6,9 C 4,8 km/h (1 Bft) 97,56 %
02.11.2015 17:22 6,9 C 72 % 1028,1 hPa 0,0 l/m 4,3 km/h (1 Bft) O 85 0 min 0,000 mm 0,0 UV-I 0 W/m 2,2 C 6,9 C 8,0 km/h (2 Bft) 100,00 %
02.11.2015 17:23 6,9 C 71 % 1028,1 hPa 0,0 l/m 4,5 km/h (1 Bft) O-NO 71 0 min 0,000 mm 0,0 UV-I 0 W/m 2,0 C 6,9 C 6,4 km/h (2 Bft) 100,00 %
02.11.2015 17:24 6,9 C 72 % 1028,1 hPa 0,0 l/m 3,2 km/h (1 Bft) O 92 0 min 0,000 mm 0,0 UV-I 0 W/m 2,2 C 6,9 C 4,8 km/h (1 Bft) 100,00 %
02.11.2015 17:25 6,8 C 72 % 1028,2 hPa 0,0 l/m 3,4 km/h (1 Bft) O 80 0 min 0,000 mm 0,0 UV-I 0 W/m 2,1 C 6,8 C 6,4 km/h (2 Bft) 100,00 %
02.11.2015 17:26 6,8 C 72 % 1028,1 hPa 0,0 l/m 2,6 km/h (1 Bft) O 90 0 min 0,000 mm 0,0 UV-I 0 W/m 2,1 C 6,8 C 4,8 km/h (1 Bft) 100,00 %
02.11.2015 17:27 6,8 C 72 % 1028,1 hPa 0,0 l/m 1,5 km/h (1 Bft) O-NO 77 0 min 0,000 mm 0,0 UV-I 0 W/m 2,1 C 6,8 C 4,8 km/h (1 Bft) 100,00 %
02.11.2015 17:28 6,8 C 72 % 1028,1 hPa 0,0 l/m 1,2 km/h (1 Bft) O-NO 68 0 min 0,000 mm 0,0 UV-I 0 W/m 2,1 C 6,8 C 3,2 km/h (1 Bft) 95,83 %
02.11.2015 17:29 6,7 C 72 % 1028,2 hPa 0,0 l/m 1,4 km/h (1 Bft) O 90 0 min 0,000 mm 0,0 UV-I 0 W/m 2,0 C 6,7 C 3,2 km/h (1 Bft) 100,00 %
02.11.2015 17:30 6,7 C 72 % 1028,1 hPa 0,0 l/m 1,9 km/h (1 Bft) O 79 0 min 0,000 mm 0,0 UV-I 0 W/m 2,0 C 6,7 C 3,2 km/h (1 Bft) 100,00 %
02.11.2015 17:31 6,6 C 72 % 1028,1 hPa 0,0 l/m 1,1 km/h (1 Bft) NO 52 0 min 0,000 mm 0,0 UV-I 0 W/m 1,9 C 6,6 C 3,2 km/h (1 Bft) 100,00 %
02.11.2015 17:32 6,6 C 72 % 1028,1 hPa 0,0 l/m 2,1 km/h (1 Bft) O 95 0 min 0,000 mm 0,0 UV-I 0 W/m 1,9 C 6,6 C 4,8 km/h (1 Bft) 100,00 %
02.11.2015 17:33 6,5 C 73 % 1028,1 hPa 0,0 l/m 1,0 km/h (0 Bft) O-NO 74 0 min 0,000 mm 0,0 UV-I 0 W/m 2,0 C 6,5 C 3,2 km/h (1 Bft) 100,00 %
02.11.2015 17:34 6,5 C 73 % 1028,1 hPa 0,0 l/m 1,4 km/h (1 Bft) O-NO 74 0 min 0,000 mm 0,0 UV-I 0 W/m 2,0 C 6,5 C 3,2 km/h (1 Bft) 100,00 %
02.11.2015 17:35 6,4 C 73 % 1028,1 hPa 0,0 l/m 1,3 km/h (1 Bft) O 94 0 min 0,000 mm 0,0 UV-I 0 W/m 1,9 C 6,4 C 3,2 km/h (1 Bft) 100,00 %
02.11.2015 17:36 6,4 C 73 % 1028,1 hPa 0,0 l/m 1,1 km/h (1 Bft) O 86 0 min 0,000 mm 0,0 UV-I 0 W/m 1,9 C 6,4 C 3,2 km/h (1 Bft) 100,00 %
02.11.2015 17:37 6,4 C 73 % 1028,1 hPa 0,0 l/m 2,4 km/h (1 Bft) O 80 0 min 0,000 mm 0,0 UV-I 0 W/m 1,9 C 6,4 C 3,2 km/h (1 Bft) 100,00 %
02.11.2015 17:38 6,4 C 73 % 1028,1 hPa 0,0 l/m 0,5 km/h (0 Bft) O 80 0 min 0,000 mm 0,0 UV-I 0 W/m 1,9 C 6,4 C 1,6 km/h (1 Bft) 100,00 %
02.11.2015 17:39 6,4 C 73 % 1028,1 hPa 0,0 l/m 2,9 km/h (1 Bft) O 96 0 min 0,000 mm 0,0 UV-I 0 W/m 1,9 C 6,4 C 4,8 km/h (1 Bft) 96,30 %
02.11.2015 17:40 6,4 C 73 % 1028,1 hPa 0,0 l/m 4,5 km/h (1 Bft) O-SO 106 0 min 0,000 mm 0,0 UV-I 0 W/m 1,9 C 6,4 C 6,4 km/h (2 Bft) 100,00 %
02.11.2015 17:41 6,4 C 73 % 1028,1 hPa 0,0 l/m 2,5 km/h (1 Bft) O-SO 102 0 min 0,000 mm 0,0 UV-I 0 W/m 1,9 C 6,4 C 4,8 km/h (1 Bft) 100,00 %
02.11.2015 17:42 6,4 C 73 % 1028,1 hPa 0,0 l/m 1,2 km/h (1 Bft) O 98 0 min 0,000 mm 0,0 UV-I 0 W/m 1,9 C 6,4 C 3,2 km/h (1 Bft) 100,00 %
02.11.2015 17:43 6,4 C 73 % 1028,1 hPa 0,0 l/m 2,9 km/h (1 Bft) O 94 0 min 0,000 mm 0,0 UV-I 0 W/m 1,9 C 6,4 C 4,8 km/h (1 Bft) 100,00 %
02.11.2015 17:44 6,4 C 73 % 1028,1 hPa 0,0 l/m 1,9 km/h (1 Bft) O-NO 76 0 min 0,000 mm 0,0 UV-I 0 W/m 1,9 C 6,4 C 3,2 km/h (1 Bft) 100,00 %
02.11.2015 17:45 6,4 C 73 % 1028,1 hPa 0,0 l/m 0,9 km/h (0 Bft) O 88 0 min 0,000 mm 0,0 UV-I 0 W/m 1,9 C 6,4 C 3,2 km/h (1 Bft) 100,00 %
02.11.2015 17:46 6,4 C 73 % 1028,1 hPa 0,0 l/m 3,7 km/h (1 Bft) O 88 0 min 0,000 mm 0,0 UV-I 0 W/m 1,9 C 6,4 C 4,8 km/h (1 Bft) 100,00 %
02.11.2015 17:47 6,4 C 73 % 1028,1 hPa 0,0 l/m 2,8 km/h (1 Bft) O-NO 70 0 min 0,000 mm 0,0 UV-I 0 W/m 1,9 C 6,4 C 4,8 km/h (1 Bft) 95,83 %
02.11.2015 17:48 6,4 C 73 % 1028,1 hPa 0,0 l/m 2,3 km/h (1 Bft) O 96 0 min 0,000 mm 0,0 UV-I 0 W/m 1,9 C 6,4 C 3,2 km/h (1 Bft) 100,00 %
02.11.2015 17:49 6,4 C 73 % 1028,1 hPa 0,0 l/m 3,0 km/h (1 Bft) O 81 0 min 0,000 mm 0,0 UV-I 0 W/m 1,9 C 6,4 C 3,2 km/h (1 Bft) 100,00 %
02.11.2015 17:50 6,4 C 73 % 1028,1 hPa 0,0 l/m 6,0 km/h (2 Bft) O 82 0 min 0,000 mm 0,0 UV-I 0 W/m 1,9 C 6,4 C 11,3 km/h (2 Bft) 100,00 %
02.11.2015 17:51 6,4 C 72 % 1028,1 hPa 0,0 l/m 4,0 km/h (1 Bft) O 85 0 min 0,000 mm 0,0 UV-I 0 W/m 1,7 C 6,4 C 4,8 km/h (1 Bft) 95,83 %
02.11.2015 17:52 6,4 C 73 % 1028,1 hPa 0,0 l/m 4,9 km/h (1 Bft) O 90 0 min 0,000 mm 0,0 UV-I 0 W/m 1,9 C 6,4 C 8,0 km/h (2 Bft) 100,00 %
02.11.2015 17:53 6,4 C 73 % 1028,2 hPa 0,0 l/m 4,2 km/h (1 Bft) O-NO 63 0 min 0,000 mm 0,0 UV-I 0 W/m 1,9 C 6,4 C 6,4 km/h (2 Bft) 100,00 %
02.11.2015 17:54 6,4 C 72 % 1028,1 hPa 0,0 l/m 6,0 km/h (2 Bft) O 80 0 min 0,000 mm 0,0 UV-I 0 W/m 1,7 C 6,4 C 11,3 km/h (2 Bft) 100,00 %
02.11.2015 17:55 6,4 C 72 % 1028,1 hPa 0,0 l/m 5,6 km/h (1 Bft) O-SO 109 0 min 0,000 mm 0,0 UV-I 0 W/m 1,7 C 6,4 C 8,0 km/h (2 Bft) 100,00 %
02.11.2015 17:56 6,4 C 73 % 1028,1 hPa 0,0 l/m 4,0 km/h (1 Bft) O 86 0 min 0,000 mm 0,0 UV-I 0 W/m 1,9 C 6,4 C 6,4 km/h (2 Bft) 96,88 %
02.11.2015 17:57 6,4 C 73 % 1028,1 hPa 0,0 l/m 4,6 km/h (1 Bft) O-SO 111 0 min 0,000 mm 0,0 UV-I 0 W/m 1,9 C 6,4 C 8,0 km/h (2 Bft) 100,00 %
02.11.2015 17:58 6,4 C 72 % 1028,1 hPa 0,0 l/m 4,8 km/h (1 Bft) O 90 0 min 0,000 mm 0,0 UV-I 0 W/m 1,7 C 6,4 C 6,4 km/h (2 Bft) 100,00 %
02.11.2015 17:59 6,4 C 72 % 1028,1 hPa 0,0 l/m 2,9 km/h (1 Bft) O-NO 57 0 min 0,000 mm 0,0 UV-I 0 W/m 1,7 C 6,4 C 4,8 km/h (1 Bft) 100,00 %
02.11.2015 18:00 6,3 C 73 % 1028,1 hPa 0,0 l/m 2,0 km/h (1 Bft) O-NO 78 0 min 0,000 mm 0,0 UV-I 0 W/m 1,8 C 6,3 C 3,2 km/h (1 Bft) 95,83 %
02.11.2015 18:02 6,3 C 73 % 1028,1 hPa 0,0 l/m 3,5 km/h (1 Bft) O 95 0 min 0,026 mm 0,0 UV-I 0 W/m 1,8 C 6,3 C 8,0 km/h (2 Bft) 100,00 %
02.11.2015 18:03 6,3 C 73 % 1028,0 hPa 0,0 l/m 1,9 km/h (1 Bft) O 88 0 min 0,000 mm 0,0 UV-I 0 W/m 1,8 C 6,3 C 6,4 km/h (2 Bft) 100,00 %
02.11.2015 18:04 6,3 C 73 % 1028,1 hPa 0,0 l/m 4,3 km/h (1 Bft) O 94 0 min 0,000 mm 0,0 UV-I 0 W/m 1,8 C 6,3 C 6,4 km/h (2 Bft) 100,00 %
02.11.2015 18:05 6,3 C 73 % 1028,1 hPa 0,0 l/m 3,5 km/h (1 Bft) SO 124 0 min 0,000 mm 0,0 UV-I 0 W/m 1,8 C 6,3 C 9,7 km/h (2 Bft) 96,43 %
02.11.2015 18:06 6,3 C 73 % 1028,2 hPa 0,0 l/m 2,0 km/h (1 Bft) O-SO 119 0 min 0,000 mm 0,0 UV-I 0 W/m 1,8 C 6,3 C 3,2 km/h (1 Bft) 95,83 %
02.11.2015 18:07 6,2 C 73 % 1028,2 hPa 0,0 l/m 5,3 km/h (1 Bft) O-SO 115 0 min 0,000 mm 0,0 UV-I 0 W/m 1,7 C 6,2 C 11,3 km/h (2 Bft) 100,00 %
02.11.2015 18:08 6,2 C 73 % 1028,2 hPa 0,0 l/m 4,2 km/h (1 Bft) O-NO 77 0 min 0,000 mm 0,0 UV-I 0 W/m 1,7 C 6,2 C 6,4 km/h (2 Bft) 100,00 %
02.11.2015 18:09 6,2 C 73 % 1028,1 hPa 0,0 l/m 3,2 km/h (1 Bft) O 88 0 min 0,000 mm 0,0 UV-I 0 W/m 1,7 C 6,2 C 6,4 km/h (2 Bft) 100,00 %
02.11.2015 18:10 6,2 C 73 % 1028,1 hPa 0,0 l/m 2,9 km/h (1 Bft) O-NO 75 0 min 0,000 mm 0,0 UV-I 0 W/m 1,7 C 6,2 C 4,8 km/h (1 Bft) 100,00 %
02.11.2015 18:11 6,2 C 73 % 1028,1 hPa 0,0 l/m 4,7 km/h (1 Bft) O 88 0 min 0,000 mm 0,0 UV-I 0 W/m 1,7 C 6,2 C 9,7 km/h (2 Bft) 100,00 %
02.11.2015 18:12 6,2 C 73 % 1028,1 hPa 0,0 l/m 3,6 km/h (1 Bft) O 98 0 min 0,000 mm 0,0 UV-I 0 W/m 1,7 C 6,2 C 6,4 km/h (2 Bft) 100,00 %
02.11.2015 18:13 6,2 C 73 % 1028,1 hPa 0,0 l/m 1,4 km/h (1 Bft) O 97 0 min 0,000 mm 0,0 UV-I 0 W/m 1,7 C 6,2 C 3,2 km/h (1 Bft) 100,00 %
02.11.2015 18:14 6,2 C 73 % 1028,1 hPa 0,0 l/m 2,3 km/h (1 Bft) O-SO 110 0 min 0,000 mm 0,0 UV-I 0 W/m 1,7 C 6,2 C 6,4 km/h (2 Bft) 100,00 %
02.11.2015 18:15 6,2 C 73 % 1028,1 hPa 0,0 l/m 3,4 km/h (1 Bft) O-NO 69 0 min 0,000 mm 0,0 UV-I 0 W/m 1,7 C 6,2 C 6,4 km/h (2 Bft) 96,15 %
02.11.2015 18:16 6,2 C 73 % 1028,1 hPa 0,0 l/m 3,5 km/h (1 Bft) O-SO 106 0 min 0,000 mm 0,0 UV-I 0 W/m 1,7 C 6,2 C 6,4 km/h (2 Bft) 100,00 %
02.11.2015 18:17 6,2 C 73 % 1028,0 hPa 0,0 l/m 3,7 km/h (1 Bft) O 87 0 min 0,000 mm 0,0 UV-I 0 W/m 1,7 C 6,2 C 9,7 km/h (2 Bft) 100,00 %
02.11.2015 18:18 6,2 C 73 % 1028,0 hPa 0,0 l/m 6,4 km/h (2 Bft) O-SO 116 0 min 0,000 mm 0,0 UV-I 0 W/m 1,7 C 6,2 C 9,7 km/h (2 Bft) 100,00 %
02.11.2015 18:19 6,3 C 73 % 1028,0 hPa 0,0 l/m 4,9 km/h (1 Bft) SO 140 0 min 0,000 mm 0,0 UV-I 0 W/m 1,8 C 6,3 C 6,4 km/h (2 Bft) 100,00 %
02.11.2015 18:20 6,3 C 73 % 1028,0 hPa 0,0 l/m 4,9 km/h (1 Bft) O 101 0 min 0,000 mm 0,0 UV-I 0 W/m 1,8 C 6,3 C 11,3 km/h (2 Bft) 100,00 %
02.11.2015 18:21 6,3 C 73 % 1028,0 hPa 0,0 l/m 4,3 km/h (1 Bft) O 84 0 min 0,000 mm 0,0 UV-I 0 W/m 1,8 C 6,3 C 6,4 km/h (2 Bft) 100,00 %
02.11.2015 18:22 6,3 C 73 % 1028,0 hPa 0,0 l/m 2,6 km/h (1 Bft) O-NO 76 0 min 0,000 mm 0,0 UV-I 0 W/m 1,8 C 6,3 C 6,4 km/h (2 Bft) 100,00 %
02.11.2015 18:23 6,3 C 72 % 1028,0 hPa 0,0 l/m 3,5 km/h (1 Bft) O-SO 111 0 min 0,000 mm 0,0 UV-I 0 W/m 1,6 C 6,3 C 6,4 km/h (2 Bft) 100,00 %
02.11.2015 18:24 6,2 C 73 % 1028,0 hPa 0,0 l/m 2,3 km/h (1 Bft) O-NO 64 0 min 0,000 mm 0,0 UV-I 0 W/m 1,7 C 6,2 C 4,8 km/h (1 Bft) 100,00 %
02.11.2015 18:25 6,2 C 73 % 1028,1 hPa 0,0 l/m 1,6 km/h (1 Bft) O-SO 113 0 min 0,000 mm 0,0 UV-I 0 W/m 1,7 C 6,2 C 3,2 km/h (1 Bft) 95,83 %
02.11.2015 18:26 6,2 C 73 % 1028,1 hPa 0,0 l/m 2,1 km/h (1 Bft) O 98 0 min 0,000 mm 0,0 UV-I 0 W/m 1,7 C 6,2 C 3,2 km/h (1 Bft) 100,00 %
02.11.2015 18:27 6,2 C 73 % 1028,1 hPa 0,0 l/m 5,0 km/h (1 Bft) O-SO 105 0 min 0,000 mm 0,0 UV-I 0 W/m 1,7 C 6,2 C 9,7 km/h (2 Bft) 100,00 %
02.11.2015 18:28 6,2 C 73 % 1028,0 hPa 0,0 l/m 3,6 km/h (1 Bft) O 98 0 min 0,000 mm 0,0 UV-I 0 W/m 1,7 C 6,2 C 9,7 km/h (2 Bft) 100,00 %
02.11.2015 18:29 6,2 C 73 % 1028,1 hPa 0,0 l/m 6,2 km/h (2 Bft) O-NO 72 0 min 0,000 mm 0,0 UV-I 0 W/m 1,7 C 6,2 C 11,3 km/h (2 Bft) 100,00 %
02.11.2015 18:30 6,2 C 73 % 1028,0 hPa 0,0 l/m 6,9 km/h (2 Bft) O 84 0 min 0,000 mm 0,0 UV-I 0 W/m 1,7 C 5,8 C 11,3 km/h (2 Bft) 100,00 %
02.11.2015 18:31 6,2 C 73 % 1028,1 hPa 0,0 l/m 5,6 km/h (1 Bft) O-SO 103 0 min 0,000 mm 0,0 UV-I 0 W/m 1,7 C 6,2 C 6,4 km/h (2 Bft) 100,00 %
02.11.2015 18:32 6,2 C 73 % 1028,0 hPa 0,0 l/m 2,6 km/h (1 Bft) O-SO 103 0 min 0,000 mm 0,0 UV-I 0 W/m 1,7 C 6,2 C 4,8 km/h (1 Bft) 100,00 %
02.11.2015 18:33 6,2 C 73 % 1028,0 hPa 0,0 l/m 4,0 km/h (1 Bft) O-NO 66 0 min 0,000 mm 0,0 UV-I 0 W/m 1,7 C 6,2 C 6,4 km/h (2 Bft) 100,00 %
02.11.2015 18:34 6,2 C 73 % 1028,1 hPa 0,0 l/m 3,1 km/h (1 Bft) O 86 0 min 0,000 mm 0,0 UV-I 0 W/m 1,7 C 6,2 C 4,8 km/h (1 Bft) 100,00 %
02.11.2015 18:35 6,2 C 73 % 1028,1 hPa 0,0 l/m 4,4 km/h (1 Bft) O 101 0 min 0,000 mm 0,0 UV-I 0 W/m 1,7 C 6,2 C 6,4 km/h (2 Bft) 100,00 %
02.11.2015 18:36 6,2 C 73 % 1028,1 hPa 0,0 l/m 4,0 km/h (1 Bft) O 79 0 min 0,000 mm 0,0 UV-I 0 W/m 1,7 C 6,2 C 6,4 km/h (2 Bft) 96,15 %
02.11.2015 18:37 6,1 C 73 % 1028,1 hPa 0,0 l/m 1,2 km/h (1 Bft) O 86 0 min 0,000 mm 0,0 UV-I 0 W/m 1,6 C 6,1 C 3,2 km/h (1 Bft) 100,00 %
02.11.2015 18:38 6,1 C 73 % 1028,1 hPa 0,0 l/m 2,7 km/h (1 Bft) O 95 0 min 0,000 mm 0,0 UV-I 0 W/m 1,6 C 6,1 C 6,4 km/h (2 Bft) 100,00 %
02.11.2015 18:39 6,1 C 73 % 1028,1 hPa 0,0 l/m 4,5 km/h (1 Bft) O 88 0 min 0,000 mm 0,0 UV-I 0 W/m 1,6 C 6,1 C 9,7 km/h (2 Bft) 100,00 %
02.11.2015 18:40 6,1 C 73 % 1028,2 hPa 0,0 l/m 4,0 km/h (1 Bft) O-NO 74 0 min 0,000 mm 0,0 UV-I 0 W/m 1,6 C 6,1 C 6,4 km/h (2 Bft) 100,00 %
02.11.2015 18:41 6,1 C 73 % 1028,1 hPa 0,0 l/m 3,8 km/h (1 Bft) O 93 0 min 0,000 mm 0,0 UV-I 0 W/m 1,6 C 6,1 C 6,4 km/h (2 Bft) 100,00 %
02.11.2015 18:42 6,1 C 73 % 1028,1 hPa 0,0 l/m 4,1 km/h (1 Bft) O-NO 78 0 min 0,000 mm 0,0 UV-I 0 W/m 1,6 C 6,1 C 6,4 km/h (2 Bft) 95,83 %
02.11.2015 18:43 6,1 C 73 % 1028,1 hPa 0,0 l/m 5,0 km/h (1 Bft) O 90 0 min 0,000 mm 0,0 UV-I 0 W/m 1,6 C 6,1 C 9,7 km/h (2 Bft) 100,00 %
02.11.2015 18:44 6,1 C 73 % 1028,1 hPa 0,0 l/m 5,1 km/h (1 Bft) O 98 0 min 0,000 mm 0,0 UV-I 0 W/m 1,6 C 6,1 C 9,7 km/h (2 Bft) 100,00 %
02.11.2015 18:45 6,1 C 73 % 1028,1 hPa 0,0 l/m 7,4 km/h (2 Bft) O-SO 113 0 min 0,000 mm 0,0 UV-I 0 W/m 1,6 C 5,3 C 9,7 km/h (2 Bft) 100,00 %
02.11.2015 18:46 6,1 C 73 % 1028,1 hPa 0,0 l/m 6,1 km/h (2 Bft) O 96 0 min 0,000 mm 0,0 UV-I 0 W/m 1,6 C 6,1 C 9,7 km/h (2 Bft) 95,83 %
02.11.2015 18:47 6,1 C 73 % 1028,1 hPa 0,0 l/m 4,8 km/h (1 Bft) O 92 0 min 0,000 mm 0,0 UV-I 0 W/m 1,6 C 6,1 C 9,7 km/h (2 Bft) 95,65 %
02.11.2015 18:48 6,1 C 73 % 1028,0 hPa 0,0 l/m 3,8 km/h (1 Bft) O-NO 72 0 min 0,000 mm 0,0 UV-I 0 W/m 1,6 C 6,1 C 6,4 km/h (2 Bft) 100,00 %
02.11.2015 18:49 6,1 C 73 % 1028,1 hPa 0,0 l/m 4,3 km/h (1 Bft) O-NO 78 0 min 0,000 mm 0,0 UV-I 0 W/m 1,6 C 6,1 C 6,4 km/h (2 Bft) 100,00 %
02.11.2015 18:50 6,1 C 73 % 1028,0 hPa 0,0 l/m 4,4 km/h (1 Bft) O-NO 78 0 min 0,000 mm 0,0 UV-I 0 W/m 1,6 C 6,1 C 6,4 km/h (2 Bft) 100,00 %
02.11.2015 18:51 6,0 C 74 % 1028,1 hPa 0,0 l/m 5,0 km/h (1 Bft) O 95 0 min 0,000 mm 0,0 UV-I 0 W/m 1,7 C 6,0 C 6,4 km/h (2 Bft) 100,00 %
02.11.2015 18:52 5,9 C 74 % 1028,0 hPa 0,0 l/m 4,6 km/h (1 Bft) O 85 0 min 0,000 mm 0,0 UV-I 0 W/m 1,6 C 5,9 C 6,4 km/h (2 Bft) 100,00 %
02.11.2015 18:53 5,8 C 74 % 1028,0 hPa 0,0 l/m 5,6 km/h (1 Bft) O-NO 62 0 min 0,000 mm 0,0 UV-I 0 W/m 1,5 C 5,8 C 11,3 km/h (2 Bft) 100,00 %
02.11.2015 18:54 5,8 C 74 % 1028,0 hPa 0,0 l/m 5,6 km/h (1 Bft) O 86 0 min 0,000 mm 0,0 UV-I 0 W/m 1,5 C 5,8 C 8,0 km/h (2 Bft) 100,00 %
02.11.2015 18:55 5,8 C 74 % 1028,0 hPa 0,0 l/m 4,8 km/h (1 Bft) NO 55 0 min 0,000 mm 0,0 UV-I 0 W/m 1,5 C 5,8 C 8,0 km/h (2 Bft) 100,00 %
02.11.2015 18:56 5,8 C 74 % 1028,0 hPa 0,0 l/m 5,9 km/h (2 Bft) O 98 0 min 0,000 mm 0,0 UV-I 0 W/m 1,5 C 5,8 C 8,0 km/h (2 Bft) 100,00 %
02.11.2015 18:57 5,7 C 75 % 1028,0 hPa 0,0 l/m 4,7 km/h (1 Bft) O 91 0 min 0,000 mm 0,0 UV-I 0 W/m 1,6 C 5,7 C 6,4 km/h (2 Bft) 100,00 %
02.11.2015 18:58 5,7 C 75 % 1028,0 hPa 0,0 l/m 4,7 km/h (1 Bft) O-NO 69 0 min 0,000 mm 0,0 UV-I 0 W/m 1,6 C 5,7 C 6,4 km/h (2 Bft) 100,00 %
02.11.2015 18:59 5,7 C 75 % 1028,0 hPa 0,0 l/m 5,6 km/h (1 Bft) O 90 0 min 0,000 mm 0,0 UV-I 0 W/m 1,6 C 5,7 C 9,7 km/h (2 Bft) 100,00 %
02.11.2015 19:00 5,7 C 75 % 1028,0 hPa 0,0 l/m 4,2 km/h (1 Bft) O 84 0 min 0,000 mm 0,0 UV-I 0 W/m 1,6 C 5,7 C 11,3 km/h (2 Bft) 100,00 %
02.11.2015 19:01 5,7 C 75 % 1028,0 hPa 0,0 l/m 4,6 km/h (1 Bft) O 85 0 min 0,025 mm 0,0 UV-I 0 W/m 1,6 C 5,7 C 6,4 km/h (2 Bft) 100,00 %
02.11.2015 19:02 5,7 C 75 % 1028,0 hPa 0,0 l/m 6,7 km/h (2 Bft) O-SO 102 0 min 0,000 mm 0,0 UV-I 0 W/m 1,6 C 5,5 C 11,3 km/h (2 Bft) 95,65 %
02.11.2015 19:03 5,6 C 75 % 1028,1 hPa 0,0 l/m 3,4 km/h (1 Bft) O-NO 72 0 min 0,000 mm 0,0 UV-I 0 W/m 1,5 C 5,6 C 6,4 km/h (2 Bft) 100,00 %
02.11.2015 19:04 5,6 C 75 % 1028,1 hPa 0,0 l/m 3,7 km/h (1 Bft) O-NO 71 0 min 0,000 mm 0,0 UV-I 0 W/m 1,5 C 5,6 C 4,8 km/h (1 Bft) 100,00 %
02.11.2015 19:05 5,6 C 75 % 1028,1 hPa 0,0 l/m 4,2 km/h (1 Bft) O 98 0 min 0,000 mm 0,0 UV-I 0 W/m 1,5 C 5,6 C 8,0 km/h (2 Bft) 100,00 %
02.11.2015 19:06 5,6 C 75 % 1028,0 hPa 0,0 l/m 5,4 km/h (1 Bft) O-SO 106 0 min 0,000 mm 0,0 UV-I 0 W/m 1,5 C 5,6 C 9,7 km/h (2 Bft) 100,00 %
02.11.2015 19:07 5,6 C 75 % 1028,0 hPa 0,0 l/m 3,9 km/h (1 Bft) O 84 0 min 0,000 mm 0,0 UV-I 0 W/m 1,5 C 5,6 C 6,4 km/h (2 Bft) 100,00 %
02.11.2015 19:08 5,6 C 75 % 1028,0 hPa 0,0 l/m 4,3 km/h (1 Bft) O-SO 102 0 min 0,000 mm 0,0 UV-I 0 W/m 1,5 C 5,6 C 6,4 km/h (2 Bft) 100,00 %
02.11.2015 19:09 5,7 C 75 % 1028,1 hPa 0,0 l/m 4,6 km/h (1 Bft) O-NO 73 0 min 0,000 mm 0,0 UV-I 0 W/m 1,6 C 5,7 C 6,4 km/h (2 Bft) 100,00 %
02.11.2015 19:10 5,7 C 75 % 1028,0 hPa 0,0 l/m 4,3 km/h (1 Bft) O 81 0 min 0,000 mm 0,0 UV-I 0 W/m 1,6 C 5,7 C 6,4 km/h (2 Bft) 96,15 %
02.11.2015 19:11 5,7 C 75 % 1028,0 hPa 0,0 l/m 4,8 km/h (1 Bft) O-NO 69 0 min 0,000 mm 0,0 UV-I 0 W/m 1,6 C 5,7 C 6,4 km/h (2 Bft) 100,00 %
02.11.2015 19:12 5,7 C 75 % 1028,0 hPa 0,0 l/m 4,1 km/h (1 Bft) O-NO 77 0 min 0,000 mm 0,0 UV-I 0 W/m 1,6 C 5,7 C 6,4 km/h (2 Bft) 100,00 %
02.11.2015 19:13 5,6 C 75 % 1028,0 hPa 0,0 l/m 4,4 km/h (1 Bft) O 84 0 min 0,000 mm 0,0 UV-I 0 W/m 1,5 C 5,6 C 6,4 km/h (2 Bft) 95,83 %
02.11.2015 19:14 5,6 C 75 % 1028,0 hPa 0,0 l/m 2,8 km/h (1 Bft) O-NO 69 0 min 0,000 mm 0,0 UV-I 0 W/m 1,5 C 5,6 C 4,8 km/h (1 Bft) 100,00 %
02.11.2015 19:15 5,6 C 75 % 1027,9 hPa 0,0 l/m 3,4 km/h (1 Bft) O-NO 64 0 min 0,000 mm 0,0 UV-I 0 W/m 1,5 C 5,6 C 6,4 km/h (2 Bft) 100,00 %
02.11.2015 19:16 5,6 C 75 % 1027,9 hPa 0,0 l/m 4,1 km/h (1 Bft) O 87 0 min 0,000 mm 0,0 UV-I 0 W/m 1,5 C 5,6 C 6,4 km/h (2 Bft) 100,00 %
02.11.2015 19:17 5,5 C 76 % 1027,9 hPa 0,0 l/m 1,9 km/h (1 Bft) O-NO 74 0 min 0,000 mm 0,0 UV-I 0 W/m 1,6 C 5,5 C 3,2 km/h (1 Bft) 99,24 %
02.11.2015 19:18 5,4 C 76 % 1027,9 hPa 0,0 l/m 1,4 km/h (1 Bft) O 86 0 min 0,000 mm 0,0 UV-I 0 W/m 1,5 C 5,4 C 3,2 km/h (1 Bft) 100,00 %
02.11.2015 19:19 5,3 C 76 % 1027,9 hPa 0,0 l/m 1,8 km/h (1 Bft) O 87 0 min 0,000 mm 0,0 UV-I 0 W/m 1,4 C 5,3 C 3,2 km/h (1 Bft) 100,00 %
02.11.2015 19:20 5,2 C 76 % 1027,9 hPa 0,0 l/m 2,3 km/h (1 Bft) O 80 0 min 0,000 mm 0,0 UV-I 0 W/m 1,3 C 5,2 C 4,8 km/h (1 Bft) 100,00 %
02.11.2015 19:21 5,2 C 76 % 1027,9 hPa 0,0 l/m 3,0 km/h (1 Bft) O 79 0 min 0,000 mm 0,0 UV-I 0 W/m 1,3 C 5,2 C 4,8 km/h (1 Bft) 100,00 %
02.11.2015 19:22 5,2 C 76 % 1027,9 hPa 0,0 l/m 1,8 km/h (1 Bft) O 79 0 min 0,000 mm 0,0 UV-I 0 W/m 1,3 C 5,2 C 3,2 km/h (1 Bft) 100,00 %
02.11.2015 19:23 5,1 C 76 % 1027,9 hPa 0,0 l/m 2,9 km/h (1 Bft) O 81 0 min 0,000 mm 0,0 UV-I 0 W/m 1,2 C 5,1 C 4,8 km/h (1 Bft) 100,00 %
02.11.2015 19:24 5,1 C 77 % 1027,9 hPa 0,0 l/m 2,0 km/h (1 Bft) O 92 0 min 0,000 mm 0,0 UV-I 0 W/m 1,4 C 5,1 C 3,2 km/h (1 Bft) 100,00 %
02.11.2015 19:25 5,1 C 77 % 1027,9 hPa 0,0 l/m 2,4 km/h (1 Bft) O 82 0 min 0,000 mm 0,0 UV-I 0 W/m 1,4 C 5,1 C 3,2 km/h (1 Bft) 100,00 %
02.11.2015 19:26 5,1 C 77 % 1027,9 hPa 0,0 l/m 2,5 km/h (1 Bft) O-SO 103 0 min 0,000 mm 0,0 UV-I 0 W/m 1,4 C 5,1 C 4,8 km/h (1 Bft) 100,00 %
02.11.2015 19:27 5,1 C 77 % 1027,9 hPa 0,0 l/m 3,7 km/h (1 Bft) O-NO 76 0 min 0,000 mm 0,0 UV-I 0 W/m 1,4 C 5,1 C 6,4 km/h (2 Bft) 100,00 %
02.11.2015 19:28 5,0 C 77 % 1027,9 hPa 0,0 l/m 2,7 km/h (1 Bft) O 81 0 min 0,000 mm 0,0 UV-I 0 W/m 1,3 C 5,0 C 4,8 km/h (1 Bft) 100,00 %
02.11.2015 19:29 4,9 C 77 % 1027,9 hPa 0,0 l/m 0,8 km/h (0 Bft) O 81 0 min 0,000 mm 0,0 UV-I 0 W/m 1,2 C 4,9 C 1,6 km/h (1 Bft) 100,00 %
02.11.2015 19:30 4,9 C 77 % 1027,9 hPa 0,0 l/m 0,2 km/h (0 Bft) O 81 0 min 0,000 mm 0,0 UV-I 0 W/m 1,2 C 4,9 C 1,6 km/h (1 Bft) 100,00 %
02.11.2015 19:31 4,8 C 77 % 1027,9 hPa 0,0 l/m 1,1 km/h (1 Bft) O 79 0 min 0,000 mm 0,0 UV-I 0 W/m 1,1 C 4,8 C 3,2 km/h (1 Bft) 100,00 %
02.11.2015 19:32 4,7 C 78 % 1027,9 hPa 0,0 l/m 0,9 km/h (0 Bft) O-NO 67 0 min 0,000 mm 0,0 UV-I 0 W/m 1,2 C 4,7 C 1,6 km/h (1 Bft) 100,00 %
02.11.2015 19:33 4,7 C 78 % 1027,9 hPa 0,0 l/m 1,3 km/h (1 Bft) N-NO 19 0 min 0,000 mm 0,0 UV-I 0 W/m 1,2 C 4,7 C 3,2 km/h (1 Bft) 100,00 %
02.11.2015 19:34 4,6 C 78 % 1027,9 hPa 0,0 l/m 0,7 km/h (0 Bft) N-NO 26 0 min 0,000 mm 0,0 UV-I 0 W/m 1,1 C 4,6 C 1,6 km/h (1 Bft) 100,00 %
02.11.2015 19:35 4,5 C 78 % 1027,9 hPa 0,0 l/m 0,8 km/h (0 Bft) N-NO 26 0 min 0,000 mm 0,0 UV-I 0 W/m 1,0 C 4,5 C 1,6 km/h (1 Bft) 100,00 %
02.11.2015 19:36 4,5 C 79 % 1027,9 hPa 0,0 l/m 0,7 km/h (0 Bft) O-NO 63 0 min 0,000 mm 0,0 UV-I 0 W/m 1,2 C 4,5 C 1,6 km/h (1 Bft) 100,00 %
02.11.2015 19:37 4,4 C 79 % 1027,9 hPa 0,0 l/m 0,4 km/h (0 Bft) O-NO 71 0 min 0,000 mm 0,0 UV-I 0 W/m 1,1 C 4,4 C 3,2 km/h (1 Bft) 100,00 %
02.11.2015 19:38 4,4 C 79 % 1027,9 hPa 0,0 l/m 1,3 km/h (1 Bft) O-NO 71 0 min 0,000 mm 0,0 UV-I 0 W/m 1,1 C 4,4 C 3,2 km/h (1 Bft) 100,00 %
02.11.2015 19:39 4,4 C 79 % 1027,9 hPa 0,0 l/m 2,4 km/h (1 Bft) O-NO 71 0 min 0,000 mm 0,0 UV-I 0 W/m 1,1 C 4,4 C 3,2 km/h (1 Bft) 100,00 %
02.11.2015 19:40 4,4 C 79 % 1027,8 hPa 0,0 l/m 2,7 km/h (1 Bft) O-NO 71 0 min 0,000 mm 0,0 UV-I 0 W/m 1,1 C 4,4 C 4,8 km/h (1 Bft) 100,00 %
02.11.2015 19:41 4,4 C 79 % 1027,8 hPa 0,0 l/m 2,8 km/h (1 Bft) O-NO 78 0 min 0,000 mm 0,0 UV-I 0 W/m 1,1 C 4,4 C 4,8 km/h (1 Bft) 100,00 %
02.11.2015 19:42 4,5 C 79 % 1027,8 hPa 0,0 l/m 1,3 km/h (1 Bft) O-NO 78 0 min 0,000 mm 0,0 UV-I 0 W/m 1,2 C 4,5 C 3,2 km/h (1 Bft) 100,00 %
02.11.2015 19:43 4,6 C 79 % 1027,8 hPa 0,0 l/m 0,3 km/h (0 Bft) O-NO 78 0 min 0,000 mm 0,0 UV-I 0 W/m 1,3 C 4,6 C 1,6 km/h (1 Bft) 100,00 %
02.11.2015 19:44 4,6 C 79 % 1027,8 hPa 0,0 l/m 0,2 km/h (0 Bft) O-NO 78 0 min 0,000 mm 0,0 UV-I 0 W/m 1,3 C 4,6 C 1,6 km/h (1 Bft) 95,65 %
02.11.2015 19:45 4,6 C 79 % 1027,8 hPa 0,0 l/m 0,5 km/h (0 Bft) O-NO 78 0 min 0,000 mm 0,0 UV-I 0 W/m 1,3 C 4,6 C 1,6 km/h (1 Bft) 100,00 %
02.11.2015 19:46 4,6 C 79 % 1027,8 hPa 0,0 l/m 0,0 km/h (0 Bft) O-NO 78 0 min 0,000 mm 0,0 UV-I 0 W/m 1,3 C 4,6 C 0,0 km/h (0 Bft) 100,00 %
02.11.2015 19:47 4,6 C 79 % 1027,8 hPa 0,0 l/m 0,0 km/h (0 Bft) O-NO 78 0 min 0,000 mm 0,0 UV-I 0 W/m 1,3 C 4,6 C 0,0 km/h (0 Bft) 100,00 %
02.11.2015 19:48 4,5 C 79 % 1027,8 hPa 0,0 l/m 0,8 km/h (0 Bft) O-NO 78 0 min 0,000 mm 0,0 UV-I 0 W/m 1,2 C 4,5 C 1,6 km/h (1 Bft) 100,00 %
02.11.2015 19:49 4,5 C 79 % 1027,8 hPa 0,0 l/m 1,3 km/h (1 Bft) O-NO 78 0 min 0,000 mm 0,0 UV-I 0 W/m 1,2 C 4,5 C 3,2 km/h (1 Bft) 91,67 %
02.11.2015 19:50 4,5 C 79 % 1027,8 hPa 0,0 l/m 2,5 km/h (1 Bft) O 82 0 min 0,000 mm 0,0 UV-I 0 W/m 1,2 C 4,5 C 3,2 km/h (1 Bft) 100,00 %
02.11.2015 19:51 4,5 C 79 % 1027,8 hPa 0,0 l/m 2,5 km/h (1 Bft) O 82 0 min 0,000 mm 0,0 UV-I 0 W/m 1,2 C 4,5 C 3,2 km/h (1 Bft) 100,00 %
02.11.2015 19:52 4,5 C 79 % 1027,8 hPa 0,0 l/m 0,9 km/h (0 Bft) O 82 0 min 0,000 mm 0,0 UV-I 0 W/m 1,2 C 4,5 C 1,6 km/h (1 Bft) 95,65 %
02.11.2015 19:53 4,5 C 79 % 1027,8 hPa 0,0 l/m 1,0 km/h (0 Bft) O 82 0 min 0,000 mm 0,0 UV-I 0 W/m 1,2 C 4,5 C 1,6 km/h (1 Bft) 100,00 %
02.11.2015 19:54 4,5 C 79 % 1027,8 hPa 0,0 l/m 0,5 km/h (0 Bft) O 82 0 min 0,000 mm 0,0 UV-I 0 W/m 1,2 C 4,5 C 1,6 km/h (1 Bft) 100,00 %
02.11.2015 19:55 4,4 C 79 % 1027,8 hPa 0,0 l/m 0,6 km/h (0 Bft) O 82 0 min 0,000 mm 0,0 UV-I 0 W/m 1,1 C 4,4 C 1,6 km/h (1 Bft) 100,00 %
02.11.2015 19:56 4,4 C 79 % 1027,8 hPa 0,0 l/m 0,0 km/h (0 Bft) O 82 0 min 0,000 mm 0,0 UV-I 0 W/m 1,1 C 4,4 C 0,0 km/h (0 Bft) 100,00 %
02.11.2015 19:57 4,4 C 79 % 1027,8 hPa 0,0 l/m 0,1 km/h (0 Bft) O 82 0 min 0,000 mm 0,0 UV-I 0 W/m 1,1 C 4,4 C 1,6 km/h (1 Bft) 100,00 %
02.11.2015 19:58 4,4 C 79 % 1027,8 hPa 0,0 l/m 0,4 km/h (0 Bft) O 82 0 min 0,000 mm 0,0 UV-I 0 W/m 1,1 C 4,4 C 1,6 km/h (1 Bft) 100,00 %
02.11.2015 19:59 4,4 C 79 % 1027,7 hPa 0,0 l/m 1,2 km/h (1 Bft) O 82 0 min 0,000 mm 0,0 UV-I 0 W/m 1,1 C 4,4 C 3,2 km/h (1 Bft) 100,00 %
02.11.2015 20:00 4,3 C 79 % 1027,8 hPa 0,0 l/m 0,4 km/h (0 Bft) O 82 0 min 0,000 mm 0,0 UV-I 0 W/m 1,0 C 4,3 C 1,6 km/h (1 Bft) 100,00 %
02.11.2015 20:01 4,3 C 79 % 1027,8 hPa 0,0 l/m 0,2 km/h (0 Bft) O 82 0 min 0,000 mm 0,0 UV-I 0 W/m 1,0 C 4,3 C 1,6 km/h (1 Bft) 100,00 %
02.11.2015 20:02 4,3 C 79 % 1027,8 hPa 0,0 l/m 0,1 km/h (0 Bft) O 82 0 min 0,000 mm 0,0 UV-I 0 W/m 1,0 C 4,3 C 1,6 km/h (1 Bft) 100,00 %
02.11.2015 20:03 4,3 C 80 % 1027,7 hPa 0,0 l/m 0,0 km/h (0 Bft) O 82 0 min 0,000 mm 0,0 UV-I 0 W/m 1,2 C 4,3 C 0,0 km/h (0 Bft) 100,00 %
02.11.2015 20:04 4,3 C 80 % 1027,7 hPa 0,0 l/m 0,0 km/h (0 Bft) O 82 0 min 0,000 mm 0,0 UV-I 0 W/m 1,2 C 4,3 C 0,0 km/h (0 Bft) 100,00 %
02.11.2015 20:05 4,2 C 80 % 1027,7 hPa 0,0 l/m 0,5 km/h (0 Bft) O 82 0 min 0,000 mm 0,0 UV-I 0 W/m 1,1 C 4,2 C 1,6 km/h (1 Bft) 100,00 %
02.11.2015 20:06 4,2 C 80 % 1027,7 hPa 0,0 l/m 0,1 km/h (0 Bft) O 82 0 min 0,000 mm 0,0 UV-I 0 W/m 1,1 C 4,2 C 1,6 km/h (1 Bft) 100,00 %
02.11.2015 20:07 4,2 C 80 % 1027,8 hPa 0,0 l/m 0,0 km/h (0 Bft) O 82 0 min 0,000 mm 0,0 UV-I 0 W/m 1,1 C 4,2 C 0,0 km/h (0 Bft) 100,00 %
02.11.2015 20:08 4,1 C 80 % 1027,7 hPa 0,0 l/m 0,0 km/h (0 Bft) O 82 0 min 0,000 mm 0,0 UV-I 0 W/m 1,0 C 4,1 C 0,0 km/h (0 Bft) 100,00 %
02.11.2015 20:09 4,0 C 80 % 1027,8 hPa 0,0 l/m 0,0 km/h (0 Bft) O 82 0 min 0,000 mm 0,0 UV-I 0 W/m 0,9 C 4,0 C 0,0 km/h (0 Bft) 100,00 %
02.11.2015 20:10 4,0 C 81 % 1027,8 hPa 0,0 l/m 0,0 km/h (0 Bft) O 82 0 min 0,000 mm 0,0 UV-I 0 W/m 1,0 C 4,0 C 0,0 km/h (0 Bft) 95,83 %
02.11.2015 20:11 4,0 C 81 % 1027,7 hPa 0,0 l/m 0,1 km/h (0 Bft) O 82 0 min 0,000 mm 0,0 UV-I 0 W/m 1,0 C 4,0 C 1,6 km/h (1 Bft) 95,65 %
02.11.2015 20:12 4,0 C 81 % 1027,7 hPa 0,0 l/m 0,1 km/h (0 Bft) O 82 0 min 0,000 mm 0,0 UV-I 0 W/m 1,0 C 4,0 C 1,6 km/h (1 Bft) 100,00 %
02.11.2015 20:13 4,0 C 81 % 1027,7 hPa 0,0 l/m 1,1 km/h (1 Bft) O 82 0 min 0,000 mm 0,0 UV-I 0 W/m 1,0 C 4,0 C 1,6 km/h (1 Bft) 99,26 %
02.11.2015 20:14 4,0 C 81 % 1027,7 hPa 0,0 l/m 1,5 km/h (1 Bft) O 82 0 min 0,000 mm 0,0 UV-I 0 W/m 1,0 C 4,0 C 3,2 km/h (1 Bft) 97,67 %
02.11.2015 20:15 4,0 C 81 % 1027,7 hPa 0,0 l/m 1,5 km/h (1 Bft) O 82 0 min 0,000 mm 0,0 UV-I 0 W/m 1,0 C 4,0 C 3,2 km/h (1 Bft) 100,00 %
02.11.2015 20:16 4,0 C 81 % 1027,7 hPa 0,0 l/m 1,3 km/h (1 Bft) O 82 0 min 0,000 mm 0,0 UV-I 0 W/m 1,0 C 4,0 C 3,2 km/h (1 Bft) 100,00 %
02.11.2015 20:17 3,9 C 81 % 1027,7 hPa 0,0 l/m 0,3 km/h (0 Bft) O 82 0 min 0,000 mm 0,0 UV-I 0 W/m 0,9 C 3,9 C 1,6 km/h (1 Bft) 100,00 %
02.11.2015 20:18 3,8 C 81 % 1027,7 hPa 0,0 l/m 0,1 km/h (0 Bft) O 82 0 min 0,000 mm 0,0 UV-I 0 W/m 0,8 C 3,8 C 1,6 km/h (1 Bft) 95,65 %
02.11.2015 20:19 3,8 C 81 % 1027,7 hPa 0,0 l/m 0,0 km/h (0 Bft) O 82 0 min 0,000 mm 0,0 UV-I 0 W/m 0,8 C 3,8 C 0,0 km/h (0 Bft) 100,00 %
02.11.2015 20:20 3,7 C 81 % 1027,8 hPa 0,0 l/m 0,0 km/h (0 Bft) O 82 0 min 0,000 mm 0,0 UV-I 0 W/m 0,7 C 3,7 C 0,0 km/h (0 Bft) 96,15 %
02.11.2015 20:21 3,6 C 82 % 1027,7 hPa 0,0 l/m 0,0 km/h (0 Bft) O 82 0 min 0,000 mm 0,0 UV-I 0 W/m 0,8 C 3,6 C 0,0 km/h (0 Bft) 100,00 %
02.11.2015 20:22 3,5 C 82 % 1027,7 hPa 0,0 l/m 0,0 km/h (0 Bft) O 82 0 min 0,000 mm 0,0 UV-I 0 W/m 0,7 C 3,5 C 0,0 km/h (0 Bft) 100,00 %
02.11.2015 20:23 3,4 C 83 % 1027,7 hPa 0,0 l/m 0,1 km/h (0 Bft) O 82 0 min 0,000 mm 0,0 UV-I 0 W/m 0,8 C 3,4 C 1,6 km/h (1 Bft) 100,00 %
02.11.2015 20:24 3,3 C 83 % 1027,7 hPa 0,0 l/m 0,7 km/h (0 Bft) O 82 0 min 0,000 mm 0,0 UV-I 0 W/m 0,7 C 3,3 C 1,6 km/h (1 Bft) 96,30 %
02.11.2015 20:25 3,3 C 84 % 1027,7 hPa 0,0 l/m 0,7 km/h (0 Bft) O 82 0 min 0,000 mm 0,0 UV-I 0 W/m 0,9 C 3,3 C 1,6 km/h (1 Bft) 100,00 %
02.11.2015 20:26 3,2 C 84 % 1027,6 hPa 0,0 l/m 0,9 km/h (0 Bft) O 82 0 min 0,000 mm 0,0 UV-I 0 W/m 0,8 C 3,2 C 1,6 km/h (1 Bft) 96,55 %
02.11.2015 20:27 3,2 C 85 % 1027,6 hPa 0,0 l/m 1,2 km/h (1 Bft) O 82 0 min 0,000 mm 0,0 UV-I 0 W/m 0,9 C 3,2 C 1,6 km/h (1 Bft) 100,00 %
02.11.2015 20:28 3,1 C 85 % 1027,6 hPa 0,0 l/m 0,7 km/h (0 Bft) O 82 0 min 0,000 mm 0,0 UV-I 0 W/m 0,8 C 3,1 C 1,6 km/h (1 Bft) 100,00 %
02.11.2015 20:29 3,2 C 85 % 1027,6 hPa 0,0 l/m 0,7 km/h (0 Bft) O 82 0 min 0,000 mm 0,0 UV-I 0 W/m 0,9 C 3,2 C 1,6 km/h (1 Bft) 95,83 %
02.11.2015 20:30 3,2 C 85 % 1027,6 hPa 0,0 l/m 0,0 km/h (0 Bft) O 82 0 min 0,000 mm 0,0 UV-I 0 W/m 0,9 C 3,2 C 0,0 km/h (0 Bft) 100,00 %
02.11.2015 20:31 3,2 C 84 % 1027,6 hPa 0,0 l/m 0,0 km/h (0 Bft) O 82 0 min 0,000 mm 0,0 UV-I 0 W/m 0,8 C 3,2 C 0,0 km/h (0 Bft) 100,00 %
02.11.2015 20:32 3,3 C 84 % 1027,6 hPa 0,0 l/m 0,0 km/h (0 Bft) O 82 0 min 0,000 mm 0,0 UV-I 0 W/m 0,9 C 3,3 C 0,0 km/h (0 Bft) 97,14 %
02.11.2015 20:33 3,3 C 84 % 1027,6 hPa 0,0 l/m 0,0 km/h (0 Bft) O 82 0 min 0,000 mm 0,0 UV-I 0 W/m 0,9 C 3,3 C 0,0 km/h (0 Bft) 100,00 %
02.11.2015 20:34 3,3 C 84 % 1027,6 hPa 0,0 l/m 0,0 km/h (0 Bft) O 82 0 min 0,000 mm 0,0 UV-I 0 W/m 0,9 C 3,3 C 0,0 km/h (0 Bft) 100,00 %
02.11.2015 20:35 3,3 C 84 % 1027,5 hPa 0,0 l/m 0,0 km/h (0 Bft) O 82 0 min 0,000 mm 0,0 UV-I 0 W/m 0,9 C 3,3 C 0,0 km/h (0 Bft) 100,00 %
02.11.2015 20:36 3,3 C 84 % 1027,6 hPa 0,0 l/m 0,6 km/h (0 Bft) O 82 0 min 0,000 mm 0,0 UV-I 0 W/m 0,9 C 3,3 C 1,6 km/h (1 Bft) 100,00 %
02.11.2015 20:37 3,2 C 83 % 1027,5 hPa 0,0 l/m 1,4 km/h (1 Bft) O 82 0 min 0,000 mm 0,0 UV-I 0 W/m 0,6 C 3,2 C 1,6 km/h (1 Bft) 97,56 %
02.11.2015 20:38 3,2 C 84 % 1027,5 hPa 0,0 l/m 2,1 km/h (1 Bft) O 82 0 min 0,000 mm 0,0 UV-I 0 W/m 0,8 C 3,2 C 3,2 km/h (1 Bft) 100,00 %
02.11.2015 20:39 3,1 C 84 % 1027,5 hPa 0,0 l/m 1,8 km/h (1 Bft) O 82 0 min 0,000 mm 0,0 UV-I 0 W/m 0,7 C 3,1 C 3,2 km/h (1 Bft) 100,00 %
02.11.2015 20:40 2,9 C 84 % 1027,5 hPa 0,0 l/m 1,7 km/h (1 Bft) O 82 0 min 0,000 mm 0,0 UV-I 0 W/m 0,5 C 2,9 C 3,2 km/h (1 Bft) 100,00 %
02.11.2015 20:41 2,9 C 85 % 1027,5 hPa 0,0 l/m 1,4 km/h (1 Bft) O 82 0 min 0,000 mm 0,0 UV-I 0 W/m 0,6 C 2,9 C 1,6 km/h (1 Bft) 100,00 %
02.11.2015 20:42 2,8 C 85 % 1027,5 hPa 0,0 l/m 1,6 km/h (1 Bft) O 82 0 min 0,000 mm 0,0 UV-I 0 W/m 0,5 C 2,8 C 3,2 km/h (1 Bft) 100,00 %
02.11.2015 20:43 2,8 C 85 % 1027,6 hPa 0,0 l/m 1,2 km/h (1 Bft) O 82 0 min 0,000 mm 0,0 UV-I 0 W/m 0,5 C 2,8 C 1,6 km/h (1 Bft) 100,00 %
02.11.2015 20:44 2,7 C 86 % 1027,5 hPa 0,0 l/m 1,0 km/h (0 Bft) O 82 0 min 0,000 mm 0,0 UV-I 0 W/m 0,6 C 2,7 C 1,6 km/h (1 Bft) 100,00 %
02.11.2015 20:45 2,7 C 86 % 1027,6 hPa 0,0 l/m 0,5 km/h (0 Bft) O 82 0 min 0,000 mm 0,0 UV-I 0 W/m 0,6 C 2,7 C 1,6 km/h (1 Bft) 100,00 %
02.11.2015 20:46 2,7 C 86 % 1027,5 hPa 0,0 l/m 0,0 km/h (0 Bft) O 82 0 min 0,000 mm 0,0 UV-I 0 W/m 0,6 C 2,7 C 0,0 km/h (0 Bft) 100,00 %
02.11.2015 20:47 2,7 C 86 % 1027,6 hPa 0,0 l/m 0,0 km/h (0 Bft) O 82 0 min 0,000 mm 0,0 UV-I 0 W/m 0,6 C 2,7 C 0,0 km/h (0 Bft) 100,00 %
02.11.2015 20:48 2,8 C 86 % 1027,6 hPa 0,0 l/m 0,0 km/h (0 Bft) O 82 0 min 0,000 mm 0,0 UV-I 0 W/m 0,7 C 2,8 C 0,0 km/h (0 Bft) 96,30 %
02.11.2015 20:49 2,8 C 86 % 1027,5 hPa 0,0 l/m 0,0 km/h (0 Bft) O 82 0 min 0,000 mm 0,0 UV-I 0 W/m 0,7 C 2,8 C 0,0 km/h (0 Bft) 100,00 %
02.11.2015 20:50 2,8 C 85 % 1027,5 hPa 0,0 l/m 0,0 km/h (0 Bft) O 82 0 min 0,000 mm 0,0 UV-I 0 W/m 0,5 C 2,8 C 0,0 km/h (0 Bft) 100,00 %
02.11.2015 20:51 2,8 C 86 % 1027,5 hPa 0,0 l/m 0,4 km/h (0 Bft) O 82 0 min 0,000 mm 0,0 UV-I 0 W/m 0,7 C 2,8 C 1,6 km/h (1 Bft) 100,00 %
02.11.2015 20:52 2,7 C 86 % 1027,5 hPa 0,0 l/m 0,2 km/h (0 Bft) O 82 0 min 0,000 mm 0,0 UV-I 0 W/m 0,6 C 2,7 C 1,6 km/h (1 Bft) 100,00 %
02.11.2015 20:53 2,7 C 86 % 1027,5 hPa 0,0 l/m 0,0 km/h (0 Bft) O 82 0 min 0,000 mm 0,0 UV-I 0 W/m 0,6 C 2,7 C 0,0 km/h (0 Bft) 95,65 %
02.11.2015 20:54 2,6 C 85 % 1027,5 hPa 0,0 l/m 0,0 km/h (0 Bft) O 82 0 min 0,000 mm 0,0 UV-I 0 W/m 0,3 C 2,6 C 0,0 km/h (0 Bft) 100,00 %
02.11.2015 20:55 2,5 C 85 % 1027,5 hPa 0,0 l/m 0,0 km/h (0 Bft) O 82 0 min 0,000 mm 0,0 UV-I 0 W/m 0,2 C 2,5 C 0,0 km/h (0 Bft) 100,00 %
02.11.2015 20:56 2,4 C 86 % 1027,6 hPa 0,0 l/m 0,0 km/h (0 Bft) O 82 0 min 0,000 mm 0,0 UV-I 0 W/m 0,3 C 2,4 C 0,0 km/h (0 Bft) 100,00 %
02.11.2015 20:57 2,4 C 86 % 1027,5 hPa 0,0 l/m 0,1 km/h (0 Bft) O 82 0 min 0,000 mm 0,0 UV-I 0 W/m 0,3 C 2,4 C 1,6 km/h (1 Bft) 100,00 %
02.11.2015 20:58 2,3 C 86 % 1027,6 hPa 0,0 l/m 0,0 km/h (0 Bft) O 82 0 min 0,000 mm 0,0 UV-I 0 W/m 0,2 C 2,3 C 0,0 km/h (0 Bft) 100,00 %
02.11.2015 20:59 2,3 C 87 % 1027,6 hPa 0,0 l/m 0,0 km/h (0 Bft) O 82 0 min 0,000 mm 0,0 UV-I 0 W/m 0,4 C 2,3 C 0,0 km/h (0 Bft) 100,00 %
02.11.2015 21:00 2,3 C 86 % 1027,6 hPa 0,0 l/m 0,0 km/h (0 Bft) O 82 0 min 0,000 mm 0,0 UV-I 0 W/m 0,2 C 2,3 C 0,0 km/h (0 Bft) 100,00 %
02.11.2015 21:02 2,1 C 86 % 1027,6 hPa 0,0 l/m 0,5 km/h (0 Bft) O 82 0 min 0,000 mm 0,0 UV-I 0 W/m 0,0 C 2,1 C 1,6 km/h (1 Bft) 100,00 %
02.11.2015 21:03 1,9 C 86 % 1027,6 hPa 0,0 l/m 0,7 km/h (0 Bft) O 82 0 min 0,000 mm 0,0 UV-I 0 W/m -0,2 C 1,9 C 1,6 km/h (1 Bft) 95,83 %
02.11.2015 21:04 1,9 C 87 % 1027,6 hPa 0,0 l/m 0,0 km/h (0 Bft) O 82 0 min 0,000 mm 0,0 UV-I 0 W/m -0,0 C 1,9 C 0,0 km/h (0 Bft) 100,00 %
02.11.2015 21:05 1,8 C 87 % 1027,6 hPa 0,0 l/m 0,0 km/h (0 Bft) O 82 0 min 0,000 mm 0,0 UV-I 0 W/m -0,1 C 1,8 C 0,0 km/h (0 Bft) 100,00 %
02.11.2015 21:06 1,8 C 88 % 1027,6 hPa 0,0 l/m 0,0 km/h (0 Bft) O 82 0 min 0,000 mm 0,0 UV-I 0 W/m 0,0 C 1,8 C 0,0 km/h (0 Bft) 95,65 %
02.11.2015 21:07 1,7 C 88 % 1027,6 hPa 0,0 l/m 0,7 km/h (0 Bft) O 82 0 min 0,000 mm 0,0 UV-I 0 W/m -0,1 C 1,7 C 1,6 km/h (1 Bft) 100,00 %
02.11.2015 21:08 1,7 C 88 % 1027,6 hPa 0,0 l/m 0,7 km/h (0 Bft) O 82 0 min 0,000 mm 0,0 UV-I 0 W/m -0,1 C 1,7 C 1,6 km/h (1 Bft) 100,00 %
02.11.2015 21:09 1,7 C 88 % 1027,7 hPa 0,0 l/m 0,7 km/h (0 Bft) O 82 0 min 0,000 mm 0,0 UV-I 0 W/m -0,1 C 1,7 C 1,6 km/h (1 Bft) 100,00 %
02.11.2015 21:10 1,7 C 88 % 1027,6 hPa 0,0 l/m 0,5 km/h (0 Bft) O 82 0 min 0,000 mm 0,0 UV-I 0 W/m -0,1 C 1,7 C 1,6 km/h (1 Bft) 100,00 %
02.11.2015 21:11 1,7 C 88 % 1027,6 hPa 0,0 l/m 0,3 km/h (0 Bft) O 82 0 min 0,000 mm 0,0 UV-I 0 W/m -0,1 C 1,7 C 1,6 km/h (1 Bft) 100,00 %
02.11.2015 21:12 1,6 C 88 % 1027,6 hPa 0,0 l/m 1,3 km/h (1 Bft) O 82 0 min 0,000 mm 0,0 UV-I 0 W/m -0,2 C 1,6 C 3,2 km/h (1 Bft) 100,00 %
02.11.2015 21:13 1,6 C 89 % 1027,6 hPa 0,0 l/m 1,3 km/h (1 Bft) O 82 0 min 0,000 mm 0,0 UV-I 0 W/m -0,0 C 1,6 C 3,2 km/h (1 Bft) 95,83 %
02.11.2015 21:14 1,5 C 89 % 1027,6 hPa 0,0 l/m 1,6 km/h (1 Bft) O 82 0 min 0,000 mm 0,0 UV-I 0 W/m -0,1 C 1,5 C 3,2 km/h (1 Bft) 100,00 %
02.11.2015 21:15 1,4 C 89 % 1027,6 hPa 0,0 l/m 1,3 km/h (1 Bft) O 82 0 min 0,000 mm 0,0 UV-I 0 W/m -0,2 C 1,4 C 3,2 km/h (1 Bft) 100,00 %
02.11.2015 21:16 1,4 C 90 % 1027,6 hPa 0,0 l/m 0,0 km/h (0 Bft) O 82 0 min 0,000 mm 0,0 UV-I 0 W/m -0,1 C 1,4 C 0,0 km/h (0 Bft) 100,00 %
02.11.2015 21:17 1,4 C 90 % 1027,6 hPa 0,0 l/m 0,0 km/h (0 Bft) O 82 0 min 0,000 mm 0,0 UV-I 0 W/m -0,1 C 1,4 C 0,0 km/h (0 Bft) 100,00 %
02.11.2015 21:18 1,5 C 90 % 1027,6 hPa 0,0 l/m 0,0 km/h (0 Bft) O 82 0 min 0,000 mm 0,0 UV-I 0 W/m 0,0 C 1,5 C 0,0 km/h (0 Bft) 100,00 %
02.11.2015 21:19 1,5 C 90 % 1027,6 hPa 0,0 l/m 0,0 km/h (0 Bft) O 82 0 min 0,000 mm 0,0 UV-I 0 W/m 0,0 C 1,5 C 0,0 km/h (0 Bft) 100,00 %
02.11.2015 21:20 1,5 C 89 % 1027,6 hPa 0,0 l/m 0,0 km/h (0 Bft) O 82 0 min 0,000 mm 0,0 UV-I 0 W/m -0,1 C 1,5 C 0,0 km/h (0 Bft) 100,00 %
02.11.2015 21:21 1,5 C 90 % 1027,6 hPa 0,0 l/m 0,7 km/h (0 Bft) O 82 0 min 0,000 mm 0,0 UV-I 0 W/m 0,0 C 1,5 C 3,2 km/h (1 Bft) 91,30 %
02.11.2015 21:22 1,5 C 90 % 1027,6 hPa 0,0 l/m 0,8 km/h (0 Bft) O 82 0 min 0,000 mm 0,0 UV-I 0 W/m 0,0 C 1,5 C 1,6 km/h (1 Bft) 100,00 %
02.11.2015 21:23 1,6 C 90 % 1027,6 hPa 0,0 l/m 1,2 km/h (1 Bft) O 82 0 min 0,000 mm 0,0 UV-I 0 W/m 0,1 C 1,6 C 3,2 km/h (1 Bft) 100,00 %
02.11.2015 21:24 1,6 C 90 % 1027,7 hPa 0,0 l/m 1,1 km/h (1 Bft) O 82 0 min 0,000 mm 0,0 UV-I 0 W/m 0,1 C 1,6 C 1,6 km/h (1 Bft) 100,00 %
02.11.2015 21:25 1,6 C 90 % 1027,6 hPa 0,0 l/m 0,8 km/h (0 Bft) O 82 0 min 0,000 mm 0,0 UV-I 0 W/m 0,1 C 1,6 C 1,6 km/h (1 Bft) 100,00 %
02.11.2015 21:26 1,5 C 89 % 1027,7 hPa 0,0 l/m 1,2 km/h (1 Bft) O 82 0 min 0,000 mm 0,0 UV-I 0 W/m -0,1 C 1,5 C 1,6 km/h (1 Bft) 95,83 %
02.11.2015 21:27 1,4 C 89 % 1027,7 hPa 0,0 l/m 1,5 km/h (1 Bft) O 82 0 min 0,000 mm 0,0 UV-I 0 W/m -0,2 C 1,4 C 1,6 km/h (1 Bft) 100,00 %
02.11.2015 21:28 1,4 C 89 % 1027,7 hPa 0,0 l/m 1,2 km/h (1 Bft) O 82 0 min 0,000 mm 0,0 UV-I 0 W/m -0,2 C 1,4 C 1,6 km/h (1 Bft) 100,00 %
02.11.2015 21:29 1,3 C 90 % 1027,7 hPa 0,0 l/m 1,0 km/h (0 Bft) O 82 0 min 0,000 mm 0,0 UV-I 0 W/m -0,2 C 1,3 C 1,6 km/h (1 Bft) 100,00 %
02.11.2015 21:30 1,3 C 90 % 1027,7 hPa 0,0 l/m 0,5 km/h (0 Bft) O 82 0 min 0,000 mm 0,0 UV-I 0 W/m -0,2 C 1,3 C 1,6 km/h (1 Bft) 100,00 %
02.11.2015 21:32 1,5 C 91 % 1027,7 hPa 0,0 l/m 0,0 km/h (0 Bft) O 82 0 min 0,000 mm 0,0 UV-I 0 W/m 0,2 C 1,5 C 0,0 km/h (0 Bft) 100,00 %
02.11.2015 21:33 1,6 C 91 % 1027,7 hPa 0,0 l/m 0,0 km/h (0 Bft) O 82 0 min 0,000 mm 0,0 UV-I 0 W/m 0,3 C 1,6 C 0,0 km/h (0 Bft) 100,00 %
02.11.2015 21:34 1,7 C 91 % 1027,7 hPa 0,0 l/m 0,0 km/h (0 Bft) O 82 0 min 0,000 mm 0,0 UV-I 0 W/m 0,4 C 1,7 C 0,0 km/h (0 Bft) 100,00 %
02.11.2015 21:35 1,7 C 90 % 1027,7 hPa 0,0 l/m 0,0 km/h (0 Bft) O 82 0 min 0,000 mm 0,0 UV-I 0 W/m 0,2 C 1,7 C 0,0 km/h (0 Bft) 100,00 %
02.11.2015 21:36 1,7 C 90 % 1027,7 hPa 0,0 l/m 0,0 km/h (0 Bft) O 82 0 min 0,000 mm 0,0 UV-I 0 W/m 0,2 C 1,7 C 0,0 km/h (0 Bft) 100,00 %
02.11.2015 21:37 1,7 C 90 % 1027,7 hPa 0,0 l/m 0,0 km/h (0 Bft) O 82 0 min 0,000 mm 0,0 UV-I 0 W/m 0,2 C 1,7 C 0,0 km/h (0 Bft) 100,00 %
02.11.2015 21:38 1,7 C 89 % 1027,7 hPa 0,0 l/m 0,0 km/h (0 Bft) O 82 0 min 0,000 mm 0,0 UV-I 0 W/m 0,1 C 1,7 C 0,0 km/h (0 Bft) 100,00 %
02.11.2015 21:39 1,7 C 89 % 1027,7 hPa 0,0 l/m 0,0 km/h (0 Bft) O 82 0 min 0,000 mm 0,0 UV-I 0 W/m 0,1 C 1,7 C 0,0 km/h (0 Bft) 100,00 %
02.11.2015 21:40 1,7 C 89 % 1027,7 hPa 0,0 l/m 0,0 km/h (0 Bft) O 82 0 min 0,000 mm 0,0 UV-I 0 W/m 0,1 C 1,7 C 0,0 km/h (0 Bft) 100,00 %
02.11.2015 21:41 1,7 C 89 % 1027,7 hPa 0,0 l/m 0,0 km/h (0 Bft) O 82 0 min 0,000 mm 0,0 UV-I 0 W/m 0,1 C 1,7 C 0,0 km/h (0 Bft) 100,00 %
02.11.2015 21:42 1,7 C 88 % 1027,7 hPa 0,0 l/m 0,0 km/h (0 Bft) O 82 0 min 0,000 mm 0,0 UV-I 0 W/m -0,1 C 1,7 C 0,0 km/h (0 Bft) 100,00 %
02.11.2015 21:43 1,6 C 89 % 1027,7 hPa 0,0 l/m 0,0 km/h (0 Bft) O 82 0 min 0,000 mm 0,0 UV-I 0 W/m -0,0 C 1,6 C 0,0 km/h (0 Bft) 100,00 %
02.11.2015 21:45 1,6 C 89 % 1027,7 hPa 0,0 l/m 0,0 km/h (0 Bft) O 90 0 min 0,000 mm 0,0 UV-I 0 W/m -0,0 C 1,6 C 1,6 km/h (1 Bft) 100,00 %
02.11.2015 21:48 1,3 C 90 % 1027,6 hPa 0,0 l/m 0,5 km/h (0 Bft) O 82 0 min 0,000 mm 0,0 UV-I 0 W/m -0,2 C 1,3 C 1,6 km/h (1 Bft) 98,11 %
02.11.2015 21:49 1,2 C 90 % 1027,6 hPa 0,0 l/m 0,2 km/h (0 Bft) O 82 0 min 0,000 mm 0,0 UV-I 0 W/m -0,3 C 1,2 C 1,6 km/h (1 Bft) 100,00 %
02.11.2015 21:50 1,2 C 90 % 1027,6 hPa 0,0 l/m 1,3 km/h (1 Bft) O 82 0 min 0,000 mm 0,0 UV-I 0 W/m -0,3 C 1,2 C 1,6 km/h (1 Bft) 100,00 %
02.11.2015 21:51 1,1 C 90 % 1027,6 hPa 0,0 l/m 1,2 km/h (1 Bft) O 82 0 min 0,000 mm 0,0 UV-I 0 W/m -0,4 C 1,1 C 1,6 km/h (1 Bft) 100,00 %
02.11.2015 21:52 1,1 C 90 % 1027,5 hPa 0,0 l/m 1,2 km/h (1 Bft) O 82 0 min 0,000 mm 0,0 UV-I 0 W/m -0,4 C 1,1 C 1,6 km/h (1 Bft) 100,00 %
02.11.2015 21:53 1,1 C 91 % 1027,5 hPa 0,0 l/m 1,1 km/h (1 Bft) O 82 0 min 0,000 mm 0,0 UV-I 0 W/m -0,2 C 1,1 C 1,6 km/h (1 Bft) 95,83 %
02.11.2015 21:54 1,1 C 92 % 1027,5 hPa 0,0 l/m 0,2 km/h (0 Bft) O 82 0 min 0,000 mm 0,0 UV-I 0 W/m -0,1 C 1,1 C 1,6 km/h (1 Bft) 100,00 %
02.11.2015 21:55 1,2 C 92 % 1027,5 hPa 0,0 l/m 0,0 km/h (0 Bft) O 82 0 min 0,000 mm 0,0 UV-I 0 W/m 0,0 C 1,2 C 0,0 km/h (0 Bft) 100,00 %
02.11.2015 21:56 1,2 C 91 % 1027,5 hPa 0,0 l/m 0,0 km/h (0 Bft) O 82 0 min 0,000 mm 0,0 UV-I 0 W/m -0,1 C 1,2 C 0,0 km/h (0 Bft) 100,00 %
02.11.2015 21:57 1,1 C 91 % 1027,5 hPa 0,0 l/m 0,0 km/h (0 Bft) O 82 0 min 0,000 mm 0,0 UV-I 0 W/m -0,2 C 1,1 C 0,0 km/h (0 Bft) 100,00 %
02.11.2015 21:58 1,1 C 91 % 1027,5 hPa 0,0 l/m 0,0 km/h (0 Bft) O 82 0 min 0,000 mm 0,0 UV-I 0 W/m -0,2 C 1,1 C 0,0 km/h (0 Bft) 100,00 %
02.11.2015 21:59 1,2 C 91 % 1027,6 hPa 0,0 l/m 0,0 km/h (0 Bft) O 82 0 min 0,000 mm 0,0 UV-I 0 W/m -0,1 C 1,2 C 0,0 km/h (0 Bft) 95,83 %
02.11.2015 22:00 1,1 C 91 % 1027,6 hPa 0,0 l/m 0,0 km/h (0 Bft) O 82 0 min 0,000 mm 0,0 UV-I 0 W/m -0,2 C 1,1 C 0,0 km/h (0 Bft) 100,00 %
02.11.2015 22:02 1,1 C 90 % 1027,6 hPa 0,0 l/m 0,9 km/h (0 Bft) O 82 0 min 0,000 mm 0,0 UV-I 0 W/m -0,4 C 1,1 C 1,6 km/h (1 Bft) 100,00 %
02.11.2015 22:03 1,0 C 90 % 1027,6 hPa 0,0 l/m 0,9 km/h (0 Bft) O 82 0 min 0,000 mm 0,0 UV-I 0 W/m -0,5 C 1,0 C 1,6 km/h (1 Bft) 100,00 %
02.11.2015 22:04 1,0 C 90 % 1027,6 hPa 0,0 l/m 1,3 km/h (1 Bft) O 82 0 min 0,000 mm 0,0 UV-I 0 W/m -0,5 C 1,0 C 1,6 km/h (1 Bft) 100,00 %
02.11.2015 22:05 0,9 C 90 % 1027,7 hPa 0,0 l/m 0,7 km/h (0 Bft) O 82 0 min 0,000 mm 0,0 UV-I 0 W/m -0,6 C 0,9 C 1,6 km/h (1 Bft) 100,00 %
02.11.2015 22:06 0,9 C 90 % 1027,8 hPa 0,0 l/m 0,3 km/h (0 Bft) O 82 0 min 0,000 mm 0,0 UV-I 0 W/m -0,6 C 0,9 C 1,6 km/h (1 Bft) 96,15 %
02.11.2015 22:07 0,8 C 91 % 1027,8 hPa 0,0 l/m 0,0 km/h (0 Bft) O 82 0 min 0,000 mm 0,0 UV-I 0 W/m -0,5 C 0,8 C 0,0 km/h (0 Bft) 100,00 %
02.11.2015 22:08 0,8 C 91 % 1027,8 hPa 0,0 l/m 0,0 km/h (0 Bft) O 82 0 min 0,000 mm 0,0 UV-I 0 W/m -0,5 C 0,8 C 0,0 km/h (0 Bft) 100,00 %
02.11.2015 22:09 0,8 C 91 % 1027,8 hPa 0,0 l/m 0,0 km/h (0 Bft) O 82 0 min 0,000 mm 0,0 UV-I 0 W/m -0,5 C 0,8 C 0,0 km/h (0 Bft) 100,00 %
02.11.2015 22:10 0,8 C 92 % 1027,8 hPa 0,0 l/m 0,1 km/h (0 Bft) O 82 0 min 0,000 mm 0,0 UV-I 0 W/m -0,3 C 0,8 C 1,6 km/h (1 Bft) 100,00 %
02.11.2015 22:11 0,8 C 92 % 1027,8 hPa 0,0 l/m 0,0 km/h (0 Bft) O 82 0 min 0,000 mm 0,0 UV-I 0 W/m -0,3 C 0,8 C 0,0 km/h (0 Bft) 100,00 %
02.11.2015 22:12 0,8 C 92 % 1027,8 hPa 0,0 l/m 0,0 km/h (0 Bft) O 82 0 min 0,000 mm 0,0 UV-I 0 W/m -0,3 C 0,8 C 0,0 km/h (0 Bft) 100,00 %
02.11.2015 22:13 0,8 C 92 % 1027,8 hPa 0,0 l/m 0,0 km/h (0 Bft) O 82 0 min 0,000 mm 0,0 UV-I 0 W/m -0,3 C 0,8 C 0,0 km/h (0 Bft) 100,00 %
02.11.2015 22:14 0,8 C 92 % 1027,8 hPa 0,0 l/m 0,0 km/h (0 Bft) O 82 0 min 0,000 mm 0,0 UV-I 0 W/m -0,3 C 0,8 C 0,0 km/h (0 Bft) 100,00 %
02.11.2015 22:15 0,9 C 92 % 1027,7 hPa 0,0 l/m 0,0 km/h (0 Bft) O 82 0 min 0,000 mm 0,0 UV-I 0 W/m -0,2 C 0,9 C 0,0 km/h (0 Bft) 100,00 %
02.11.2015 22:16 1,0 C 92 % 1027,8 hPa 0,0 l/m 0,0 km/h (0 Bft) O 82 0 min 0,000 mm 0,0 UV-I 0 W/m -0,2 C 1,0 C 0,0 km/h (0 Bft) 100,00 %
02.11.2015 22:17 1,0 C 92 % 1027,7 hPa 0,0 l/m 0,3 km/h (0 Bft) O 82 0 min 0,000 mm 0,0 UV-I 0 W/m -0,2 C 1,0 C 1,6 km/h (1 Bft) 100,00 %
02.11.2015 22:18 1,0 C 92 % 1027,7 hPa 0,0 l/m 1,7 km/h (1 Bft) O 82 0 min 0,000 mm 0,0 UV-I 0 W/m -0,2 C 1,0 C 3,2 km/h (1 Bft) 100,00 %
02.11.2015 22:19 1,0 C 91 % 1027,7 hPa 0,0 l/m 1,1 km/h (1 Bft) O 82 0 min 0,000 mm 0,0 UV-I 0 W/m -0,3 C 1,0 C 1,6 km/h (1 Bft) 100,00 %
02.11.2015 22:20 1,0 C 92 % 1027,7 hPa 0,0 l/m 1,3 km/h (1 Bft) O 82 0 min 0,000 mm 0,0 UV-I 0 W/m -0,2 C 1,0 C 1,6 km/h (1 Bft) 100,00 %
02.11.2015 22:21 0,9 C 92 % 1027,7 hPa 0,0 l/m 1,3 km/h (1 Bft) O 82 0 min 0,000 mm 0,0 UV-I 0 W/m -0,2 C 0,9 C 1,6 km/h (1 Bft) 100,00 %
02.11.2015 22:22 1,0 C 92 % 1027,7 hPa 0,0 l/m 0,9 km/h (0 Bft) O 82 0 min 0,000 mm 0,0 UV-I 0 W/m -0,2 C 1,0 C 1,6 km/h (1 Bft) 100,00 %
02.11.2015 22:23 1,1 C 93 % 1027,7 hPa 0,0 l/m 0,0 km/h (0 Bft) O 82 0 min 0,000 mm 0,0 UV-I 0 W/m 0,1 C 1,1 C 0,0 km/h (0 Bft) 100,00 %
02.11.2015 22:24 1,1 C 93 % 1027,6 hPa 0,0 l/m 0,0 km/h (0 Bft) O 82 0 min 0,000 mm 0,0 UV-I 0 W/m 0,1 C 1,1 C 0,0 km/h (0 Bft) 100,00 %
02.11.2015 22:25 1,2 C 92 % 1027,7 hPa 0,0 l/m 0,0 km/h (0 Bft) O 82 0 min 0,000 mm 0,0 UV-I 0 W/m 0,0 C 1,2 C 0,0 km/h (0 Bft) 100,00 %
02.11.2015 22:26 1,2 C 92 % 1027,7 hPa 0,0 l/m 0,0 km/h (0 Bft) O 82 0 min 0,000 mm 0,0 UV-I 0 W/m 0,0 C 1,2 C 0,0 km/h (0 Bft) 100,00 %
02.11.2015 22:27 1,3 C 92 % 1027,7 hPa 0,0 l/m 0,0 km/h (0 Bft) O 82 0 min 0,000 mm 0,0 UV-I 0 W/m 0,1 C 1,3 C 0,0 km/h (0 Bft) 100,00 %
02.11.2015 22:28 1,3 C 91 % 1027,6 hPa 0,0 l/m 0,0 km/h (0 Bft) O 82 0 min 0,000 mm 0,0 UV-I 0 W/m -0,0 C 1,3 C 0,0 km/h (0 Bft) 100,00 %
02.11.2015 22:29 1,3 C 91 % 1027,6 hPa 0,0 l/m 0,0 km/h (0 Bft) O 82 0 min 0,000 mm 0,0 UV-I 0 W/m -0,0 C 1,3 C 0,0 km/h (0 Bft) 100,00 %
02.11.2015 22:30 1,3 C 91 % 1027,6 hPa 0,0 l/m 0,0 km/h (0 Bft) O 82 0 min 0,000 mm 0,0 UV-I 0 W/m -0,0 C 1,3 C 0,0 km/h (0 Bft) 100,00 %
02.11.2015 22:31 1,2 C 91 % 1027,6 hPa 0,0 l/m 0,0 km/h (0 Bft) O 82 0 min 0,000 mm 0,0 UV-I 0 W/m -0,1 C 1,2 C 0,0 km/h (0 Bft) 95,83 %
02.11.2015 22:32 1,2 C 91 % 1027,6 hPa 0,0 l/m 0,0 km/h (0 Bft) O 82 0 min 0,000 mm 0,0 UV-I 0 W/m -0,1 C 1,2 C 0,0 km/h (0 Bft) 95,65 %
02.11.2015 22:33 1,2 C 92 % 1027,6 hPa 0,0 l/m 0,0 km/h (0 Bft) O 82 0 min 0,000 mm 0,0 UV-I 0 W/m 0,0 C 1,2 C 0,0 km/h (0 Bft) 100,00 %
02.11.2015 22:34 1,3 C 92 % 1027,5 hPa 0,0 l/m 0,0 km/h (0 Bft) O 82 0 min 0,000 mm 0,0 UV-I 0 W/m 0,1 C 1,3 C 0,0 km/h (0 Bft) 100,00 %
02.11.2015 22:35 1,3 C 92 % 1027,5 hPa 0,0 l/m 0,1 km/h (0 Bft) O 82 0 min 0,000 mm 0,0 UV-I 0 W/m 0,1 C 1,3 C 1,6 km/h (1 Bft) 100,00 %
02.11.2015 22:36 1,4 C 91 % 1027,6 hPa 0,0 l/m 0,0 km/h (0 Bft) O 82 0 min 0,000 mm 0,0 UV-I 0 W/m 0,1 C 1,4 C 0,0 km/h (0 Bft) 100,00 %
02.11.2015 22:37 1,4 C 90 % 1027,5 hPa 0,0 l/m 0,0 km/h (0 Bft) O 82 0 min 0,000 mm 0,0 UV-I 0 W/m -0,1 C 1,4 C 0,0 km/h (0 Bft) 100,00 %
02.11.2015 22:38 1,3 C 90 % 1027,6 hPa 0,0 l/m 0,0 km/h (0 Bft) O 82 0 min 0,000 mm 0,0 UV-I 0 W/m -0,2 C 1,3 C 0,0 km/h (0 Bft) 100,00 %
02.11.2015 22:39 1,3 C 90 % 1027,5 hPa 0,0 l/m 0,0 km/h (0 Bft) O 82 0 min 0,000 mm 0,0 UV-I 0 W/m -0,2 C 1,3 C 0,0 km/h (0 Bft) 100,00 %
02.11.2015 22:40 1,2 C 90 % 1027,6 hPa 0,0 l/m 0,2 km/h (0 Bft) O 82 0 min 0,000 mm 0,0 UV-I 0 W/m -0,3 C 1,2 C 1,6 km/h (1 Bft) 96,15 %
02.11.2015 22:41 1,1 C 90 % 1027,6 hPa 0,0 l/m 1,3 km/h (1 Bft) O 82 0 min 0,000 mm 0,0 UV-I 0 W/m -0,4 C 1,1 C 3,2 km/h (1 Bft) 100,00 %
02.11.2015 22:42 1,0 C 91 % 1027,5 hPa 0,0 l/m 1,0 km/h (0 Bft) O 82 0 min 0,000 mm 0,0 UV-I 0 W/m -0,3 C 1,0 C 1,6 km/h (1 Bft) 96,15 %
02.11.2015 22:43 0,9 C 91 % 1027,6 hPa 0,0 l/m 1,5 km/h (1 Bft) O 82 0 min 0,000 mm 0,0 UV-I 0 W/m -0,4 C 0,9 C 3,2 km/h (1 Bft) 100,00 %
02.11.2015 22:44 0,9 C 90 % 1027,6 hPa 0,0 l/m 0,6 km/h (0 Bft) O 82 0 min 0,000 mm 0,0 UV-I 0 W/m -0,6 C 0,9 C 1,6 km/h (1 Bft) 100,00 %
02.11.2015 22:45 0,8 C 92 % 1027,6 hPa 0,0 l/m 0,0 km/h (0 Bft) O 82 0 min 0,000 mm 0,0 UV-I 0 W/m -0,3 C 0,8 C 0,0 km/h (0 Bft) 100,00 %
02.11.2015 22:46 0,9 C 92 % 1027,5 hPa 0,0 l/m 0,0 km/h (0 Bft) O 82 0 min 0,000 mm 0,0 UV-I 0 W/m -0,2 C 0,9 C 0,0 km/h (0 Bft) 100,00 %
02.11.2015 22:47 0,8 C 91 % 1027,5 hPa 0,0 l/m 0,0 km/h (0 Bft) O 82 0 min 0,000 mm 0,0 UV-I 0 W/m -0,5 C 0,8 C 0,0 km/h (0 Bft) 100,00 %
02.11.2015 22:48 0,8 C 91 % 1027,5 hPa 0,0 l/m 0,0 km/h (0 Bft) O 82 0 min 0,000 mm 0,0 UV-I 0 W/m -0,5 C 0,8 C 0,0 km/h (0 Bft) 100,00 %
02.11.2015 22:49 0,7 C 91 % 1027,5 hPa 0,0 l/m 0,0 km/h (0 Bft) O 82 0 min 0,000 mm 0,0 UV-I 0 W/m -0,6 C 0,7 C 0,0 km/h (0 Bft) 95,65 %
02.11.2015 22:50 0,7 C 91 % 1027,5 hPa 0,0 l/m 0,0 km/h (0 Bft) O 82 0 min 0,000 mm 0,0 UV-I 0 W/m -0,6 C 0,7 C 0,0 km/h (0 Bft) 100,00 %
02.11.2015 22:51 0,7 C 91 % 1027,5 hPa 0,0 l/m 0,0 km/h (0 Bft) O 82 0 min 0,000 mm 0,0 UV-I 0 W/m -0,6 C 0,7 C 0,0 km/h (0 Bft) 100,00 %
02.11.2015 22:52 0,6 C 91 % 1027,5 hPa 0,0 l/m 0,0 km/h (0 Bft) O 82 0 min 0,000 mm 0,0 UV-I 0 W/m -0,7 C 0,6 C 0,0 km/h (0 Bft) 100,00 %
02.11.2015 22:53 0,6 C 91 % 1027,5 hPa 0,0 l/m 0,0 km/h (0 Bft) O 82 0 min 0,000 mm 0,0 UV-I 0 W/m -0,7 C 0,6 C 0,0 km/h (0 Bft) 95,65 %
02.11.2015 22:54 0,5 C 91 % 1027,5 hPa 0,0 l/m 0,0 km/h (0 Bft) O 82 0 min 0,000 mm 0,0 UV-I 0 W/m -0,8 C 0,5 C 0,0 km/h (0 Bft) 100,00 %
02.11.2015 22:55 0,4 C 91 % 1027,5 hPa 0,0 l/m 0,0 km/h (0 Bft) O 82 0 min 0,000 mm 0,0 UV-I 0 W/m -0,9 C 0,4 C 0,0 km/h (0 Bft) 100,00 %
02.11.2015 22:56 0,4 C 91 % 1027,5 hPa 0,0 l/m 0,0 km/h (0 Bft) O 82 0 min 0,000 mm 0,0 UV-I 0 W/m -0,9 C 0,4 C 0,0 km/h (0 Bft) 100,00 %
02.11.2015 22:57 0,4 C 92 % 1027,5 hPa 0,0 l/m 0,0 km/h (0 Bft) O 82 0 min 0,000 mm 0,0 UV-I 0 W/m -0,7 C 0,4 C 0,0 km/h (0 Bft) 100,00 %
02.11.2015 22:58 0,4 C 92 % 1027,4 hPa 0,0 l/m 0,0 km/h (0 Bft) O 82 0 min 0,000 mm 0,0 UV-I 0 W/m -0,7 C 0,4 C 0,0 km/h (0 Bft) 100,00 %
02.11.2015 22:59 0,4 C 92 % 1027,5 hPa 0,0 l/m 0,0 km/h (0 Bft) O 82 0 min 0,000 mm 0,0 UV-I 0 W/m -0,7 C 0,4 C 0,0 km/h (0 Bft) 100,00 %
02.11.2015 23:00 0,3 C 92 % 1027,5 hPa 0,0 l/m 0,1 km/h (0 Bft) O 82 0 min 0,000 mm 0,0 UV-I 0 W/m -0,8 C 0,3 C 1,6 km/h (1 Bft) 100,00 %
02.11.2015 23:01 0,3 C 91 % 1027,5 hPa 0,0 l/m 0,1 km/h (0 Bft) O 82 0 min 0,000 mm 0,0 UV-I 0 W/m -1,0 C 0,3 C 1,6 km/h (1 Bft) 100,00 %
02.11.2015 23:02 0,3 C 91 % 1027,5 hPa 0,0 l/m 0,1 km/h (0 Bft) O 82 0 min 0,000 mm 0,0 UV-I 0 W/m -1,0 C 0,3 C 1,6 km/h (1 Bft) 96,15 %
02.11.2015 23:03 0,2 C 92 % 1027,4 hPa 0,0 l/m 0,0 km/h (0 Bft) O 82 0 min 0,000 mm 0,0 UV-I 0 W/m -0,9 C 0,2 C 0,0 km/h (0 Bft) 100,00 %
02.11.2015 23:04 0,2 C 92 % 1027,4 hPa 0,0 l/m 0,0 km/h (0 Bft) O 82 0 min 0,000 mm 0,0 UV-I 0 W/m -0,9 C 0,2 C 0,0 km/h (0 Bft) 96,15 %
02.11.2015 23:05 0,2 C 92 % 1027,5 hPa 0,0 l/m 0,2 km/h (0 Bft) O 82 0 min 0,000 mm 0,0 UV-I 0 W/m -0,9 C 0,2 C 1,6 km/h (1 Bft) 100,00 %
02.11.2015 23:06 0,2 C 92 % 1027,4 hPa 0,0 l/m 0,0 km/h (0 Bft) O 82 0 min 0,000 mm 0,0 UV-I 0 W/m -0,9 C 0,2 C 0,0 km/h (0 Bft) 96,55 %
02.11.2015 23:07 0,2 C 92 % 1027,4 hPa 0,0 l/m 0,0 km/h (0 Bft) O 82 0 min 0,000 mm 0,0 UV-I 0 W/m -0,9 C 0,2 C 0,0 km/h (0 Bft) 100,00 %
02.11.2015 23:08 0,2 C 92 % 1027,4 hPa 0,0 l/m 0,0 km/h (0 Bft) O 82 0 min 0,000 mm 0,0 UV-I 0 W/m -0,9 C 0,2 C 0,0 km/h (0 Bft) 100,00 %
02.11.2015 23:09 0,2 C 92 % 1027,4 hPa 0,0 l/m 0,0 km/h (0 Bft) O 82 0 min 0,000 mm 0,0 UV-I 0 W/m -0,9 C 0,2 C 0,0 km/h (0 Bft) 100,00 %
02.11.2015 23:10 0,2 C 92 % 1027,4 hPa 0,0 l/m 0,0 km/h (0 Bft) O 82 0 min 0,000 mm 0,0 UV-I 0 W/m -0,9 C 0,2 C 0,0 km/h (0 Bft) 100,00 %
02.11.2015 23:11 0,3 C 93 % 1027,4 hPa 0,0 l/m 0,0 km/h (0 Bft) O 82 0 min 0,000 mm 0,0 UV-I 0 W/m -0,7 C 0,3 C 0,0 km/h (0 Bft) 100,00 %
02.11.2015 23:12 0,3 C 93 % 1027,4 hPa 0,0 l/m 0,0 km/h (0 Bft) O 82 0 min 0,000 mm 0,0 UV-I 0 W/m -0,7 C 0,3 C 0,0 km/h (0 Bft) 100,00 %
02.11.2015 23:13 0,3 C 93 % 1027,4 hPa 0,0 l/m 0,0 km/h (0 Bft) O 82 0 min 0,000 mm 0,0 UV-I 0 W/m -0,7 C 0,3 C 0,0 km/h (0 Bft) 100,00 %
02.11.2015 23:14 0,4 C 93 % 1027,4 hPa 0,0 l/m 0,0 km/h (0 Bft) O 82 0 min 0,000 mm 0,0 UV-I 0 W/m -0,6 C 0,4 C 0,0 km/h (0 Bft) 95,65 %
02.11.2015 23:15 0,4 C 93 % 1027,4 hPa 0,0 l/m 0,0 km/h (0 Bft) O 82 0 min 0,000 mm 0,0 UV-I 0 W/m -0,6 C 0,4 C 0,0 km/h (0 Bft) 95,83 %
02.11.2015 23:16 0,5 C 93 % 1027,4 hPa 0,0 l/m 0,1 km/h (0 Bft) O 82 0 min 0,000 mm 0,0 UV-I 0 W/m -0,5 C 0,5 C 1,6 km/h (1 Bft) 100,00 %
02.11.2015 23:17 0,5 C 93 % 1027,4 hPa 0,0 l/m 0,0 km/h (0 Bft) O 82 0 min 0,000 mm 0,0 UV-I 0 W/m -0,5 C 0,5 C 0,0 km/h (0 Bft) 100,00 %
02.11.2015 23:18 0,6 C 93 % 1027,4 hPa 0,0 l/m 0,0 km/h (0 Bft) O 82 0 min 0,000 mm 0,0 UV-I 0 W/m -0,4 C 0,6 C 0,0 km/h (0 Bft) 95,65 %
02.11.2015 23:19 0,6 C 93 % 1027,3 hPa 0,0 l/m 0,0 km/h (0 Bft) O 82 0 min 0,000 mm 0,0 UV-I 0 W/m -0,4 C 0,6 C 0,0 km/h (0 Bft) 100,00 %
02.11.2015 23:20 0,6 C 93 % 1027,3 hPa 0,0 l/m 0,0 km/h (0 Bft) O 82 0 min 0,000 mm 0,0 UV-I 0 W/m -0,4 C 0,6 C 0,0 km/h (0 Bft) 100,00 %
02.11.2015 23:21 0,7 C 92 % 1027,3 hPa 0,0 l/m 0,0 km/h (0 Bft) O 82 0 min 0,000 mm 0,0 UV-I 0 W/m -0,4 C 0,7 C 0,0 km/h (0 Bft) 95,83 %
02.11.2015 23:22 0,7 C 92 % 1027,2 hPa 0,0 l/m 0,0 km/h (0 Bft) O 82 0 min 0,000 mm 0,0 UV-I 0 W/m -0,4 C 0,7 C 0,0 km/h (0 Bft) 100,00 %
02.11.2015 23:23 0,7 C 93 % 1027,3 hPa 0,0 l/m 0,0 km/h (0 Bft) O 82 0 min 0,000 mm 0,0 UV-I 0 W/m -0,3 C 0,7 C 0,0 km/h (0 Bft) 100,00 %
02.11.2015 23:24 0,7 C 92 % 1027,2 hPa 0,0 l/m 0,0 km/h (0 Bft) O 82 0 min 0,000 mm 0,0 UV-I 0 W/m -0,4 C 0,7 C 0,0 km/h (0 Bft) 100,00 %
02.11.2015 23:25 0,7 C 92 % 1027,2 hPa 0,0 l/m 0,0 km/h (0 Bft) O 82 0 min 0,000 mm 0,0 UV-I 0 W/m -0,4 C 0,7 C 0,0 km/h (0 Bft) 100,00 %
02.11.2015 23:26 0,7 C 92 % 1027,2 hPa 0,0 l/m 0,0 km/h (0 Bft) O 82 0 min 0,000 mm 0,0 UV-I 0 W/m -0,4 C 0,7 C 0,0 km/h (0 Bft) 100,00 %
02.11.2015 23:27 0,7 C 93 % 1027,2 hPa 0,0 l/m 0,0 km/h (0 Bft) O 82 0 min 0,000 mm 0,0 UV-I 0 W/m -0,3 C 0,7 C 0,0 km/h (0 Bft) 100,00 %
02.11.2015 23:28 0,7 C 93 % 1027,2 hPa 0,0 l/m 0,0 km/h (0 Bft) O 82 0 min 0,000 mm 0,0 UV-I 0 W/m -0,3 C 0,7 C 0,0 km/h (0 Bft) 100,00 %
02.11.2015 23:29 0,8 C 93 % 1027,3 hPa 0,0 l/m 0,0 km/h (0 Bft) O 82 0 min 0,000 mm 0,0 UV-I 0 W/m -0,2 C 0,8 C 0,0 km/h (0 Bft) 100,00 %
02.11.2015 23:30 0,8 C 93 % 1027,2 hPa 0,0 l/m 0,1 km/h (0 Bft) O 82 0 min 0,000 mm 0,0 UV-I 0 W/m -0,2 C 0,8 C 1,6 km/h (1 Bft) 100,00 %
02.11.2015 23:31 0,9 C 93 % 1027,2 hPa 0,0 l/m 1,2 km/h (1 Bft) O 82 0 min 0,000 mm 0,0 UV-I 0 W/m -0,1 C 0,9 C 1,6 km/h (1 Bft) 100,00 %
02.11.2015 23:32 1,0 C 93 % 1027,2 hPa 0,0 l/m 0,9 km/h (0 Bft) O 82 0 min 0,000 mm 0,0 UV-I 0 W/m -0,0 C 1,0 C 1,6 km/h (1 Bft) 100,00 %
02.11.2015 23:33 1,1 C 93 % 1027,2 hPa 0,0 l/m 1,4 km/h (1 Bft) O 82 0 min 0,000 mm 0,0 UV-I 0 W/m 0,1 C 1,1 C 1,6 km/h (1 Bft) 100,00 %
02.11.2015 23:34 1,2 C 93 % 1027,1 hPa 0,0 l/m 1,5 km/h (1 Bft) O 82 0 min 0,000 mm 0,0 UV-I 0 W/m 0,2 C 1,2 C 3,2 km/h (1 Bft) 100,00 %
02.11.2015 23:35 1,2 C 93 % 1027,1 hPa 0,0 l/m 1,2 km/h (1 Bft) O 82 0 min 0,000 mm 0,0 UV-I 0 W/m 0,2 C 1,2 C 1,6 km/h (1 Bft) 100,00 %
02.11.2015 23:36 1,3 C 93 % 1027,1 hPa 0,0 l/m 0,7 km/h (0 Bft) O 82 0 min 0,000 mm 0,0 UV-I 0 W/m 0,3 C 1,3 C 1,6 km/h (1 Bft) 100,00 %
02.11.2015 23:37 1,4 C 92 % 1027,1 hPa 0,0 l/m 0,9 km/h (0 Bft) O 82 0 min 0,000 mm 0,0 UV-I 0 W/m 0,2 C 1,4 C 1,6 km/h (1 Bft) 100,00 %
02.11.2015 23:38 1,5 C 92 % 1027,1 hPa 0,0 l/m 0,1 km/h (0 Bft) O 82 0 min 0,000 mm 0,0 UV-I 0 W/m 0,3 C 1,5 C 1,6 km/h (1 Bft) 100,00 %
02.11.2015 23:39 1,6 C 91 % 1027,2 hPa 0,0 l/m 0,0 km/h (0 Bft) O 82 0 min 0,000 mm 0,0 UV-I 0 W/m 0,3 C 1,6 C 0,0 km/h (0 Bft) 96,30 %
02.11.2015 23:40 1,5 C 91 % 1027,2 hPa 0,0 l/m 0,0 km/h (0 Bft) O 82 0 min 0,000 mm 0,0 UV-I 0 W/m 0,2 C 1,5 C 0,0 km/h (0 Bft) 96,15 %
02.11.2015 23:41 1,4 C 90 % 1027,2 hPa 0,0 l/m 0,4 km/h (0 Bft) O 82 0 min 0,000 mm 0,0 UV-I 0 W/m -0,1 C 1,4 C 1,6 km/h (1 Bft) 100,00 %
02.11.2015 23:42 1,3 C 90 % 1027,2 hPa 0,0 l/m 0,1 km/h (0 Bft) O 82 0 min 0,000 mm 0,0 UV-I 0 W/m -0,2 C 1,3 C 1,6 km/h (1 Bft) 100,00 %
02.11.2015 23:43 1,1 C 89 % 1027,2 hPa 0,0 l/m 0,3 km/h (0 Bft) O 82 0 min 0,000 mm 0,0 UV-I 0 W/m -0,5 C 1,1 C 1,6 km/h (1 Bft) 100,00 %
02.11.2015 23:44 0,8 C 88 % 1027,2 hPa 0,0 l/m 1,5 km/h (1 Bft) O-SO 112 0 min 0,000 mm 0,0 UV-I 0 W/m -1,0 C 0,8 C 1,6 km/h (1 Bft) 100,00 %
02.11.2015 23:45 0,7 C 88 % 1027,2 hPa 0,0 l/m 1,5 km/h (1 Bft) O-SO 112 0 min 0,000 mm 0,0 UV-I 0 W/m -1,1 C 0,7 C 3,2 km/h (1 Bft) 95,65 %
02.11.2015 23:46 0,4 C 88 % 1027,2 hPa 0,0 l/m 1,2 km/h (1 Bft) O-SO 112 0 min 0,000 mm 0,0 UV-I 0 W/m -1,3 C 0,4 C 1,6 km/h (1 Bft) 95,83 %
02.11.2015 23:47 0,2 C 89 % 1027,2 hPa 0,0 l/m 0,9 km/h (0 Bft) O-SO 112 0 min 0,000 mm 0,0 UV-I 0 W/m -1,4 C 0,2 C 1,6 km/h (1 Bft) 100,00 %
02.11.2015 23:48 0,0 C 89 % 1027,2 hPa 0,0 l/m 1,6 km/h (1 Bft) O-SO 112 0 min 0,000 mm 0,0 UV-I 0 W/m -1,6 C 0,0 C 3,2 km/h (1 Bft) 100,00 %
02.11.2015 23:49 -0,2 C 90 % 1027,2 hPa 0,0 l/m 1,0 km/h (0 Bft) O-SO 112 0 min 0,000 mm 0,0 UV-I 0 W/m -1,6 C -0,2 C 1,6 km/h (1 Bft) 100,00 %
02.11.2015 23:50 -0,2 C 91 % 1027,2 hPa 0,0 l/m 0,3 km/h (0 Bft) O-SO 112 0 min 0,000 mm 0,0 UV-I 0 W/m -1,5 C -0,2 C 1,6 km/h (1 Bft) 100,00 %
02.11.2015 23:51 -0,3 C 92 % 1027,3 hPa 0,0 l/m 0,0 km/h (0 Bft) O-SO 112 0 min 0,000 mm 0,0 UV-I 0 W/m -1,4 C -0,3 C 0,0 km/h (0 Bft) 100,00 %
02.11.2015 23:52 -0,3 C 92 % 1027,2 hPa 0,0 l/m 0,0 km/h (0 Bft) O-SO 112 0 min 0,000 mm 0,0 UV-I 0 W/m -1,4 C -0,3 C 0,0 km/h (0 Bft) 100,00 %
02.11.2015 23:53 -0,4 C 93 % 1027,2 hPa 0,0 l/m 0,0 km/h (0 Bft) O-SO 112 0 min 0,000 mm 0,0 UV-I 0 W/m -1,4 C -0,4 C 0,0 km/h (0 Bft) 100,00 %
02.11.2015 23:54 -0,4 C 93 % 1027,2 hPa 0,0 l/m 0,0 km/h (0 Bft) O-SO 112 0 min 0,000 mm 0,0 UV-I 0 W/m -1,4 C -0,4 C 0,0 km/h (0 Bft) 100,00 %
02.11.2015 23:55 -0,4 C 93 % 1027,2 hPa 0,0 l/m 0,2 km/h (0 Bft) O-SO 112 0 min 0,000 mm 0,0 UV-I 0 W/m -1,4 C -0,4 C 1,6 km/h (1 Bft) 100,00 %
02.11.2015 23:56 -0,4 C 93 % 1027,2 hPa 0,0 l/m 0,5 km/h (0 Bft) O-SO 112 0 min 0,000 mm 0,0 UV-I 0 W/m -1,4 C -0,4 C 1,6 km/h (1 Bft) 100,00 %
02.11.2015 23:57 -0,4 C 93 % 1027,2 hPa 0,0 l/m 1,6 km/h (1 Bft) O-SO 115 0 min 0,000 mm 0,0 UV-I 0 W/m -1,4 C -0,4 C 3,2 km/h (1 Bft) 100,00 %
02.11.2015 23:58 -0,4 C 93 % 1027,2 hPa 0,0 l/m 0,7 km/h (0 Bft) O-SO 116 0 min 0,000 mm 0,0 UV-I 0 W/m -1,4 C -0,4 C 1,6 km/h (1 Bft) 100,00 %
02.11.2015 23:59 -0,4 C 93 % 1027,3 hPa 0,0 l/m 1,2 km/h (1 Bft) SO 129 0 min 0,000 mm 0,0 UV-I 0 W/m -1,4 C -0,4 C 3,2 km/h (1 Bft) 100,00 %
_ Min-Zeit 06:50 14:37 23:34 - 00:03 - - - - - - 06:13 06:58 00:03 05:54
Minimum _ -1,9 C 53 % 1027,1 hPa - 0,0 km/h (0 Bft) - - - - - - -3,1 C -1,9 C 0,0 km/h (0 Bft) 87,50 %
_ Max-Zeit 14:06 06:26 00:08 00:00 14:36 - - 09:20 13:00 11:29 11:48 13:41 14:22 15:44 00:00
Maximum _ 11,3 C 94 % 1031,0 hPa 0,0 l/m 10,2 km/h
O (2 Bft)
- - 5 min 0,229 mm 1,8 UV-I 485 W/m 4,1 C 11,3 C 14,5 km/h
O-NO (3 Bft)
100,00 %
Durchschnitt _ 3,9 C 78 % 1029,0 hPa #0,0 l/m 1,8 km/h (1 Bft) O - #8:28 h #1,346 mm 1,2 UV-I 268 W/m 0,3 C 3,9 C 3,2 km/h (1 Bft) 99,24 %